GFSMW_850_thetae_000.txt.gz
Theta_e
349 350 350 350 348 348 349 349 350 348 347 345 345 346 346 346 347 347 347 344 344 344 344 346 340 337 336 333 332 332 328 332 332 334 330 330 332 333 334 334 333 333 334
349 349 349 350 349 347 348 347 346 346 347 346 345 347 349 350 350 348 347 347 346 345 345 339 335 333 329 326 326 326 333 332 335 334 332 330 335 334 330 330 330 329 330
347 347 347 347 348 347 347 346 346 347 348 346 347 349 351 349 346 344 343 345 339 341 338 335 330 323 325 328 329 327 329 334 335 334 331 332 332 328 329 328 324 321 321
345 345 346 346 347 346 347 346 345 346 347 347 347 347 344 339 337 333 334 334 332 339 335 325 324 328 329 331 329 324 328 332 333 331 330 330 331 330 329 325 321 320 319
346 346 346 346 346 346 346 346 345 346 346 347 346 347 342 340 340 335 335 333 338 340 333 324 327 329 332 331 326 325 327 329 329 331 330 327 328 327 325 323 321 321 319
345 346 346 347 347 347 347 346 346 342 342 346 346 346 340 341 340 336 329 327 336 335 331 327 331 332 331 327 324 325 327 329 331 331 325 324 324 324 324 323 322 321 319
346 347 347 347 347 347 349 347 346 336 337 340 339 335 333 333 336 334 323 328 332 333 331 326 329 331 328 322 323 327 328 329 328 328 330 329 328 327 328 326 324 323 322
347 348 348 348 349 349 350 344 341 334 332 333 329 326 331 326 324 325 321 325 332 331 320 320 322 326 325 323 321 325 329 329 330 329 329 329 329 329 329 328 326 325 325
347 348 348 349 350 350 350 343 337 330 328 328 326 326 327 327 321 320 316 321 325 321 322 325 321 324 326 326 324 322 321 327 330 330 330 330 328 329 329 329 328 327 326
346 347 348 349 350 349 349 348 339 327 326 327 326 327 325 324 323 319 316 316 318 321 323 325 322 324 324 323 324 323 319 319 323 326 328 330 330 330 327 327 329 328 326
344 346 347 347 349 349 349 349 344 337 327 326 327 327 329 330 330 322 317 319 320 321 323 320 321 323 325 322 319 318 322 324 325 326 327 326 327 328 328 328 328 328 324
341 343 344 346 347 348 348 348 348 342 337 330 333 329 330 336 339 325 319 319 318 318 319 319 321 322 324 322 322 321 322 325 328 330 330 326 327 325 327 328 326 324 324
338 341 343 344 344 346 347 348 348 347 342 340 340 341 338 340 340 333 324 319 318 317 320 321 320 320 321 322 319 321 323 325 326 326 325 324 323 322 322 322 322 321 321
338 339 341 342 342 343 344 346 347 347 347 342 341 343 344 341 345 336 328 324 319 320 320 320 320 321 322 321 319 320 323 326 327 326 323 324 321 321 322 323 323 323 320
337 339 339 340 341 342 343 344 345 347 347 346 342 341 343 346 347 337 332 325 322 322 322 320 321 323 324 323 322 323 324 325 326 326 324 322 322 320 320 321 322 322 321
338 338 338 339 339 339 339 341 343 344 345 345 345 345 348 349 345 336 335 332 327 324 323 323 323 325 326 323 324 325 325 325 326 326 324 324 323 320 320 320 320 320 320
339 339 339 338 337 336 337 339 340 342 343 345 346 348 349 348 345 339 333 338 326 323 322 323 326 325 326 323 327 328 328 328 328 326 326 326 324 321 321 320 320 320 321
338 339 337 336 337 338 339 339 340 340 341 342 346 348 349 348 345 337 333 338 328 322 323 327 327 324 327 325 329 331 330 329 329 326 326 325 325 322 322 321 320 321 321
335 335 338 335 329 328 331 334 338 342 344 344 346 347 348 347 345 340 331 336 338 331 330 331 330 329 326 328 329 328 330 327 328 327 326 325 323 322 322 321 321 319 317
336 332 329 329 329 329 329 330 336 342 343 346 348 348 348 346 342 339 333 336 336 337 335 333 333 331 331 332 330 330 327 325 326 326 324 324 323 321 319 317 317 318 320
332 333 333 333 332 331 332 333 333 335 340 345 350 348 347 346 341 337 338 338 337 336 331 330 326 327 326 327 329 329 325 325 326 325 325 323 320 316 315 316 318 319 318
328 328 328 328 327 327 333 336 336 341 338 347 349 346 344 343 340 337 337 337 335 333 330 330 327 327 325 329 328 324 322 325 326 324 322 320 318 314 313 315 317 318 317
330 330 329 328 327 327 332 328 340 338 344 348 346 343 341 341 338 336 334 333 330 328 329 324 327 327 328 329 323 320 322 325 323 322 320 320 318 314 312 315 318 317 315
331 331 331 332 336 336 342 342 344 345 346 342 341 340 337 336 332 328 327 329 329 329 326 324 327 327 328 325 323 323 324 322 320 320 320 318 317 314 314 317 318 315 313
332 331 332 331 338 340 344 344 346 344 340 338 338 339 338 336 333 331 330 328 327 324 324 327 326 327 327 325 324 323 322 320 319 318 318 316 314 315 316 317 314 312 313
332 334 336 335 334 333 338 342 341 338 336 333 331 330 335 332 329 330 331 328 325 323 325 325 327 326 325 324 323 322 320 319 317 317 315 313 313 315 315 313 312 312 311

GFSMW_850_thetae_003.txt.gz
Theta_e
351 352 349 349 349 349 349 348 347 348 347 346 345 345 344 343 344 345 345 347 346 344 343 344 344 344 336 334 332 332 333 335 330 330 335 330 332 332 331 332 330 330 330
352 352 352 350 350 350 349 349 349 349 348 348 345 345 343 344 346 347 349 346 346 344 345 345 343 334 331 327 326 329 331 331 330 336 330 333 336 336 331 326 322 321 323
350 350 351 351 349 350 350 348 349 346 347 348 347 346 346 347 347 348 349 347 347 345 340 338 334 328 321 328 328 329 327 336 333 332 333 334 333 332 331 326 319 319 318
348 348 349 349 349 347 348 348 348 346 346 347 348 348 347 349 350 347 346 343 344 338 337 338 327 321 326 325 327 324 325 329 335 330 329 329 330 332 331 329 323 322 320
346 347 348 345 345 345 346 347 348 347 347 347 349 349 348 350 349 343 339 339 337 332 338 334 323 324 326 327 327 322 323 324 327 333 333 327 326 324 330 327 327 327 323
346 346 346 344 345 345 346 347 347 347 346 346 347 348 348 349 346 342 339 338 334 335 341 333 324 328 328 328 324 322 323 325 327 330 328 330 329 329 329 329 329 327 327
346 346 347 346 345 346 346 347 347 347 346 346 346 346 347 348 342 335 336 334 328 329 330 331 323 326 330 326 322 324 327 327 327 326 332 329 329 330 331 330 329 329 328
345 346 346 345 346 347 347 347 349 347 345 343 342 342 343 343 331 328 330 328 327 328 332 329 323 325 328 326 322 323 325 327 327 327 327 331 329 329 329 331 331 329 328
345 346 346 345 346 347 347 348 350 348 340 336 338 340 341 339 330 327 330 327 323 328 329 321 323 323 324 324 324 325 322 322 327 329 329 330 332 331 331 331 330 330 330
346 347 347 345 346 347 348 347 347 347 334 333 334 334 335 329 327 326 328 327 318 327 322 320 325 324 322 323 325 325 324 320 321 324 323 324 330 328 327 327 329 329 329
346 347 348 346 345 346 348 348 348 347 343 332 330 331 330 326 327 327 319 318 318 317 319 321 324 323 322 322 320 319 318 317 322 323 324 325 326 327 327 325 325 328 328
344 347 348 348 346 347 347 348 350 349 347 337 329 329 329 327 324 323 341 319 317 321 318 321 322 320 322 323 322 322 325 323 322 325 326 325 324 323 322 321 322 323 325
345 346 348 348 346 346 347 348 348 348 348 348 341 331 330 330 329 329 335 326 319 324 323 324 320 320 320 321 322 320 322 324 325 324 325 324 325 324 322 322 322 326 323
342 343 346 342 342 342 344 345 347 349 349 348 348 344 335 334 341 341 345 327 324 323 324 320 319 320 321 321 321 320 322 323 323 324 326 327 324 323 322 320 320 321 322
342 341 339 338 339 341 342 343 344 346 347 348 348 349 347 346 346 348 344 330 328 328 328 324 321 323 322 322 322 324 326 325 323 322 324 326 325 324 323 321 321 320 322
337 337 337 338 338 339 340 341 343 344 345 346 348 349 349 349 347 348 346 341 334 330 329 326 331 328 325 323 325 328 328 325 325 324 326 327 326 325 325 324 321 321 321
337 337 338 338 339 339 340 340 340 341 342 343 345 347 347 347 348 347 346 338 337 333 332 329 335 329 328 324 326 327 328 328 326 327 328 328 326 325 326 325 323 322 322
340 338 337 337 337 337 338 338 338 339 339 341 343 345 346 347 347 346 343 340 338 335 331 331 332 333 333 329 328 330 329 331 330 330 329 329 327 326 325 324 323 322 321
335 337 338 337 334 330 329 330 331 332 336 340 343 344 345 346 347 346 343 337 338 334 332 329 332 332 332 331 328 326 326 329 329 329 328 328 328 325 324 324 321 320 318
335 336 330 327 327 328 328 329 328 330 333 338 342 346 347 347 346 346 343 341 335 334 334 335 333 333 332 330 328 326 327 329 329 329 327 328 325 325 324 321 317 316 316
333 329 329 329 331 332 332 331 331 332 335 338 342 349 348 346 345 344 341 337 332 333 335 334 335 333 328 327 327 326 326 326 329 327 328 326 325 324 320 317 314 313 314
331 331 333 332 331 329 330 330 330 333 336 341 344 347 347 345 344 343 340 336 335 335 336 335 334 329 326 326 327 326 327 327 325 328 326 325 323 321 319 317 313 313 317
332 333 333 332 332 330 329 329 332 337 340 340 344 344 343 342 341 341 340 336 336 336 336 334 329 327 325 325 327 326 325 322 326 325 323 322 320 321 319 316 313 316 316
331 333 331 331 333 334 333 335 340 341 342 344 343 339 338 338 338 339 337 334 330 329 328 327 325 325 325 326 328 324 323 324 324 322 320 319 319 318 316 314 316 315 314
331 331 331 330 336 337 342 344 344 344 342 336 336 335 336 336 337 336 333 329 328 329 329 327 325 327 326 326 326 324 324 323 321 320 318 317 316 314 314 315 315 312 311
337 335 335 333 334 336 340 343 343 341 339 339 337 335 334 334 335 333 329 327 328 326 325 325 325 324 326 326 324 323 322 320 319 317 315 315 312 313 313 312 311 309 310

GFSMW_850_thetae_006.txt.gz
Theta_e
348 350 352 352 352 353 355 356 355 355 353 351 351 351 350 350 350 350 350 349 348 347 344 349 348 346 345 344 342 339 338 335 337 335 335 336 337 337 336 336 330 331 333
349 351 352 352 352 354 356 357 356 355 351 354 352 351 352 350 352 352 353 351 351 348 347 347 347 344 341 342 339 338 336 336 336 336 335 333 336 336 334 331 328 327 329
350 350 351 352 352 353 356 357 357 356 354 352 353 353 352 351 352 352 353 351 350 349 345 343 342 342 332 333 338 338 336 335 339 338 335 333 333 331 333 334 329 328 327
350 350 350 351 352 353 355 357 357 355 355 352 353 353 352 349 347 348 347 350 350 349 346 344 343 328 333 338 338 336 336 332 335 335 335 334 333 332 331 331 330 328 327
348 349 350 349 351 352 354 355 352 349 353 355 353 355 354 348 347 348 351 350 347 347 344 342 331 324 333 339 337 337 336 335 334 333 334 335 332 333 331 329 329 329 329
344 346 348 348 350 351 353 354 353 347 349 355 355 355 354 351 348 350 348 344 345 346 345 342 332 326 335 337 336 330 333 328 334 334 336 331 330 330 330 328 329 329 328
344 344 346 348 350 351 352 353 351 346 347 348 354 354 355 354 353 352 347 343 343 343 345 338 333 336 337 337 331 325 334 333 334 334 333 333 332 331 330 329 329 329 330
344 344 345 346 349 350 351 353 353 346 347 347 346 347 351 355 353 352 347 344 342 340 341 333 335 334 337 336 326 331 333 334 333 333 334 332 332 330 330 330 331 331 330
346 343 345 346 348 350 351 350 350 348 347 348 346 345 345 347 352 352 352 346 344 340 344 331 333 334 337 334 331 331 333 332 332 331 332 332 329 329 330 331 332 331 330
346 345 344 345 347 348 350 350 349 348 349 350 344 342 343 342 346 353 351 339 346 336 342 334 329 324 332 332 329 332 333 332 328 328 330 332 330 330 332 331 330 329 329
346 346 345 345 347 347 348 350 353 353 350 350 341 337 344 348 338 343 334 338 337 331 327 328 326 329 321 332 333 332 331 331 330 329 332 334 334 331 329 329 328 328 328
345 347 347 347 347 348 347 348 350 352 353 343 339 339 347 345 342 333 330 322 331 323 318 321 324 328 327 334 336 334 331 331 330 331 333 334 332 333 333 331 331 329 329
346 348 348 349 350 349 349 350 352 352 353 354 354 347 340 341 350 335 329 332 333 320 319 326 323 325 331 333 335 335 334 332 331 332 333 333 333 333 331 330 328 328 327
346 348 348 350 351 351 351 352 352 353 354 354 356 356 351 353 352 344 334 333 336 321 320 326 329 329 330 329 332 335 335 330 330 333 334 334 334 333 332 331 331 331 330
346 348 349 351 352 352 353 355 355 354 354 356 356 358 358 358 354 347 337 341 339 328 324 325 326 329 327 323 327 333 333 330 327 333 334 334 334 330 327 328 327 326 327
346 348 351 352 355 355 356 356 356 355 356 357 357 357 359 357 353 349 346 345 346 339 332 328 327 331 326 323 329 329 333 333 335 336 336 331 327 329 328 327 326 326 325
345 347 349 351 354 355 356 356 355 355 355 356 357 357 357 352 350 349 348 347 347 342 336 330 332 331 327 327 328 325 328 334 335 335 327 327 329 330 331 330 328 326 325
345 346 347 350 352 352 352 352 348 341 349 349 352 354 350 348 346 347 346 347 346 344 336 333 335 332 331 328 334 333 330 330 333 329 328 328 329 329 329 328 329 325 325
347 347 347 349 348 348 346 340 340 339 342 344 347 344 345 346 345 346 346 345 345 342 339 337 337 336 336 333 335 332 333 333 328 327 325 327 325 328 328 326 325 325 325
344 345 344 345 345 342 335 333 341 336 334 333 336 337 341 345 346 347 346 345 342 340 340 339 337 336 336 329 329 332 331 329 327 326 327 327 328 327 327 325 325 324 324
345 345 344 342 334 332 338 344 342 336 332 333 335 336 341 347 348 347 345 344 342 339 338 338 338 336 334 330 333 331 329 329 327 327 327 330 325 327 326 324 321 321 318
342 341 342 341 343 340 336 331 332 330 332 336 340 341 346 346 345 345 345 345 342 340 338 336 338 336 337 335 330 326 329 328 327 328 330 329 325 324 322 320 320 318 315
340 341 344 346 344 338 341 335 331 331 333 335 340 345 347 346 344 344 345 343 344 340 339 338 338 337 338 331 328 328 327 328 328 330 324 324 323 321 320 319 318 316 317
343 343 344 340 331 330 330 329 331 334 336 337 341 343 342 344 344 344 342 341 340 339 338 339 337 335 330 329 326 327 327 326 323 322 321 321 320 318 318 318 317 317 317
343 342 342 344 332 332 332 334 337 341 342 344 344 346 346 343 341 343 340 340 337 337 335 334 328 329 331 333 330 328 327 325 324 323 322 321 320 320 320 319 318 316 314
345 346 346 343 341 340 342 343 344 345 349 347 344 342 342 341 341 338 338 335 334 329 328 328 328 326 327 326 326 326 324 323 322 320 320 319 319 319 318 317 315 313 312

GFSMW_850_thetae_009.txt.gz
Theta_e
347 348 350 350 350 351 353 354 354 353 354 353 352 353 351 351 350 348 353 353 347 351 349 349 349 349 346 347 342 340 337 338 338 336 338 336 337 338 337 335 332 333 333
345 348 350 350 350 352 353 354 354 354 354 355 352 353 350 350 348 350 350 351 352 353 351 350 348 348 345 343 341 339 338 337 337 337 335 336 338 337 335 332 330 330 330
343 347 349 350 351 352 353 355 355 355 355 354 353 353 354 351 352 351 354 352 351 352 351 350 346 348 339 332 339 340 338 337 338 336 337 335 337 334 335 335 331 330 329
344 345 349 351 351 352 354 355 355 354 356 353 355 354 352 349 346 346 347 350 355 350 352 352 347 342 334 338 339 338 336 334 336 336 336 331 334 335 334 333 333 331 330
345 345 347 350 351 352 354 356 356 356 356 356 353 354 352 348 349 346 347 350 354 350 349 348 346 342 333 338 339 339 332 340 335 334 334 336 333 333 331 331 331 331 332
345 347 346 349 350 351 353 356 357 357 355 357 352 352 354 349 347 347 349 350 349 350 347 345 344 341 336 340 340 339 338 333 337 336 335 333 332 332 332 331 330 330 330
345 345 348 348 350 351 352 354 357 357 357 358 356 353 355 355 351 353 351 349 345 346 347 345 345 342 335 340 339 339 338 337 336 333 336 334 333 332 331 330 330 330 331
347 344 346 348 350 350 352 354 356 358 355 358 356 355 353 354 351 352 352 348 346 345 345 345 345 342 340 341 339 335 334 336 336 335 335 335 332 334 331 331 331 330 331
346 346 344 346 348 349 352 353 355 355 355 359 356 355 355 353 352 351 350 351 346 344 343 347 345 343 339 340 337 331 336 333 335 334 335 334 333 331 330 331 332 332 331
345 346 345 345 346 349 351 353 355 356 354 357 358 358 358 356 352 353 351 352 347 343 342 346 342 338 332 333 329 334 335 335 334 332 330 333 331 331 332 332 331 331 330
344 346 346 345 346 347 349 352 353 355 354 356 357 357 356 357 354 349 351 352 348 348 344 337 329 324 331 322 318 333 334 336 335 333 329 332 334 333 332 330 331 329 329
341 345 346 346 346 346 347 348 350 352 355 356 356 354 351 353 355 351 352 350 347 347 338 323 319 324 324 329 323 320 333 334 334 332 331 334 334 334 334 332 332 332 329
339 344 346 346 347 347 347 346 348 348 352 355 356 357 353 350 350 353 351 346 348 346 332 325 317 322 321 323 320 322 325 336 334 333 333 334 334 333 333 332 330 330 329
344 343 346 347 348 348 348 346 346 346 349 353 354 355 355 352 353 353 352 347 351 346 327 326 317 318 322 325 327 328 322 334 337 334 333 335 335 334 334 334 334 332 332
344 346 348 349 350 350 350 349 347 347 350 352 354 354 356 356 355 354 354 355 353 346 332 328 322 317 323 329 329 329 322 326 337 334 333 334 334 334 334 333 330 331 329
336 347 349 350 353 353 354 353 351 351 352 354 355 357 359 359 358 356 357 356 354 351 344 338 325 320 324 334 333 331 321 335 336 335 335 334 336 335 332 327 327 329 328
334 345 348 351 353 355 356 356 355 354 355 355 358 358 360 359 360 359 358 356 353 349 346 343 329 322 329 333 328 328 328 335 336 335 334 335 336 331 326 327 328 326 326
334 340 347 351 355 355 355 357 359 357 358 358 358 359 359 361 361 359 357 354 351 349 347 344 330 334 336 333 331 328 328 332 332 334 335 336 335 333 329 328 327 325 328
335 342 348 351 355 356 356 358 359 360 360 361 360 360 361 363 360 356 353 349 349 348 345 341 336 337 340 339 336 331 333 333 335 333 336 337 330 329 327 327 326 325 327
336 346 349 351 356 356 358 358 358 358 358 359 359 359 359 357 357 353 349 349 348 347 344 341 340 342 342 339 337 335 332 335 334 335 335 329 327 326 327 326 326 327 328
346 350 350 355 354 353 354 355 354 354 353 353 352 353 355 353 353 350 350 350 348 346 343 342 341 342 341 339 338 331 331 334 336 336 335 331 330 328 324 325 327 325 324
347 349 350 352 352 351 351 350 350 348 350 351 355 354 353 353 353 353 349 348 346 343 343 342 342 343 340 340 334 332 330 334 334 334 332 331 331 327 326 324 322 320 320
349 349 350 348 347 348 350 351 352 352 354 355 356 353 349 353 351 350 347 346 343 342 342 341 342 342 338 338 337 331 332 330 329 329 327 331 328 325 322 320 319 319 318
346 347 348 350 352 352 353 359 356 356 356 350 343 345 351 352 347 348 345 343 342 341 343 342 339 338 338 337 334 331 328 327 327 328 328 326 323 320 319 319 319 319 319
345 346 349 350 351 353 354 352 353 354 351 350 352 354 351 347 345 344 342 341 343 341 341 340 339 338 333 329 328 327 327 328 329 327 326 325 324 323 323 322 321 320 319
346 347 348 349 351 352 351 350 349 351 350 350 349 344 343 343 343 341 340 340 339 338 337 332 331 332 329 330 328 328 328 328 327 325 323 323 322 321 321 321 321 319 317

GFSMW_850_thetae_012.txt.gz
Theta_e
345 347 348 348 348 350 351 351 350 351 355 353 353 352 354 350 347 346 350 352 352 351 344 346 346 347 345 349 346 341 336 338 337 337 337 338 336 335 337 334 332 333 333
345 347 349 349 349 350 351 352 352 352 351 354 354 351 348 348 349 350 349 350 349 346 347 346 346 349 348 343 343 334 336 338 337 333 336 337 338 337 334 332 330 330 331
343 347 348 349 350 351 352 352 353 353 353 353 352 349 352 352 352 351 349 346 346 347 351 349 346 350 349 337 336 340 339 337 339 338 336 339 339 336 336 333 331 329 329
343 345 348 350 350 351 351 353 353 353 353 353 353 350 351 354 351 351 351 347 351 349 350 345 346 347 339 339 338 337 332 333 338 338 336 333 331 335 337 334 333 332 331
344 343 348 349 350 351 353 353 353 354 353 352 354 356 352 350 348 345 345 350 349 349 352 350 349 343 321 335 337 340 327 339 335 335 336 336 332 331 327 331 333 333 332
345 345 346 348 350 351 354 353 354 356 354 354 353 356 355 349 349 349 350 349 351 352 348 350 346 338 324 339 336 330 326 336 338 335 335 336 333 333 334 333 331 330 331
346 346 346 349 350 351 353 355 355 357 355 353 355 351 355 350 351 349 347 350 351 351 349 346 341 335 323 338 333 333 333 330 327 331 336 336 332 333 332 331 331 331 330
347 347 347 348 351 351 352 355 357 356 356 354 355 353 349 352 346 350 350 351 349 345 348 347 346 334 333 326 325 322 320 324 332 329 324 335 334 333 333 331 331 330 328
348 346 348 348 351 352 351 354 358 357 357 356 354 353 350 348 352 348 352 353 348 347 345 346 346 344 331 331 334 325 333 337 337 335 328 324 332 333 331 331 331 331 330
347 348 346 349 350 352 352 354 356 357 357 357 354 355 352 349 346 350 351 351 354 347 347 345 343 337 330 326 329 325 334 323 325 331 333 332 333 333 330 331 330 330 332
341 347 347 347 350 352 353 354 356 358 359 359 355 353 352 344 345 349 352 351 350 351 346 345 343 340 327 329 327 326 330 330 328 323 328 331 331 329 331 332 332 331 329
339 343 347 347 348 350 352 354 356 358 360 360 356 351 346 347 342 345 347 352 353 352 349 344 341 341 330 324 324 324 328 333 329 324 323 323 326 327 332 330 328 331 332
338 343 345 348 347 348 350 353 355 357 361 361 356 353 349 348 341 336 338 348 351 349 350 345 344 338 330 325 324 327 321 325 325 326 326 323 327 333 333 334 333 331 329
336 344 344 349 347 348 349 351 354 356 358 360 358 356 352 345 337 338 341 341 343 347 349 347 342 339 330 327 324 327 324 325 325 331 330 329 333 334 329 329 328 328 329
342 341 344 345 348 348 349 349 350 352 353 356 358 358 354 350 350 350 349 345 349 350 349 352 349 345 336 331 328 331 329 330 329 335 332 331 332 334 330 330 330 332 328
337 344 341 346 349 349 349 349 348 350 350 351 355 355 357 356 356 356 355 358 356 357 356 355 354 349 342 333 325 329 334 334 334 329 335 333 333 332 334 332 331 332 328
335 340 347 346 351 353 350 350 348 349 348 349 353 352 354 356 357 357 358 357 358 357 357 356 355 352 346 335 332 336 336 334 333 335 337 333 331 333 333 333 331 328 328
335 334 339 348 349 355 355 353 352 349 349 349 352 353 354 357 357 358 358 358 358 358 358 357 354 351 346 336 330 334 332 331 334 335 334 333 332 334 334 331 329 329 328
339 335 333 346 348 353 355 357 356 352 352 353 356 357 360 361 362 361 362 361 360 359 357 353 349 348 342 333 330 330 334 332 331 334 333 330 327 329 328 327 330 328 327
333 334 335 345 349 353 355 357 358 358 354 357 357 362 363 366 365 363 362 362 359 356 351 349 347 345 342 338 339 341 338 335 332 329 332 331 331 330 327 328 327 327 327
331 336 347 350 350 354 358 358 360 362 360 361 363 362 363 363 363 362 360 355 352 351 348 346 343 342 341 341 342 340 338 336 334 330 331 334 333 331 330 329 326 325 326
341 342 349 352 356 357 360 361 361 362 363 363 362 361 361 360 360 358 354 354 349 348 347 344 343 342 342 342 341 339 338 334 332 334 336 336 333 330 327 328 326 325 322
349 353 358 359 359 359 360 360 360 359 359 358 358 359 357 355 355 353 350 349 348 345 344 343 342 342 342 342 339 339 334 332 330 332 332 329 329 326 327 327 322 319 319
351 353 355 356 356 357 357 356 355 356 355 357 356 353 352 351 351 350 350 348 345 344 342 343 342 342 340 338 337 336 335 332 331 329 327 328 327 327 323 322 322 321 320
351 352 352 355 356 358 358 356 356 355 354 354 353 353 351 348 350 348 346 344 343 343 343 341 340 340 338 338 331 328 327 327 327 326 327 326 325 325 324 324 323 321 320
352 354 355 356 358 358 354 354 353 350 345 348 346 350 347 346 347 345 343 343 342 342 340 340 338 336 335 331 327 324 326 327 328 328 329 326 325 324 323 322 321 321 321

GFSMW_850_thetae_015.txt.gz
Theta_e
346 348 348 347 348 349 348 349 350 350 352 352 351 346 344 347 348 348 348 348 346 348 347 346 342 344 345 343 342 342 332 336 337 338 336 336 336 337 337 335 333 333 333
345 347 348 348 348 349 348 349 349 349 352 353 351 351 351 350 349 346 343 348 349 350 347 346 343 345 347 346 341 333 327 338 337 336 334 336 338 337 335 334 328 331 332
345 346 347 348 348 348 349 349 349 349 351 353 353 352 349 352 351 352 350 351 351 347 346 344 344 342 349 343 338 331 334 338 337 336 334 338 338 338 333 335 332 331 328
345 345 347 347 348 348 348 349 350 351 350 352 353 352 349 346 349 352 349 347 348 346 348 344 344 345 349 345 331 330 326 338 338 335 336 333 334 336 336 332 332 332 331
344 346 347 348 348 349 349 349 350 351 352 350 350 351 347 345 350 351 351 350 349 350 348 348 343 344 343 334 333 327 318 335 336 335 336 334 331 331 330 335 333 332 332
342 343 345 348 348 349 350 350 350 351 352 352 351 349 348 348 350 349 348 348 348 351 347 347 348 345 333 320 330 334 331 330 336 334 334 335 334 333 333 333 330 330 332
343 342 346 349 349 349 351 351 350 351 352 352 352 350 349 350 348 344 347 347 350 349 350 349 346 341 330 318 322 319 320 323 329 333 334 335 333 332 332 331 330 330 330
344 343 343 347 349 349 350 351 351 351 352 352 353 351 349 351 349 344 353 353 349 348 349 348 345 335 329 318 324 323 320 321 318 318 326 334 333 332 332 332 331 331 330
343 344 344 346 348 349 349 350 353 353 352 353 353 351 350 350 347 347 351 353 350 351 347 345 347 346 344 324 321 321 320 321 327 321 320 331 334 332 332 331 330 330 331
343 345 345 346 347 348 348 350 352 353 352 353 354 353 347 350 346 346 350 351 350 348 347 346 346 346 345 340 321 321 322 327 329 327 320 323 328 332 332 331 330 330 330
344 346 346 346 346 349 349 350 352 354 354 353 354 354 349 348 349 345 346 347 354 352 349 346 347 346 345 342 322 320 323 326 329 329 326 328 329 332 333 330 331 333 330
342 345 347 347 348 350 350 350 351 352 354 354 354 354 353 345 349 347 345 344 347 352 352 349 346 346 344 342 329 320 323 324 327 331 331 328 330 326 322 330 331 331 329
345 348 347 349 349 351 351 351 351 351 352 354 354 354 353 348 342 343 343 343 341 347 350 351 350 348 345 343 339 326 324 323 328 332 333 329 326 325 319 329 327 327 329
338 344 347 348 350 350 351 352 352 351 351 353 353 354 353 347 337 335 336 342 340 348 350 350 350 349 347 345 342 339 325 327 326 330 328 330 329 320 323 329 328 328 326
338 338 348 348 350 350 350 352 353 353 351 352 353 352 350 350 342 340 339 336 343 346 352 354 353 352 349 347 345 343 334 327 327 328 330 332 333 329 329 329 328 328 327
336 340 345 348 347 348 349 351 353 353 351 351 351 352 353 353 349 346 343 344 344 346 349 353 355 353 352 351 349 346 339 330 328 329 330 333 334 333 331 331 330 331 330
340 343 344 347 347 347 347 349 349 351 351 349 351 350 352 353 352 352 353 353 352 354 356 355 355 355 355 353 351 348 341 334 328 331 333 335 335 335 333 334 333 330 329
337 337 337 342 349 347 347 346 348 351 351 350 349 349 351 350 354 355 356 357 357 357 358 356 355 356 357 357 353 348 338 333 335 336 336 334 331 336 332 331 327 329 329
336 334 341 339 346 349 349 348 349 350 350 350 348 349 348 350 353 356 357 358 359 359 358 357 356 356 355 353 350 345 336 334 336 333 334 334 333 332 333 329 328 328 326
332 331 335 337 338 345 350 351 349 350 349 350 348 348 349 350 353 356 357 359 360 358 357 358 357 355 352 347 345 343 338 336 334 337 334 335 332 331 330 328 329 327 329
334 331 331 336 341 345 351 355 353 350 349 350 349 349 350 352 354 357 359 360 359 356 359 356 352 348 346 344 342 339 339 340 339 338 334 332 330 331 327 328 329 329 327
340 333 332 333 334 345 350 356 355 354 352 354 353 355 358 361 363 363 360 359 358 358 353 349 346 344 342 342 340 341 342 340 338 337 335 331 331 332 330 330 327 327 326
339 345 339 338 341 350 353 356 360 360 357 355 362 364 366 367 367 363 357 358 356 350 348 346 344 343 342 341 342 342 340 338 336 334 332 330 330 329 329 327 326 324 320
346 354 359 360 359 357 358 358 360 363 362 362 364 364 364 364 361 359 357 354 348 347 345 343 343 342 342 341 341 339 338 338 335 330 331 331 329 327 326 323 322 322 321
359 357 359 360 362 362 362 362 362 362 363 363 362 361 360 359 355 350 347 348 346 344 342 342 342 341 339 338 336 334 331 334 335 333 330 327 326 324 324 325 323 323 321
358 357 358 358 359 359 359 359 359 359 358 357 357 357 355 352 349 347 348 346 344 342 342 341 340 337 336 333 328 326 324 326 327 326 327 327 325 323 324 323 321 321 321

GFSMW_850_thetae_018.txt.gz
Theta_e
349 349 347 346 349 350 348 350 350 350 350 349 347 344 346 345 346 346 347 346 349 348 344 347 344 345 346 343 342 342 331 327 336 335 335 333 337 336 336 333 333 333 332
347 348 348 348 349 349 348 349 350 350 350 351 351 348 346 343 344 344 347 349 346 345 348 347 344 343 343 344 340 340 325 335 336 335 334 336 336 334 333 333 328 330 329
348 347 348 347 348 349 348 349 348 348 349 351 351 350 350 342 345 345 346 345 344 347 349 346 344 342 341 342 344 340 324 335 335 334 335 338 338 337 333 332 330 330 330
346 346 347 347 347 347 348 348 348 348 349 349 350 352 351 347 346 348 347 347 349 349 350 346 344 345 338 344 346 333 329 336 336 334 332 334 337 336 333 332 330 331 330
345 345 345 347 347 347 347 348 348 348 348 349 349 351 351 350 345 347 347 350 348 348 350 349 347 344 336 341 342 328 321 335 336 335 334 334 331 332 334 334 332 332 331
344 344 344 345 347 347 347 347 348 348 348 349 349 349 349 349 348 344 348 352 350 349 349 350 340 337 340 328 325 325 329 321 335 335 334 334 331 331 330 332 333 332 332
343 344 344 346 346 347 347 347 348 348 349 349 350 350 349 348 346 342 349 350 350 350 349 350 346 343 338 333 319 324 331 324 330 335 334 334 333 332 332 331 330 331 330
342 343 344 344 345 346 347 348 347 348 349 350 350 350 350 349 345 344 350 350 347 345 346 348 348 345 337 333 319 320 323 321 321 330 334 333 334 332 332 331 330 330 330
341 342 343 345 345 346 347 347 348 348 349 349 350 350 351 349 343 346 347 346 346 347 349 348 348 344 337 332 321 319 320 320 320 318 324 328 334 333 332 332 332 331 330
342 342 341 343 345 346 346 347 347 348 349 349 349 350 351 350 344 346 345 344 349 352 349 350 348 343 346 345 342 323 320 322 323 323 320 321 333 334 332 332 331 330 329
343 342 342 342 342 345 347 347 347 349 350 350 350 350 351 351 346 344 345 344 351 352 351 351 348 344 345 345 345 342 321 320 324 323 324 322 319 332 332 332 331 330 330
343 343 344 342 344 345 348 347 346 348 349 349 350 351 351 352 349 345 343 344 348 350 352 350 348 347 346 346 345 343 335 320 322 323 323 327 326 326 329 332 332 332 332
341 341 341 343 344 345 347 348 347 347 348 350 351 351 351 352 351 344 344 341 344 348 351 352 351 350 347 346 346 344 342 328 321 323 324 327 329 326 327 327 325 329 331
341 340 342 343 344 345 347 347 347 347 347 349 351 351 351 350 350 348 341 340 340 344 348 350 351 351 350 349 347 346 344 341 329 322 324 326 331 330 327 327 326 327 330
338 338 341 344 345 346 348 348 347 348 347 349 350 351 350 350 350 349 344 339 341 343 345 347 349 351 350 350 349 348 346 344 342 329 324 323 325 329 329 330 322 328 331
339 339 340 342 346 346 347 348 349 348 349 350 349 350 350 350 350 349 348 342 339 344 344 346 345 348 349 350 351 351 349 346 343 337 329 325 327 327 330 331 331 330 332
336 338 341 345 346 347 347 348 349 349 349 350 350 350 350 350 348 348 349 348 342 342 345 348 350 352 355 353 352 352 351 348 346 343 335 329 329 331 332 335 334 332 329
335 338 339 343 345 347 348 346 348 349 350 350 351 350 349 349 348 347 348 350 348 346 347 350 350 349 351 351 353 353 352 351 348 343 339 332 330 333 332 330 334 333 331
334 336 341 344 344 347 347 348 349 350 352 352 351 350 350 350 350 348 346 349 351 351 351 351 354 353 334 353 355 357 355 351 347 340 333 334 336 336 335 331 333 332 327
328 331 335 336 344 346 347 348 349 350 350 349 348 349 349 350 350 349 349 350 353 352 353 356 357 354 353 353 355 356 349 345 341 336 335 337 335 331 333 330 331 331 327
329 329 331 335 339 344 346 343 346 348 346 346 349 352 351 349 349 351 352 352 353 355 358 359 359 356 355 355 351 345 344 341 338 336 336 336 336 334 335 330 329 329 328
333 331 329 335 335 335 344 346 346 344 345 349 351 353 352 351 351 353 354 354 355 357 358 355 351 356 353 346 344 343 339 339 339 338 338 337 335 333 331 330 329 328 326
339 336 335 331 332 332 334 337 340 346 349 350 352 353 353 352 352 354 355 356 357 358 355 351 352 351 344 343 341 341 340 340 341 339 335 334 331 329 328 327 327 327 326
359 357 350 335 334 332 341 336 339 350 350 350 351 351 352 353 355 356 356 356 357 356 355 353 347 343 343 342 341 341 341 340 339 338 334 330 330 329 329 328 325 322 321
358 360 362 362 356 340 345 353 353 351 353 353 354 356 359 359 361 362 361 356 355 352 350 343 343 342 341 341 341 340 337 336 337 337 334 331 331 326 324 323 323 323 322
345 347 342 355 356 358 360 357 358 355 354 355 356 357 361 363 362 357 352 350 347 343 342 341 339 341 339 337 336 334 329 328 331 333 333 328 325 323 323 323 325 323 322

GFSMW_850_thetae_021.txt.gz
Theta_e
349 348 347 344 345 344 345 345 348 349 346 345 347 346 347 350 348 347 345 345 346 348 348 347 346 345 342 343 340 339 342 330 331 336 334 334 336 338 336 335 333 330 331
349 349 348 346 346 347 346 346 348 349 347 347 346 345 344 347 347 347 345 345 346 347 348 345 347 344 342 343 342 341 339 328 336 333 334 335 335 336 336 333 330 329 329
349 350 350 349 348 348 348 348 348 348 349 348 348 347 346 345 346 346 345 345 346 348 345 347 348 343 342 341 343 341 337 332 335 335 333 336 336 333 332 331 329 329 329
348 349 350 349 349 347 346 348 349 348 350 349 349 349 348 347 346 344 345 345 345 346 346 348 348 344 343 340 340 344 332 332 335 334 333 335 336 336 333 330 329 330 329
347 347 348 349 348 347 347 348 348 348 349 349 349 349 349 349 348 341 343 345 346 344 346 349 349 346 345 341 339 342 331 331 335 335 332 331 336 336 336 333 330 330 330
346 345 345 347 347 347 346 346 347 348 348 349 349 349 349 349 348 346 344 346 347 347 348 349 348 348 345 341 336 331 330 324 333 335 334 332 330 331 333 334 333 331 332
344 345 346 346 347 347 346 346 346 347 348 348 348 348 349 348 348 347 346 344 347 347 348 349 349 348 340 338 331 322 323 327 323 333 334 334 334 332 331 331 332 330 330
342 343 344 345 346 346 347 347 346 347 347 348 348 348 348 348 349 348 347 344 345 348 348 347 348 348 346 344 337 323 321 324 324 327 332 333 333 333 332 331 330 330 330
341 342 343 343 344 346 346 346 347 347 347 347 347 348 348 348 349 348 346 346 343 347 346 346 346 347 347 344 339 326 319 321 321 319 323 331 333 334 333 332 332 331 331
341 342 342 343 343 344 344 345 345 346 346 346 347 347 347 348 349 349 345 343 343 348 347 345 346 348 348 344 336 332 320 320 322 321 319 319 325 330 334 333 331 331 330
340 341 342 342 342 343 344 344 345 346 346 346 347 347 348 348 349 350 346 340 344 347 346 345 349 348 348 343 344 344 340 324 320 323 322 321 320 322 333 334 332 331 330
340 340 341 342 342 343 344 344 344 344 345 346 346 347 347 348 349 350 350 338 344 345 344 348 350 349 349 344 344 344 345 343 332 320 324 322 323 322 320 328 332 332 331
341 340 340 341 341 341 343 344 345 344 344 345 347 347 348 348 349 350 350 342 340 344 342 348 350 350 350 348 346 345 345 345 343 330 321 323 323 325 326 326 327 332 330
342 341 341 341 341 342 342 344 344 344 344 345 347 347 348 348 348 349 350 346 340 341 343 345 348 350 350 349 348 348 346 346 345 342 331 322 323 325 327 330 328 329 329
342 342 342 342 342 342 342 344 345 346 345 345 346 346 347 347 348 349 350 349 342 341 340 343 346 348 350 352 351 350 349 348 347 344 340 331 324 324 325 328 332 331 328
340 343 343 344 342 341 341 342 344 346 346 347 346 346 347 347 348 349 350 350 350 343 342 342 341 344 345 347 349 349 350 350 349 347 344 341 337 327 325 327 330 332 333
337 339 341 342 342 340 340 341 341 344 346 347 347 347 347 347 348 350 350 350 350 349 345 342 343 342 340 340 340 346 349 351 351 349 346 344 343 334 327 328 331 334 333
331 337 337 339 339 340 339 339 342 344 346 347 348 350 348 346 348 350 350 350 350 348 348 343 340 341 338 336 342 346 353 354 352 349 349 347 344 339 333 330 333 332 330
328 329 335 337 338 338 338 340 345 345 347 348 348 347 348 348 349 349 349 351 352 350 347 347 341 338 339 343 347 352 356 354 353 353 346 346 339 337 335 334 336 333 331
329 330 334 335 336 337 338 342 345 347 346 346 347 347 348 349 349 348 349 351 353 351 350 348 345 344 349 352 353 351 353 356 355 348 344 341 335 335 336 337 333 334 330
329 329 333 331 336 341 342 344 346 347 346 346 346 350 350 350 350 350 351 350 352 353 352 351 348 351 354 350 335 345 353 355 346 343 340 336 335 337 337 335 334 333 328
338 333 329 331 339 341 340 343 346 343 345 347 348 349 350 351 353 353 355 354 356 354 352 355 354 356 352 346 351 343 352 346 343 339 337 336 336 336 335 334 333 331 329
339 340 339 338 335 332 343 344 340 341 346 349 349 350 351 352 356 354 355 356 355 355 356 355 357 355 351 352 352 349 343 341 338 337 337 338 336 335 333 329 328 330 330
341 340 337 335 337 342 339 338 343 346 346 346 345 347 351 354 352 354 356 356 355 356 355 355 356 354 343 348 347 342 339 339 339 339 339 337 333 329 328 328 328 327 326
350 350 349 349 350 355 355 354 347 346 347 347 347 350 352 354 355 357 359 359 355 352 351 352 351 349 348 345 339 337 339 340 340 338 338 335 330 329 330 329 327 323 322
336 335 335 337 337 347 353 352 355 355 352 348 348 351 352 354 355 357 359 356 353 350 349 348 345 344 344 338 338 340 340 338 336 337 337 335 331 329 325 323 323 323 324

GFSMW_850_thetae_024.txt.gz
Theta_e
346 346 346 346 344 343 343 343 345 347 345 344 338 345 345 348 349 347 346 346 346 346 347 347 346 345 345 342 343 337 340 340 329 336 335 336 335 337 336 335 332 330 330
347 347 347 346 345 343 343 344 343 346 347 346 342 342 343 346 348 348 347 346 344 345 347 348 347 347 346 342 343 342 341 336 333 334 334 334 335 337 336 334 330 329 326
348 347 348 348 346 344 343 344 345 345 347 347 345 344 345 345 344 347 348 347 345 345 346 346 346 347 347 343 341 343 341 329 334 334 333 334 335 335 336 333 331 329 329
349 348 348 348 347 346 344 345 345 346 346 348 347 346 345 345 344 344 347 347 345 345 346 346 347 348 347 343 340 343 343 327 332 333 333 334 335 333 332 332 331 330 329
349 349 348 345 348 348 347 345 346 347 347 347 348 347 347 346 346 345 344 345 346 343 343 345 346 348 348 345 342 339 343 330 332 335 332 332 334 336 335 333 332 329 330
348 348 347 346 347 349 349 348 346 346 347 348 348 348 348 347 347 347 347 343 344 344 343 344 345 348 349 347 341 339 340 329 329 334 335 332 331 333 335 335 333 331 330
347 347 347 347 347 347 348 348 348 347 346 348 348 348 348 348 347 347 346 341 342 344 344 345 348 348 348 345 338 336 331 326 324 325 333 335 333 331 331 329 331 332 332
347 347 347 346 345 344 346 347 347 347 346 347 347 347 348 348 348 348 348 346 342 344 344 344 346 347 348 347 339 335 331 324 325 324 329 333 333 333 333 331 331 331 330
343 345 346 346 345 344 343 345 347 345 346 345 346 347 347 348 348 348 348 348 345 341 342 347 347 346 347 348 346 341 337 322 324 322 320 327 332 333 333 333 332 331 331
339 342 343 345 345 344 343 343 344 344 344 345 345 346 346 347 347 348 348 348 346 345 341 344 347 346 346 348 347 343 336 330 322 323 321 319 322 326 331 333 333 331 331
338 339 341 342 343 343 344 343 344 344 345 345 345 346 346 347 347 347 347 348 347 344 343 340 346 344 344 347 348 345 338 337 322 322 323 322 320 318 321 326 332 333 332
337 339 340 340 341 342 343 343 343 343 344 344 345 345 346 346 347 347 347 348 349 346 343 341 346 345 344 348 348 344 343 343 342 335 323 322 323 321 321 320 326 330 332
336 338 339 340 340 341 342 342 342 343 343 344 344 345 345 346 346 346 347 347 348 349 342 342 344 343 344 348 348 346 343 344 344 344 342 330 323 324 324 324 323 327 328
330 334 338 339 340 341 341 342 342 343 343 344 344 344 344 344 345 345 346 347 348 349 346 341 343 343 345 348 347 348 347 346 346 345 345 343 330 324 326 328 328 328 329
334 336 339 340 339 340 341 341 342 343 343 343 344 344 344 344 344 345 346 347 347 348 348 341 342 343 342 346 346 347 348 348 348 347 346 345 343 335 327 326 330 332 333
330 328 335 340 340 340 340 341 341 342 342 342 343 344 345 345 344 345 346 347 347 348 349 347 341 342 341 342 346 347 349 350 350 350 349 347 345 342 341 332 328 333 335
327 326 327 335 341 341 341 341 342 342 343 342 343 344 345 345 344 345 346 346 347 347 348 349 345 341 341 343 344 346 347 348 349 349 349 349 347 345 343 341 331 330 332
326 326 326 329 337 341 342 341 342 342 341 342 344 344 345 345 346 347 346 346 347 347 347 347 347 344 342 343 342 342 344 347 347 348 351 350 348 347 345 343 336 332 332
327 328 328 329 331 338 341 342 342 341 342 342 344 346 346 346 347 347 346 346 347 347 347 347 348 347 343 340 340 344 344 347 346 350 353 352 350 347 345 343 338 334 333
326 326 326 327 331 336 338 341 342 342 341 341 341 342 345 346 347 347 347 347 348 348 348 348 347 347 346 343 337 342 344 345 349 351 355 352 347 344 340 338 335 335 335
326 327 327 328 330 335 336 337 338 339 339 340 343 345 346 346 346 348 350 351 351 350 349 349 349 349 349 344 338 342 345 348 348 351 354 349 344 341 336 335 335 336 335
338 333 330 329 331 336 339 339 338 337 340 343 344 345 347 348 349 350 352 349 352 352 351 352 351 350 348 346 341 348 352 354 353 353 349 343 339 335 335 334 334 334 334
347 346 343 341 333 329 339 343 345 345 346 346 347 348 351 353 353 353 351 352 351 355 355 354 360 352 350 346 349 354 349 351 354 348 342 337 335 335 336 336 334 332 331
343 343 345 346 347 349 347 340 339 343 344 346 348 349 350 352 355 356 357 356 352 354 345 347 357 356 350 350 356 356 352 349 345 341 337 336 337 337 334 331 330 328 328
335 337 339 337 337 337 339 341 344 346 348 347 345 345 349 352 354 357 357 357 356 356 354 357 356 356 351 353 350 347 347 345 340 337 336 336 338 332 328 328 328 328 327
337 338 337 337 336 335 335 335 335 335 337 340 345 350 347 350 353 355 356 358 358 358 358 355 354 349 342 342 340 337 342 340 338 338 337 335 335 330 329 329 329 328 323

GFSMW_850_thetae_027.txt.gz
Theta_e
346 346 346 347 345 343 344 343 343 339 339 337 334 332 338 335 341 345 346 347 346 346 346 347 346 346 345 345 343 343 339 340 337 333 335 335 335 336 335 333 336 331 334
348 347 347 347 347 345 342 345 342 339 339 340 337 334 336 337 344 344 346 346 346 345 345 346 347 347 346 346 344 344 342 340 327 336 336 336 335 336 336 334 329 326 329
348 348 347 347 348 345 342 342 341 339 342 345 344 342 337 341 344 347 348 346 346 345 344 346 347 347 347 347 344 343 344 341 332 334 335 335 335 337 336 335 330 328 328
349 349 348 347 348 344 342 341 342 342 344 346 346 345 340 340 341 344 345 347 347 347 345 345 346 348 347 348 345 343 344 342 333 334 334 333 335 336 336 334 332 329 329
349 349 349 345 346 347 344 342 342 343 343 344 346 347 345 343 343 343 342 343 345 346 345 346 346 347 346 348 347 344 340 343 329 334 333 332 333 336 336 336 335 332 330
349 350 350 348 347 347 347 345 344 344 344 345 345 346 347 346 345 343 344 344 344 345 346 345 345 346 346 349 348 345 338 339 328 331 334 334 334 334 336 337 336 335 334
349 350 350 350 348 347 346 347 347 345 345 345 345 346 347 348 347 346 345 346 346 344 342 345 344 344 345 348 348 342 336 333 328 325 332 334 333 332 329 331 333 334 333
348 349 350 349 347 346 345 345 346 347 347 345 345 346 347 347 347 347 347 346 346 343 340 342 343 344 346 347 348 340 332 326 325 325 323 327 333 333 333 332 333 334 333
348 348 348 347 346 346 346 346 344 344 345 346 346 346 346 347 347 348 347 347 347 346 341 342 344 342 344 347 348 346 337 331 325 324 325 323 329 331 332 332 332 333 332
344 346 348 348 347 346 346 345 343 341 341 342 345 346 345 346 347 347 347 347 348 348 346 342 343 343 344 347 347 348 344 335 328 322 324 323 321 323 327 331 333 332 333
338 341 344 346 345 346 347 346 345 343 341 341 342 344 345 345 346 347 347 346 347 348 348 346 343 342 346 346 345 347 347 340 329 323 321 323 323 320 321 320 324 327 332
339 336 340 344 346 345 345 345 345 345 343 341 342 343 343 344 345 345 346 346 346 347 348 347 345 342 343 344 344 346 347 343 331 331 325 321 322 323 322 320 320 320 328
337 337 340 340 340 342 343 343 343 343 343 343 342 343 343 344 344 344 345 346 346 346 347 348 346 343 340 344 342 345 347 345 340 341 342 342 336 325 323 324 323 323 322
330 332 334 336 338 339 341 342 341 342 343 343 343 343 343 343 344 344 345 345 346 346 347 348 348 340 340 342 341 342 347 346 342 343 343 344 344 342 332 324 326 327 327
328 328 329 332 335 338 339 340 341 341 342 343 343 342 343 343 344 344 344 345 346 346 346 347 348 345 339 341 341 341 347 346 346 345 345 346 345 345 343 331 327 328 330
326 327 330 332 334 335 338 339 340 340 341 341 341 342 343 343 343 343 343 344 345 346 346 347 348 348 339 338 340 341 345 347 347 347 347 347 347 346 345 344 340 328 328
326 326 327 328 327 329 331 338 340 340 341 341 341 342 343 343 343 344 344 343 344 345 345 346 347 348 346 336 338 339 340 345 346 347 349 349 349 349 347 346 344 337 331
326 326 326 326 326 326 331 337 340 340 340 341 341 342 343 342 343 345 345 344 344 344 345 346 346 347 346 340 337 338 341 341 344 346 347 349 350 349 349 347 346 341 338
326 326 326 326 326 326 327 335 340 340 340 340 341 342 342 343 344 345 345 345 345 344 344 346 346 345 344 342 342 340 340 342 342 344 346 348 348 349 348 347 346 343 341
325 326 326 326 328 329 331 336 339 340 341 341 341 342 342 343 343 343 345 346 347 345 345 345 346 346 344 343 343 344 342 344 345 345 344 347 349 352 352 348 346 345 341
326 326 326 325 326 326 328 332 337 339 339 341 342 343 343 344 346 348 350 350 350 352 346 346 345 346 346 346 345 346 348 344 343 345 344 346 349 354 350 347 345 341 338
328 326 325 326 327 329 332 333 334 335 337 339 340 341 342 344 346 348 347 340 351 354 354 354 350 346 347 347 347 347 347 349 346 341 344 347 353 353 349 344 338 335 336
340 334 329 327 328 330 335 338 339 340 340 341 342 343 344 345 347 349 350 351 353 353 352 356 355 354 352 348 349 349 350 351 349 348 348 351 352 350 344 337 335 336 335
349 347 346 344 343 339 335 334 336 337 338 339 340 342 345 347 349 352 355 353 352 340 334 354 356 355 352 352 351 352 351 351 348 352 351 351 347 341 336 335 336 335 334
338 338 338 338 338 337 337 337 337 338 340 343 346 345 344 345 348 349 350 352 350 344 341 351 351 356 352 352 354 355 353 352 350 350 349 344 337 335 336 336 335 333 330
334 334 334 333 333 332 332 332 332 332 332 332 332 334 341 350 353 351 349 352 353 351 352 350 355 353 346 352 350 354 345 335 331 338 341 337 336 337 337 334 332 329 327

GFSMW_850_thetae_030.txt.gz
Theta_e
347 346 347 348 349 350 351 351 351 350 348 349 348 346 344 343 342 344 343 344 342 344 345 351 348 351 350 347 347 347 345 342 340 335 337 337 337 337 337 336 336 337 338
349 347 347 347 348 349 350 351 350 346 341 347 348 346 344 343 343 345 348 346 345 346 345 345 349 350 351 345 346 341 345 342 335 337 337 336 336 336 336 336 335 335 334
350 348 347 347 347 348 350 351 348 347 342 348 350 348 345 345 346 346 350 350 345 345 345 343 346 350 348 350 346 345 345 341 337 336 339 336 336 336 336 338 336 337 334
350 349 347 347 347 348 350 351 351 350 348 340 348 346 345 344 345 346 349 351 347 346 346 344 345 345 351 352 348 349 346 343 338 338 337 337 339 337 338 336 338 337 336
350 350 349 347 347 349 350 351 351 346 351 342 346 351 348 347 346 347 349 351 352 347 351 346 345 346 346 350 349 347 343 346 337 338 338 337 337 337 337 338 337 338 336
349 350 351 349 348 349 350 351 351 341 343 341 341 349 351 349 348 349 350 351 350 351 347 350 345 346 347 347 351 348 344 341 336 337 338 336 336 336 337 337 337 337 337
349 350 351 351 350 349 351 351 352 346 342 342 343 345 346 348 351 352 352 351 350 349 350 345 344 348 343 345 347 349 345 338 335 323 338 339 338 336 334 334 335 334 335
349 349 351 351 352 351 349 351 351 343 342 343 343 344 345 349 353 353 353 353 351 350 351 351 343 343 343 344 346 349 346 338 326 323 326 338 339 339 337 336 335 336 334
348 350 350 351 352 353 352 350 346 343 344 344 344 345 345 346 352 352 352 353 353 352 353 352 341 342 342 343 345 349 342 336 324 323 323 325 336 338 337 336 335 335 335
347 349 350 350 352 353 354 353 344 339 340 344 345 345 345 346 346 347 348 349 353 350 353 352 347 346 343 341 344 347 346 342 334 332 326 323 334 337 337 336 335 335 334
345 347 347 349 350 352 354 355 355 349 342 340 340 343 344 345 345 345 346 347 347 348 347 348 345 348 349 341 342 346 351 344 341 335 332 323 325 335 335 336 336 336 335
339 341 344 346 348 350 352 353 354 355 349 343 339 339 340 341 343 344 345 345 347 347 347 348 348 345 351 347 343 344 349 345 345 341 335 326 324 324 329 336 334 335 335
338 340 341 342 346 348 350 351 353 353 354 353 347 342 339 340 341 341 342 344 345 346 346 347 348 347 346 347 341 343 344 344 344 345 338 331 328 323 332 326 334 335 335
336 337 338 340 343 345 348 350 350 352 352 354 355 349 342 340 340 341 341 342 343 345 346 346 347 348 347 345 342 340 342 342 344 345 345 340 341 341 340 335 326 328 333
333 336 341 342 344 345 347 350 350 350 351 352 355 353 344 343 342 341 342 342 343 344 345 346 346 347 348 351 340 337 339 341 341 344 345 343 343 343 344 343 343 335 332
329 330 335 340 343 345 347 348 346 348 350 351 350 352 349 345 343 343 342 343 343 344 344 345 346 346 347 350 346 336 337 338 339 341 346 346 345 345 345 346 344 343 338
330 332 333 336 341 343 340 344 339 349 350 347 350 350 350 345 343 345 346 344 344 345 344 344 345 346 346 347 345 338 337 338 338 338 347 348 349 346 347 347 347 343 343
329 331 331 332 337 340 338 345 347 345 346 346 345 346 348 347 349 349 346 344 345 346 346 344 345 346 346 346 346 346 341 339 341 342 343 346 347 349 347 349 349 348 346
330 331 331 332 333 335 338 340 347 349 350 344 342 341 343 352 356 349 343 346 350 351 355 356 353 347 346 346 346 347 348 344 341 342 343 346 346 350 348 349 350 348 348
330 330 330 331 332 330 332 341 345 348 346 341 341 343 341 344 346 344 349 351 356 356 357 356 355 354 349 349 348 347 347 349 348 347 347 342 342 345 346 348 350 349 347
333 333 333 329 330 328 332 333 343 343 340 352 352 346 342 341 343 343 344 346 349 356 355 355 351 352 354 349 350 348 347 348 350 349 352 351 345 344 344 348 350 350 348
342 345 338 330 332 331 326 327 328 334 346 348 349 349 348 347 355 348 347 348 349 349 349 349 351 345 346 347 346 346 346 347 350 351 348 351 345 340 343 348 350 349 346
345 348 336 338 344 332 330 331 330 333 344 347 346 347 347 346 347 351 354 358 357 356 356 355 358 355 347 345 345 346 348 349 350 353 352 350 345 342 347 350 351 348 345
353 352 348 347 349 339 343 342 338 339 339 340 341 344 356 357 359 358 360 358 358 358 356 355 356 354 354 349 347 349 351 352 351 352 353 351 348 348 351 351 347 343 339
348 349 351 351 350 348 348 348 349 354 350 354 357 358 358 358 360 359 359 359 358 359 359 358 358 358 357 354 349 350 349 349 351 351 351 349 350 349 347 345 342 338 337
345 345 345 345 345 344 338 336 337 338 345 353 353 353 353 355 357 358 359 358 358 359 356 357 356 353 352 354 354 352 353 352 352 350 348 348 346 339 341 342 337 336 336

GFSMW_850_thetae_033.txt.gz
Theta_e
347 346 347 347 347 347 349 350 350 350 351 351 351 349 348 347 345 344 344 348 351 352 353 354 353 349 349 348 348 347 344 343 338 337 337 338 337 338 337 337 338 338 340
349 346 347 346 346 349 350 351 351 351 351 352 351 349 348 345 344 344 345 348 352 353 354 353 352 350 351 347 343 344 346 341 337 341 337 337 336 336 338 336 335 337 335
350 348 347 346 346 348 351 352 352 352 352 352 351 350 348 345 345 345 346 350 354 354 354 355 349 354 350 350 350 346 345 343 337 339 343 338 338 336 336 336 338 336 334
350 350 347 347 347 348 351 352 353 352 352 350 352 350 348 346 345 346 346 350 353 354 355 352 353 352 350 350 351 350 349 341 338 337 341 343 343 342 337 338 338 337 337
350 350 350 347 346 347 349 351 352 353 352 352 351 352 349 346 346 346 347 348 353 354 353 356 353 352 350 350 347 352 343 346 342 340 338 338 336 339 340 339 338 338 337
349 350 351 349 347 347 349 351 353 352 351 351 346 351 350 348 347 347 348 350 351 354 354 355 354 351 353 354 353 352 350 346 344 340 340 340 340 340 339 339 340 340 338
347 350 351 350 349 347 348 350 352 352 351 351 353 348 350 349 351 348 349 349 350 349 352 350 352 352 352 355 352 352 352 338 344 331 341 340 340 339 337 337 338 337 337
347 350 351 352 350 349 349 350 352 353 355 346 352 342 343 355 353 352 351 351 350 349 348 350 352 352 355 349 353 354 353 350 332 331 331 342 341 340 339 338 338 338 337
346 348 350 352 352 351 350 350 352 351 344 344 340 340 340 344 355 355 353 356 353 350 349 352 354 355 354 354 352 354 353 351 340 338 324 328 339 340 339 338 338 337 337
344 347 349 351 353 353 352 351 351 347 334 336 337 340 343 344 347 354 355 356 355 353 353 351 354 354 353 352 352 353 354 350 347 343 340 326 338 337 339 338 337 336 336
341 346 349 350 352 353 354 354 354 355 351 338 338 341 343 344 345 345 349 351 353 355 351 355 353 349 347 350 351 350 353 352 346 343 342 333 330 338 338 338 338 338 337
339 345 349 349 350 352 354 355 355 356 354 346 340 340 342 343 345 345 346 347 348 348 352 350 353 350 346 350 352 349 350 354 354 349 343 337 329 324 334 339 338 338 337
340 345 347 348 349 350 352 354 356 356 357 357 355 351 344 343 343 344 343 345 346 346 347 351 351 349 348 347 347 348 339 349 353 348 347 340 337 329 328 329 337 338 337
339 341 342 343 347 348 351 353 354 355 356 357 358 357 354 342 341 342 341 341 342 343 344 348 349 349 347 348 345 339 341 339 347 350 346 346 345 334 326 328 331 334 337
336 337 340 342 343 346 349 352 352 354 355 356 357 358 357 356 353 348 341 337 340 340 341 343 346 347 348 353 349 345 342 337 339 349 348 348 350 346 333 338 339 340 335
332 333 333 339 343 343 348 350 353 352 354 355 356 358 359 359 359 356 348 342 339 339 338 340 343 345 351 354 354 352 348 345 342 346 351 344 350 350 344 339 343 344 344
331 331 332 334 340 343 346 349 352 354 352 353 356 356 358 360 360 359 357 348 342 343 341 341 343 344 345 346 349 352 353 350 346 345 348 349 351 350 350 343 342 345 345
331 331 331 333 335 337 340 348 349 353 353 353 354 356 357 359 360 359 359 358 355 352 349 346 346 344 343 344 345 347 350 352 350 346 347 351 347 350 349 346 344 345 346
330 331 331 332 333 335 337 341 348 349 350 351 353 353 358 359 360 352 351 355 358 357 352 352 351 348 345 345 344 346 347 350 350 349 352 354 351 348 347 349 347 345 347
331 331 332 333 333 334 335 336 339 346 350 342 350 354 357 359 359 352 351 355 357 351 357 356 353 350 346 344 343 344 347 349 350 349 351 353 352 351 345 348 350 348 346
342 340 338 337 336 336 336 338 339 341 343 354 354 356 355 358 357 355 350 351 356 360 358 357 355 352 346 344 343 343 344 346 348 351 353 351 350 349 349 346 347 346 348
343 341 341 345 347 339 340 343 343 334 347 350 354 356 358 359 360 356 356 360 361 361 358 359 356 355 350 346 347 345 343 344 347 352 353 355 355 353 352 352 352 350 348
343 337 339 348 342 343 344 345 346 350 351 351 353 356 358 358 357 360 360 362 361 362 361 361 362 359 358 361 358 353 352 351 347 347 354 355 354 354 353 352 353 352 349
348 351 351 349 345 353 355 353 352 355 354 355 355 357 360 360 361 360 363 362 362 362 360 361 361 360 362 360 361 361 361 358 357 356 352 354 355 353 353 353 351 351 349
354 352 354 356 357 359 361 361 361 359 359 359 360 360 360 360 362 362 360 362 361 361 361 361 360 360 359 358 359 361 362 360 359 358 356 353 354 354 353 351 346 347 347
350 351 352 352 352 351 352 352 352 362 362 361 361 359 358 360 361 361 363 360 360 361 360 358 360 361 361 359 359 360 359 360 358 354 356 354 353 354 353 351 346 345 341

GFSMW_850_thetae_036.txt.gz
Theta_e
348 349 348 348 348 348 348 348 347 347 348 348 348 351 348 348 347 346 344 344 347 344 343 349 352 348 348 350 344 341 342 343 339 335 339 338 339 337 337 339 339 339 336
347 348 348 348 348 348 349 348 347 348 350 348 349 348 350 348 348 345 345 344 346 349 346 346 353 352 351 346 341 345 347 342 337 340 338 338 337 336 337 336 336 337 335
348 348 348 348 347 349 348 348 348 349 349 349 351 350 349 348 348 345 344 345 346 348 349 351 349 352 351 351 347 335 344 341 337 342 344 341 337 337 337 335 335 335 335
349 348 349 348 347 348 348 348 349 349 350 349 351 351 349 349 347 345 345 346 347 346 352 352 348 351 346 351 348 340 345 346 336 335 342 343 343 337 337 338 338 336 336
350 350 348 348 348 347 351 349 349 350 352 349 354 351 351 349 345 346 346 346 347 351 349 354 348 344 348 354 350 348 343 340 343 337 337 338 338 340 339 338 339 338 338
350 351 350 348 347 348 352 353 351 352 351 351 348 354 351 349 347 346 347 346 349 353 352 354 353 348 344 353 352 347 342 344 341 341 341 339 337 339 338 340 338 338 338
350 352 352 349 348 349 351 353 354 352 351 349 346 347 354 351 349 347 346 348 350 351 352 349 354 352 347 347 352 346 348 335 341 340 341 341 340 340 339 338 339 339 339
348 352 353 351 349 348 350 352 352 351 349 347 346 342 349 352 345 347 348 347 350 352 351 351 349 346 344 348 352 345 352 347 333 328 341 340 341 340 340 338 338 338 338
346 350 352 352 350 349 349 351 352 351 350 346 347 343 343 344 340 347 348 351 349 351 350 349 350 350 349 345 348 349 346 351 345 327 324 336 341 341 341 339 339 338 338
344 349 352 353 352 350 349 350 352 351 347 346 340 337 334 336 338 342 349 350 354 349 352 350 349 350 351 350 350 347 346 352 349 341 327 324 330 339 340 339 338 337 336
343 347 352 352 354 352 351 351 352 353 352 347 337 335 336 334 333 338 345 350 353 357 349 356 352 350 350 347 350 349 348 348 350 345 334 329 327 328 338 339 338 338 337
344 346 350 352 354 355 353 353 353 354 354 351 349 342 338 334 334 337 340 346 351 351 357 351 357 353 352 345 346 345 343 352 351 349 342 334 330 329 330 338 338 338 338
339 345 349 351 353 354 355 355 354 355 358 359 355 351 341 338 337 338 340 343 345 348 349 353 352 354 352 350 344 341 339 340 352 351 349 341 338 332 327 327 335 338 338
337 344 348 350 352 354 355 355 356 356 356 359 360 357 353 346 340 340 340 340 342 343 345 347 350 353 352 350 349 347 344 342 344 355 352 345 341 337 334 330 325 330 337
342 344 346 351 350 351 353 355 356 357 357 357 359 359 357 355 352 352 347 345 342 340 341 343 347 352 354 350 349 349 349 347 340 340 353 351 342 340 336 337 332 325 329
338 339 340 341 346 351 352 352 355 356 357 357 357 359 358 358 359 357 356 354 351 347 346 345 343 345 347 345 344 345 350 351 349 345 341 345 345 344 340 338 338 333 334
333 334 333 334 337 341 352 355 354 355 357 356 357 358 359 358 359 359 359 359 355 353 350 347 342 339 340 341 342 343 346 349 351 349 347 346 345 348 347 348 345 345 340
332 332 332 333 334 336 343 350 354 355 354 356 357 358 359 359 359 359 359 359 359 356 353 353 347 342 336 337 340 342 344 346 347 348 347 347 347 349 347 346 349 345 344
332 332 332 332 333 339 341 343 345 350 354 354 354 355 358 359 360 360 359 361 361 360 357 354 353 345 342 340 339 341 345 349 348 349 350 350 349 348 349 351 349 348 342
345 343 341 338 332 335 335 345 344 348 347 344 344 352 356 356 359 360 362 362 361 360 361 358 355 353 347 345 345 349 353 350 349 353 353 352 351 350 349 353 353 352 349
344 344 342 341 340 337 337 337 344 347 345 343 347 347 348 351 357 360 364 365 364 365 364 363 362 357 349 347 349 350 356 352 350 350 354 353 351 350 354 354 352 350 347
346 345 343 341 343 346 336 336 338 336 339 344 349 351 351 354 357 362 363 366 365 365 363 363 362 356 352 354 356 357 359 359 362 359 357 357 356 355 355 356 356 353 353
347 347 343 338 337 349 346 338 340 342 343 344 348 351 354 357 359 362 364 365 364 363 363 363 363 363 362 364 364 363 363 362 362 362 360 359 358 357 357 356 356 356 357
349 356 355 353 351 346 349 351 343 345 353 352 355 354 356 358 360 358 364 363 364 363 364 366 366 364 365 366 365 364 365 365 364 362 360 360 358 357 357 357 357 357 356
352 352 355 358 358 360 362 362 361 359 353 350 358 360 360 362 363 363 361 366 363 364 365 365 363 362 364 365 362 363 364 362 361 363 362 361 360 357 356 356 357 357 356
351 351 352 355 356 355 356 359 361 361 362 360 361 361 362 362 362 365 362 360 363 364 362 362 362 362 362 361 361 361 361 360 361 362 362 361 361 359 357 356 355 354 355

GFSMW_850_thetae_039.txt.gz
Theta_e
350 351 350 350 349 343 347 344 345 345 345 346 338 338 337 346 347 347 346 344 344 346 343 345 349 348 350 347 344 341 337 338 338 337 339 338 339 339 338 340 339 338 336
350 349 348 350 349 349 347 345 345 346 345 346 345 339 341 345 343 346 346 344 344 344 344 342 351 349 351 344 343 341 341 342 336 338 337 335 336 337 338 339 339 335 335
349 349 347 348 348 348 347 346 346 346 345 344 347 344 346 349 348 347 344 346 344 343 343 345 347 352 351 350 345 341 344 339 337 342 341 339 337 337 337 335 336 335 337
349 349 348 348 348 348 348 347 347 347 345 345 347 347 343 350 348 348 345 343 345 344 343 344 348 347 351 346 348 336 344 341 336 340 343 344 339 336 336 336 335 336 336
348 349 348 348 348 348 348 347 347 348 347 347 347 347 346 347 348 349 346 344 343 346 343 343 350 346 348 345 349 341 344 343 337 335 340 340 339 337 338 338 338 336 337
348 348 349 348 348 348 349 348 347 348 348 347 348 347 347 347 348 347 347 345 345 346 349 348 351 347 345 347 352 347 341 337 340 340 340 335 339 339 339 338 339 338 338
349 348 349 348 348 348 348 349 348 347 347 347 346 347 345 347 346 345 344 347 346 346 349 352 350 349 345 346 350 352 345 337 340 340 341 340 338 340 340 339 338 339 338
348 349 349 348 348 348 348 348 348 347 348 348 347 345 347 350 349 345 346 345 347 346 347 349 350 346 344 344 342 346 344 341 334 340 341 340 340 340 339 339 337 338 338
350 350 349 348 348 348 347 348 349 349 348 349 348 345 344 347 344 343 346 346 347 349 349 351 350 350 349 345 343 343 343 345 336 327 335 336 339 339 339 335 337 338 338
350 352 350 349 348 347 347 348 349 349 349 349 348 342 337 339 341 340 343 347 347 348 352 351 351 350 349 349 347 342 341 342 343 333 329 327 336 339 340 340 336 335 337
349 352 351 350 350 348 347 347 349 350 350 349 347 345 339 337 339 339 337 343 347 347 349 353 353 350 349 349 349 345 343 343 343 343 341 333 325 338 338 340 339 337 335
346 352 352 351 351 349 348 348 348 348 348 347 347 349 346 340 338 338 335 336 340 347 348 349 350 355 352 350 350 344 340 344 342 338 343 340 333 328 328 335 336 337 335
345 352 353 353 352 351 350 349 348 348 347 348 348 347 348 347 340 337 335 333 334 338 348 354 353 352 354 354 352 351 338 335 336 338 343 342 345 336 329 329 334 336 336
346 351 353 354 353 352 351 350 350 349 349 349 349 348 346 347 343 335 333 333 332 334 339 348 355 353 351 352 354 352 349 343 337 337 333 335 341 337 335 331 329 334 337
345 350 352 353 354 353 352 352 351 351 351 351 351 350 349 346 342 339 334 332 333 336 338 340 344 349 352 352 351 350 350 349 347 344 338 336 334 334 334 337 334 332 331
343 347 351 352 354 354 354 354 353 353 353 353 353 353 354 353 352 343 339 335 333 336 339 340 341 343 345 347 348 348 348 347 347 345 345 343 338 336 337 337 337 338 337
333 334 338 347 353 354 355 354 354 354 355 354 354 354 355 355 355 354 353 345 339 339 339 342 342 342 343 345 347 347 347 346 344 344 342 341 343 343 341 339 341 343 341
333 332 332 334 335 340 353 353 354 355 355 356 356 356 356 356 356 356 356 356 354 350 348 347 345 343 342 342 344 347 349 349 347 345 344 343 342 342 343 344 345 348 348
339 336 336 335 333 335 335 349 354 354 355 355 357 356 357 357 357 357 357 357 358 357 356 355 353 351 347 345 343 348 351 353 351 350 349 347 345 345 346 349 349 348 348
343 337 332 336 338 340 340 339 348 354 354 354 353 356 357 357 357 358 358 358 358 358 358 358 357 355 353 353 354 355 355 354 353 356 356 354 352 353 352 353 352 352 349
346 343 339 338 340 342 340 343 345 347 345 349 353 355 354 355 356 358 359 360 359 360 360 359 359 359 357 359 361 361 360 358 358 358 356 357 357 358 359 358 358 355 353
349 350 346 343 339 342 346 343 344 350 345 344 346 343 343 345 351 355 358 360 362 362 362 362 362 362 362 362 363 364 364 363 363 361 361 360 359 358 357 357 357 358 359
352 354 354 354 343 338 342 344 345 339 340 347 349 349 349 349 350 350 354 360 363 365 365 365 365 364 364 363 363 364 364 364 363 361 360 359 359 360 359 357 357 357 358
345 352 351 355 359 352 346 346 345 343 340 346 343 341 346 353 355 356 358 360 363 364 366 366 364 363 363 362 361 361 361 363 364 365 365 364 363 362 360 360 358 357 358
331 346 351 352 354 358 360 353 348 344 342 342 348 352 354 353 354 356 359 361 363 363 362 361 361 360 361 362 364 364 365 366 366 366 365 364 363 363 363 362 361 359 358
333 333 348 348 350 354 353 356 359 361 360 359 354 354 356 357 357 359 361 362 363 365 363 362 363 366 364 364 364 363 362 361 360 359 359 359 359 361 362 362 359 357 357

GFSMW_850_thetae_042.txt.gz
Theta_e
347 347 346 346 348 348 347 345 343 344 343 343 342 342 346 344 345 347 348 345 344 344 342 345 343 345 344 346 346 344 341 340 338 339 339 339 338 339 338 339 339 336 337
349 348 347 347 346 347 347 346 344 345 345 344 342 339 343 342 344 346 347 346 345 343 344 342 347 346 346 348 343 342 340 339 336 338 338 338 337 337 339 339 339 334 335
350 349 349 346 345 347 347 347 345 344 344 344 342 338 336 339 341 344 346 345 345 344 343 342 346 347 347 349 345 340 341 336 336 338 337 336 337 338 339 338 338 335 335
350 350 350 350 347 346 346 346 345 344 344 344 343 342 335 334 336 340 345 346 345 346 344 342 342 345 350 349 348 340 342 336 336 337 339 339 337 337 339 337 336 336 336
350 349 349 350 350 349 346 343 346 345 344 345 345 340 341 335 337 342 345 345 344 346 344 344 343 347 346 349 348 336 344 341 337 339 342 343 338 337 336 335 335 336 336
349 349 349 348 350 350 349 347 346 345 345 345 346 344 341 340 339 345 347 348 344 343 343 346 342 347 345 345 345 346 339 344 336 337 337 340 339 337 337 337 337 338 337
348 349 348 347 348 349 348 349 347 346 346 346 347 346 341 342 338 343 346 348 346 344 344 346 348 345 345 342 343 348 344 341 338 338 339 338 337 337 339 337 339 339 338
347 348 348 348 347 347 348 348 347 347 347 347 347 346 342 342 341 341 343 346 346 345 345 346 349 349 346 344 342 349 349 346 338 340 340 338 337 339 340 339 338 338 339
348 347 348 348 348 347 347 347 347 347 347 347 347 346 345 343 340 339 342 342 344 346 346 346 346 348 348 347 343 342 342 345 340 336 339 338 339 339 340 339 338 337 338
348 347 347 348 348 348 347 347 347 347 347 347 347 346 346 344 341 340 342 342 342 345 345 347 348 349 349 348 346 343 341 345 343 340 332 335 336 338 338 336 337 337 337
348 348 347 348 348 348 348 347 348 347 347 346 346 346 347 347 345 344 340 342 341 344 346 347 348 350 350 350 349 348 346 341 341 342 340 328 327 329 331 334 337 337 335
349 348 347 348 348 348 348 347 347 347 347 345 345 346 347 348 347 343 341 339 341 342 346 346 349 352 353 351 349 349 348 346 340 338 338 339 337 328 326 332 334 336 338
349 348 348 348 348 348 348 347 347 347 347 346 347 347 347 348 347 343 339 338 338 341 344 350 347 349 350 352 351 350 349 349 339 335 336 330 334 339 335 327 330 333 336
347 349 349 348 348 348 348 348 348 348 347 348 347 347 347 346 344 342 338 335 334 337 338 341 346 346 348 349 350 352 351 349 347 339 334 334 333 333 337 340 336 329 330
347 350 350 349 349 349 348 349 349 348 348 348 348 347 345 344 344 340 339 337 335 334 335 336 339 345 348 350 350 350 348 348 346 346 345 342 337 332 331 333 336 342 339
347 350 351 350 350 350 349 349 349 349 349 349 349 349 348 346 345 343 338 336 336 334 334 334 333 337 343 349 350 349 350 349 349 348 346 346 346 345 342 338 336 335 338
348 351 351 351 350 350 350 350 350 350 350 350 350 350 350 349 349 348 348 345 339 335 333 332 332 334 335 337 340 344 347 349 348 348 348 348 346 344 343 341 341 342 338
344 349 351 352 352 352 351 351 350 350 350 350 351 351 351 352 352 353 353 351 351 347 339 335 333 333 335 337 339 341 344 347 348 347 347 348 346 344 344 344 343 342 341
340 340 343 348 352 353 353 353 352 352 352 351 351 352 352 352 353 354 355 355 355 355 354 354 351 347 344 343 345 348 350 351 352 352 351 348 347 347 348 350 350 349 347
346 340 340 340 339 338 344 350 352 354 353 353 352 353 353 353 353 353 354 354 355 355 356 356 356 356 356 356 356 357 358 357 357 356 354 354 353 355 356 356 356 355 349
352 347 339 340 342 343 340 340 347 352 352 353 353 353 353 354 355 355 356 356 356 356 357 357 357 357 358 358 359 360 360 360 361 360 359 359 358 358 358 359 359 357 356
350 352 347 340 341 341 344 344 346 354 355 355 354 353 353 353 356 357 357 357 358 358 358 359 359 359 360 361 361 362 362 362 363 362 361 361 361 360 359 359 359 358 358
349 352 355 356 349 339 338 345 346 343 342 353 357 356 354 355 356 356 356 357 358 360 360 360 360 361 361 362 363 363 363 363 363 360 360 360 360 360 361 360 359 359 359
334 348 351 353 356 356 352 349 348 347 345 342 341 349 351 352 353 353 351 352 354 357 361 362 363 362 362 363 361 360 360 362 363 363 363 363 364 365 364 363 363 363 363
331 337 347 348 349 351 354 356 356 356 354 347 340 339 338 340 341 349 354 354 355 355 357 359 360 362 361 360 362 360 361 363 362 363 364 363 362 361 361 362 362 362 361
328 328 338 344 345 347 348 347 347 349 352 357 357 351 343 347 354 355 358 359 359 360 361 360 361 361 361 361 360 360 362 362 361 360 359 358 357 356 356 355 355 355 356

GFSMW_850_thetae_045.txt.gz
Theta_e
346 344 344 347 347 345 344 340 340 340 339 341 342 344 346 345 345 344 346 345 344 343 340 342 345 343 343 344 344 343 340 341 339 338 337 337 338 339 339 338 338 336 334
347 346 346 346 347 346 346 343 341 341 342 341 341 341 344 345 345 345 346 347 344 344 343 343 344 345 344 343 346 343 340 339 337 339 338 339 337 337 339 338 339 334 334
347 347 346 346 347 347 347 346 344 343 342 343 342 343 342 344 344 345 345 346 346 345 344 343 342 346 343 343 344 341 340 339 336 338 338 337 336 337 338 339 338 334 335
347 347 347 346 345 345 347 347 345 346 344 343 343 343 342 340 342 344 345 345 345 344 344 343 342 345 346 343 347 341 341 339 335 338 338 334 336 336 338 338 337 336 336
348 348 346 347 345 346 345 347 347 347 346 343 344 344 343 338 337 340 339 344 345 344 343 344 342 342 344 348 348 346 342 337 335 336 339 338 337 336 335 335 336 335 336
349 349 348 348 348 346 345 345 346 346 346 344 344 344 343 339 334 332 334 342 344 344 342 343 344 342 344 345 347 345 341 343 337 337 339 341 339 337 336 336 336 337 337
350 349 349 348 349 348 345 344 345 346 346 345 344 344 344 343 337 333 334 339 344 344 342 341 344 343 342 345 346 346 344 341 343 336 338 338 339 339 336 338 337 338 338
349 349 349 349 349 349 348 346 345 345 345 345 345 344 344 345 344 337 334 338 343 345 344 342 344 347 345 344 344 344 348 342 341 340 337 337 338 336 337 339 338 338 338
344 346 349 348 348 349 349 349 348 347 346 344 345 345 345 345 345 340 337 337 342 345 344 344 344 345 349 347 345 344 345 348 344 338 339 339 337 336 338 339 339 338 338
343 343 347 348 347 348 348 348 348 348 348 347 346 345 345 346 345 343 339 338 340 344 345 345 345 345 346 349 346 345 342 341 341 340 336 338 337 337 339 338 339 338 337
344 342 344 347 347 347 348 348 348 348 348 348 347 346 346 346 346 344 341 339 339 342 343 343 345 346 346 348 349 346 346 344 340 341 338 330 333 335 336 337 338 337 337
345 344 344 347 347 347 347 347 348 347 347 347 347 346 346 346 346 345 343 340 339 341 341 344 344 346 347 349 349 349 348 347 346 342 340 338 336 327 328 333 334 334 335
343 344 346 346 347 347 347 347 347 347 347 347 347 347 347 346 346 345 345 342 340 341 343 342 344 344 346 348 350 351 350 349 348 347 344 337 337 336 334 330 328 328 334
341 344 346 346 347 347 347 347 347 347 348 347 347 347 347 346 345 345 346 344 339 339 339 342 341 344 345 346 350 351 351 350 349 348 348 341 335 333 332 332 335 338 335
342 345 347 346 347 347 347 347 347 347 347 347 347 347 346 345 345 345 345 344 340 336 336 337 339 339 346 347 346 347 348 348 348 347 345 344 342 339 337 334 332 332 334
344 346 347 347 347 347 347 347 347 347 347 347 347 347 346 346 344 344 345 343 339 337 334 334 334 336 337 339 343 345 347 346 346 344 343 343 344 344 344 344 344 343 340
345 347 347 347 347 347 348 347 347 348 348 348 348 348 347 347 346 343 343 343 341 337 336 334 333 332 333 332 333 336 342 345 345 344 344 345 345 345 346 347 348 348 347
343 345 347 347 347 347 347 347 347 348 348 348 348 348 348 348 349 348 347 345 345 344 340 336 334 334 332 332 332 332 335 340 341 342 343 344 344 345 346 348 349 348 347
344 347 348 348 348 348 347 348 348 348 348 349 349 349 349 349 349 349 349 349 349 349 349 347 346 342 337 334 333 334 336 337 339 340 343 344 345 347 350 352 352 350 345
344 349 350 350 349 349 349 348 348 348 349 349 349 349 349 350 350 351 351 351 352 353 354 354 353 353 354 354 354 351 348 348 349 350 352 353 354 355 356 357 357 357 355
347 342 347 351 351 351 351 350 350 350 349 350 350 350 350 350 350 351 352 352 353 353 354 355 355 355 356 356 357 357 358 358 358 358 358 358 359 359 360 360 358 358 358
351 344 342 346 343 344 351 353 353 353 353 353 353 353 353 352 352 353 353 354 354 355 355 356 356 356 357 358 358 359 359 359 360 360 361 360 358 358 358 358 358 358 358
350 354 350 348 347 346 344 349 352 353 353 354 355 355 355 355 355 355 355 355 355 356 356 357 357 358 358 359 359 360 360 361 362 361 360 361 362 361 362 360 359 360 362
339 348 353 353 353 353 350 348 349 346 344 347 353 355 357 357 357 357 357 357 358 357 357 356 356 357 357 359 360 361 361 360 360 360 359 361 361 362 360 361 361 361 362
329 339 345 349 350 349 350 351 350 347 345 343 342 343 347 352 354 356 356 356 355 356 356 354 354 355 357 358 361 362 363 363 361 361 363 360 360 360 360 360 358 357 356
325 330 339 343 345 346 346 345 345 346 349 349 345 342 341 342 344 349 349 348 349 352 356 357 357 359 361 361 363 363 361 359 361 362 359 358 357 357 356 357 355 351 345

GFSMW_850_thetae_048.txt.gz
Theta_e
344 343 342 341 342 343 341 339 333 328 329 336 340 342 343 345 343 343 344 345 344 342 341 342 346 341 341 343 343 341 339 338 337 337 337 337 338 339 339 338 337 337 333
345 345 345 345 345 345 341 342 342 330 332 332 338 342 342 344 345 345 344 345 344 343 342 342 343 343 341 342 344 343 341 340 338 337 334 338 337 337 338 338 338 335 333
345 345 346 347 346 346 344 342 341 332 335 336 339 341 343 345 345 345 345 345 345 344 343 344 343 344 345 343 345 341 340 339 337 339 338 337 337 336 338 338 338 335 334
346 346 345 346 346 345 346 344 342 338 340 341 340 341 341 342 344 345 344 344 344 344 344 344 343 342 345 343 345 342 340 340 339 337 338 335 335 336 336 337 336 336 335
346 346 346 344 345 344 345 346 344 343 341 341 342 342 342 342 342 343 344 344 344 344 344 344 344 342 342 347 345 347 339 341 335 336 337 336 335 336 336 335 336 336 335
346 346 346 346 345 345 345 345 344 345 344 344 344 342 342 343 342 342 342 342 343 343 344 343 344 344 343 344 345 347 341 342 335 335 337 339 339 337 336 336 336 337 337
346 346 346 346 346 346 345 343 343 345 345 343 344 346 343 343 343 341 336 337 339 337 341 343 343 343 343 343 346 344 344 340 341 336 336 336 340 340 338 336 337 337 338
348 347 347 346 345 345 346 344 344 344 345 343 344 345 344 343 343 343 339 333 331 331 338 341 342 342 345 343 346 344 343 344 337 342 338 335 336 337 337 337 337 338 338
347 349 349 348 347 346 347 346 344 344 344 343 343 344 345 344 343 343 343 340 332 333 340 342 342 342 344 347 346 344 342 346 345 341 339 338 337 339 337 336 338 339 338
345 346 349 349 348 348 346 348 348 346 344 343 344 344 345 345 344 344 344 344 338 334 338 342 343 343 344 345 348 347 344 342 345 345 343 337 338 339 338 337 339 339 338
344 345 347 345 348 349 348 348 347 348 347 346 345 345 345 344 345 344 344 345 342 337 336 340 342 344 344 345 345 348 345 344 341 340 341 341 335 336 338 338 339 339 338
344 345 345 346 347 348 348 348 348 348 348 348 347 347 347 346 344 345 345 345 344 340 337 338 341 342 344 345 346 347 348 346 345 342 340 338 340 336 332 333 334 335 336
342 344 343 343 346 347 347 347 348 348 348 348 348 348 348 347 346 346 345 345 345 342 338 338 338 339 341 344 346 348 349 349 349 348 346 344 342 338 337 337 335 331 329
330 335 343 343 343 345 344 345 347 347 347 348 348 347 347 347 346 346 345 346 345 345 341 337 336 336 338 342 345 346 348 349 349 349 349 348 347 343 336 333 333 335 335
329 329 336 342 343 345 345 345 346 347 347 347 347 347 347 346 346 346 346 346 345 345 344 338 335 336 336 337 339 342 345 348 349 349 346 343 342 340 341 340 334 334 334
330 328 331 338 343 345 345 344 345 347 347 347 347 347 347 347 346 346 346 345 345 345 345 342 336 334 334 333 333 337 338 339 340 342 343 343 342 341 341 342 344 345 346
330 325 333 338 343 345 345 345 345 347 347 347 347 347 347 347 346 346 346 344 344 344 344 342 339 334 332 331 331 332 334 335 335 337 339 340 340 341 342 343 343 345 347
336 336 340 341 342 345 345 345 346 346 347 347 347 347 347 347 347 346 346 344 344 343 342 341 338 336 332 331 331 331 332 333 333 334 335 337 337 338 340 341 342 342 345
340 342 343 344 345 345 346 346 346 346 347 347 346 347 347 347 347 347 346 346 345 343 342 341 341 339 335 333 333 333 333 333 333 332 332 333 334 335 338 341 344 346 348
344 343 344 345 345 346 346 346 346 346 347 347 346 347 348 348 348 348 348 348 348 348 348 347 347 347 347 346 345 342 340 339 337 335 335 336 338 342 347 351 354 356 356
346 346 346 346 346 346 346 346 346 347 347 347 347 347 348 348 348 349 349 349 349 350 351 351 352 353 354 354 354 354 355 355 355 354 354 354 356 357 358 359 360 359 357
347 346 348 348 348 348 347 347 347 347 347 347 348 348 348 349 349 349 350 350 351 352 353 353 354 354 354 355 355 356 357 357 358 358 358 359 359 360 360 359 357 356 358
350 353 352 347 349 349 349 349 348 348 348 349 349 350 351 351 351 351 351 352 352 353 353 354 354 355 355 355 356 356 357 358 359 360 360 360 360 360 359 358 358 359 361
342 348 349 349 351 352 352 352 353 353 353 352 353 353 353 354 354 354 354 354 354 354 355 355 355 355 355 354 354 355 357 359 360 360 357 357 358 360 361 361 361 363 364
332 341 346 347 347 347 349 351 352 350 347 349 351 353 355 355 356 356 356 356 356 356 356 356 356 356 355 354 356 358 360 362 361 362 362 362 360 360 361 361 360 357 356
322 329 339 345 346 345 344 343 342 344 348 348 347 344 343 342 347 352 354 356 355 355 356 358 356 358 358 358 358 359 360 361 360 363 360 358 359 361 358 355 354 355 353

GFSMW_850_thetae_051.txt.gz
Theta_e
340 342 344 344 346 339 336 335 329 327 327 330 334 342 343 344 345 344 344 344 344 343 343 344 345 341 340 340 342 340 339 339 337 337 337 337 338 338 338 338 336 334 333
340 341 344 344 345 342 339 338 334 328 328 329 334 341 341 343 344 343 343 344 344 342 342 342 346 342 340 342 343 342 340 340 337 337 336 340 338 337 338 337 337 335 334
340 342 343 344 345 344 341 340 335 331 328 328 335 341 342 342 345 344 344 344 344 344 343 343 343 343 343 343 343 345 343 339 338 337 337 337 338 337 337 337 337 335 334
343 343 344 344 344 344 340 340 338 337 330 329 332 335 339 341 341 344 344 344 345 344 344 343 344 343 344 343 344 342 340 339 339 337 338 338 335 339 339 336 336 335 335
346 345 346 346 345 345 342 343 341 341 342 330 331 332 337 339 340 342 344 344 344 344 344 344 344 344 343 345 344 345 339 340 340 336 337 336 334 336 338 339 340 336 336
347 347 346 346 346 347 345 344 343 342 341 333 335 336 338 340 340 341 343 344 344 344 344 344 343 344 343 343 346 345 347 340 340 335 337 338 341 341 338 338 338 338 337
349 348 347 347 346 346 345 344 344 345 342 338 339 341 341 342 342 342 342 342 342 343 343 342 343 343 343 343 344 346 346 340 340 335 335 336 337 340 340 338 340 339 338
349 349 348 347 346 345 344 342 343 344 345 342 341 341 341 342 342 342 343 342 341 340 341 340 338 342 342 344 343 345 345 345 340 341 339 337 335 337 338 337 339 341 342
349 349 348 347 347 345 345 344 343 343 344 344 344 344 343 344 345 344 343 343 342 339 336 335 337 341 341 344 345 344 345 343 345 337 339 340 337 336 337 338 336 340 341
349 349 349 348 345 343 342 344 344 342 343 342 343 344 343 343 344 344 343 343 343 342 335 333 338 341 341 343 344 347 346 344 342 345 346 345 339 337 338 338 337 337 340
348 349 350 349 348 347 344 342 344 344 342 342 342 343 343 343 344 344 344 343 343 344 341 334 335 339 341 343 344 344 346 348 345 343 343 342 341 338 337 338 338 338 338
346 347 348 350 350 348 347 345 343 344 344 343 343 343 343 343 344 344 344 345 344 344 345 340 334 337 340 342 343 344 345 346 347 342 342 341 340 340 340 335 332 333 333
344 346 346 348 350 350 348 348 346 346 345 346 346 345 345 344 344 345 345 344 345 344 345 343 337 335 337 340 343 345 346 346 347 347 347 345 345 344 343 339 338 336 338
338 344 346 347 347 348 348 348 347 348 348 346 346 347 347 346 346 346 346 346 345 345 345 345 339 336 335 336 339 343 346 346 347 347 347 348 348 347 346 345 342 338 336
330 339 344 342 343 346 347 347 348 348 348 347 347 347 347 347 347 347 346 345 345 345 345 345 343 338 336 335 334 339 342 344 346 346 345 345 344 342 342 344 342 344 344
344 339 335 343 342 342 345 345 346 346 346 346 346 346 347 347 347 347 346 346 344 345 345 345 345 343 337 333 332 332 336 338 341 343 343 343 343 340 339 339 340 344 345
343 346 341 333 334 335 338 343 343 345 346 344 345 346 346 347 346 347 347 346 346 345 345 345 345 344 341 335 333 332 332 333 333 334 334 334 335 334 336 336 337 340 343
342 344 346 334 329 335 344 344 347 345 346 344 345 346 346 346 347 347 347 346 346 346 344 344 345 344 342 337 333 332 333 334 331 330 330 331 331 333 332 333 336 337 338
343 345 347 333 330 342 344 344 345 345 346 345 345 346 345 346 346 347 346 346 346 345 344 343 343 343 341 337 334 334 335 334 332 331 330 330 330 330 331 332 334 334 336
346 346 340 341 341 343 346 344 345 345 344 344 345 346 346 345 345 345 346 346 346 345 344 343 341 340 339 337 336 336 338 337 333 332 331 331 331 331 333 334 336 337 342
347 350 345 345 342 344 346 343 345 344 344 345 346 346 346 346 346 346 346 346 347 346 346 346 345 344 344 345 345 346 346 343 342 340 339 339 342 345 348 350 353 356 358
345 347 347 346 346 344 344 344 344 345 345 346 346 346 347 346 347 348 348 348 348 348 348 348 349 350 350 351 352 353 352 353 353 354 355 356 356 357 358 359 360 360 358
344 347 348 346 346 346 346 346 346 346 346 346 347 346 347 347 348 348 349 349 350 350 350 351 351 352 353 353 354 354 355 355 356 357 357 358 359 360 360 359 358 357 359
344 344 347 348 348 346 346 346 346 346 346 346 347 347 348 348 349 349 349 350 351 351 353 354 354 353 353 354 354 354 355 356 357 358 358 359 360 359 358 358 359 361 361
327 341 346 345 347 348 351 354 355 353 349 349 349 349 351 351 351 351 355 352 352 354 353 353 356 355 354 353 354 354 353 353 355 359 360 360 359 357 358 360 362 362 361
314 314 319 343 344 344 342 342 343 348 353 355 354 354 353 353 353 355 354 354 355 355 355 355 355 357 356 356 357 356 355 356 359 361 361 358 358 360 362 361 361 358 355

GFSMW_850_thetae_057.txt.gz
Theta_e
347 346 344 344 343 344 344 345 346 346 347 348 348 348 348 348 350 348 352 351 353 346 345 351 342 348 349 345 346 337 340 340 340 338 340 340 340 341 340 339 340 340 341
348 346 345 344 343 345 345 345 346 346 347 347 347 348 348 347 348 347 350 351 350 350 351 350 349 346 348 350 347 348 343 342 339 340 341 341 339 340 341 339 339 340 341
348 347 345 344 343 345 345 345 346 346 346 345 346 349 348 348 347 349 350 352 352 352 354 346 350 345 347 349 348 343 346 344 340 341 342 340 342 341 339 340 341 342 343
348 347 347 345 345 345 347 346 346 345 345 343 345 347 347 346 347 349 349 351 352 353 352 351 351 350 351 349 349 348 348 346 341 340 341 342 342 342 342 341 341 342 342
348 347 347 347 346 345 348 348 347 345 345 335 343 345 347 347 347 347 350 349 351 354 352 353 352 350 347 350 351 349 344 343 346 341 341 342 340 341 342 344 342 342 341
348 347 347 347 347 346 347 348 348 346 341 339 334 343 344 346 345 346 351 348 352 352 353 353 351 352 351 346 352 352 342 349 345 345 342 342 341 342 341 339 340 339 341
348 348 347 346 348 347 347 349 350 349 341 343 335 338 341 341 346 347 348 347 346 347 349 349 353 353 345 355 352 347 349 351 348 342 343 344 343 344 343 342 342 342 342
349 348 347 347 348 349 348 347 350 351 349 343 339 330 332 343 345 346 348 347 346 345 349 349 353 353 355 353 353 352 352 351 350 349 342 345 343 342 342 344 344 344 344
350 350 349 348 348 349 349 349 349 351 348 349 342 333 329 332 343 343 345 349 346 347 347 351 354 353 352 352 353 351 352 356 352 350 349 344 346 345 344 344 344 344 345
349 350 351 350 349 349 350 350 350 352 351 349 347 339 332 330 335 344 349 349 349 347 350 348 351 353 353 352 351 351 351 353 353 351 351 349 349 347 347 346 345 344 344
347 349 351 351 351 351 350 351 351 351 353 351 351 346 344 344 335 345 346 350 350 351 346 350 351 351 352 352 352 349 352 353 352 353 354 355 351 353 350 347 346 346 345
344 347 348 350 352 352 352 351 351 352 353 353 353 349 347 347 345 333 348 349 349 349 351 347 351 350 349 352 353 354 350 355 354 353 353 354 353 352 346 350 348 347 347
340 345 347 348 352 352 353 352 352 352 352 354 354 352 349 345 344 346 341 345 345 344 347 348 347 349 349 349 353 352 353 353 353 353 354 354 355 354 352 353 350 349 350
338 342 346 348 350 352 353 353 352 352 352 352 353 353 352 351 348 349 344 343 342 341 342 343 344 345 350 350 350 354 354 354 353 353 354 354 354 354 353 350 348 349 347
338 340 343 347 350 351 353 354 353 352 352 351 352 351 352 353 353 350 350 344 343 339 340 343 345 346 352 353 350 351 353 354 353 353 354 354 353 354 354 356 356 355 356
336 336 342 345 348 350 353 355 354 354 353 352 351 351 353 354 352 352 350 349 344 340 341 343 344 346 353 351 350 348 350 352 352 352 352 352 353 353 351 349 345 345 351
340 342 343 341 344 347 351 354 356 354 354 353 353 352 353 352 350 351 350 346 339 339 342 343 344 345 345 349 349 348 345 350 349 349 348 351 351 351 351 351 347 344 342
343 344 345 345 345 345 348 351 355 356 355 355 355 354 355 354 350 351 347 344 340 341 342 344 345 345 345 344 345 347 345 345 343 348 346 341 340 345 352 354 354 353 344
345 345 345 346 347 348 345 346 351 357 356 357 355 357 355 357 356 351 348 346 343 343 344 345 345 346 345 345 341 344 346 346 343 340 337 341 341 331 330 335 338 340 341
345 347 348 349 350 351 350 349 347 353 358 357 357 357 357 358 358 355 354 348 345 345 346 346 345 345 343 341 342 342 344 350 347 342 336 333 331 331 331 333 334 337 335
344 346 352 353 354 355 353 352 347 350 354 358 359 359 359 359 359 359 358 357 350 357 351 355 351 347 347 345 342 341 342 348 350 350 347 348 344 338 337 337 339 339 339
340 350 355 356 355 355 355 354 352 347 354 357 359 360 360 359 361 359 359 360 359 357 359 357 359 360 351 347 345 342 341 340 344 346 345 346 346 346 346 347 347 348 351
339 348 354 359 357 352 350 352 350 350 355 356 359 360 360 360 360 360 359 361 360 360 360 361 360 359 358 359 355 344 338 337 339 340 349 347 347 350 353 355 357 358 357
331 339 347 352 353 355 356 354 357 356 357 358 359 359 360 360 360 362 363 362 361 361 360 360 359 357 355 352 355 354 342 338 340 341 342 346 350 353 357 359 360 359 358
325 327 334 340 346 353 357 357 358 357 359 359 359 359 360 361 360 361 361 361 360 360 359 357 355 353 354 356 357 360 362 359 350 349 349 350 351 355 359 360 360 360 360
324 322 325 332 337 344 349 354 356 358 358 359 359 361 360 361 361 361 360 361 361 360 359 359 359 361 361 360 361 360 362 365 364 359 357 359 360 361 361 361 362 359 360

GFSMW_850_thetae_060.txt.gz
Theta_e
347 345 344 343 344 343 343 345 346 346 345 349 346 347 347 347 349 349 347 346 348 345 347 350 341 347 343 344 344 341 341 342 340 339 338 339 340 341 342 341 341 341 342
348 346 344 344 344 344 344 344 346 347 345 349 348 349 347 348 345 350 352 345 350 345 346 348 344 347 347 340 346 339 342 342 337 341 344 343 340 342 341 341 339 342 342
349 347 345 345 344 344 344 343 346 348 346 350 347 349 349 349 347 351 351 346 350 347 350 347 347 344 346 347 344 343 345 345 339 339 343 342 342 342 339 338 342 342 342
349 348 346 345 344 345 345 344 346 348 346 347 346 349 349 349 343 351 349 344 349 351 351 347 348 344 346 349 342 341 346 344 341 341 342 342 342 341 342 343 343 340 341
349 349 347 346 345 346 346 345 344 347 346 344 348 347 349 347 349 347 349 350 347 349 353 348 343 343 349 350 345 345 345 350 345 344 340 341 341 341 341 343 342 342 342
349 349 348 347 346 346 346 346 346 344 344 340 346 346 345 347 348 345 352 351 350 346 351 352 346 343 345 350 345 346 340 342 344 347 342 340 341 341 341 342 340 343 340
349 349 349 348 347 346 347 347 347 346 341 339 339 345 345 347 346 347 352 351 352 350 344 350 348 344 342 350 347 347 340 342 343 344 344 345 344 344 343 342 344 342 342
349 350 349 349 348 347 347 349 349 348 345 340 332 340 341 340 346 349 346 350 347 351 350 347 345 339 350 346 351 343 344 340 338 340 342 344 343 342 342 343 344 345 345
346 350 350 349 350 349 348 349 350 348 347 339 330 329 331 331 344 346 349 346 348 348 347 350 349 348 349 352 347 348 350 353 350 337 337 343 344 346 344 343 344 344 344
344 347 350 349 350 350 350 349 351 351 350 349 341 329 328 327 328 342 346 349 345 346 354 348 347 345 348 348 350 349 350 350 351 350 351 343 337 347 348 346 345 345 345
346 349 348 350 349 350 350 350 350 354 353 351 348 342 331 329 328 334 338 344 348 348 345 352 349 349 347 351 349 346 353 351 347 353 353 353 351 348 351 350 347 346 346
347 343 341 347 350 350 351 352 351 351 354 354 353 349 343 334 331 329 335 341 343 350 348 346 351 350 349 348 350 347 347 353 354 348 352 355 354 348 345 350 350 351 349
343 338 343 349 351 350 351 352 352 352 354 356 355 354 352 348 338 331 330 337 339 343 349 346 342 346 345 344 343 346 346 349 353 355 351 350 349 350 350 346 347 346 349
343 346 349 352 353 352 351 352 352 353 353 356 356 355 355 351 346 340 333 342 343 337 342 343 343 342 343 343 340 341 348 345 349 352 350 350 351 350 350 345 342 347 346
337 338 342 348 353 354 353 353 353 353 353 353 355 356 356 355 354 350 341 337 338 336 335 338 340 343 345 343 344 341 343 347 346 348 352 352 351 350 351 352 347 349 353
337 338 339 342 350 355 354 354 353 354 353 353 354 355 356 357 355 354 351 346 340 337 336 337 338 341 344 345 350 348 345 348 348 346 346 353 354 354 352 349 352 349 348
342 344 345 345 350 353 356 356 355 354 354 353 354 354 355 356 356 355 354 354 354 347 341 337 337 339 341 344 350 351 350 348 346 346 347 348 347 350 349 348 348 349 348
346 346 346 346 347 343 342 358 357 356 355 355 354 354 354 354 355 356 356 356 356 355 352 346 339 337 338 342 344 349 350 350 348 345 344 347 342 345 352 353 354 354 352
341 346 347 347 347 345 347 350 355 357 355 356 355 355 355 354 354 354 354 356 357 356 355 349 341 337 338 341 343 345 348 350 349 346 345 345 348 337 334 339 347 351 351
336 342 347 349 351 346 343 349 350 359 358 357 356 357 357 355 355 355 353 354 356 353 352 347 342 339 339 341 343 344 347 348 348 346 343 342 340 339 338 340 336 335 330
334 335 339 345 349 355 352 351 347 351 358 358 356 359 359 358 357 358 356 355 355 357 355 354 351 350 343 343 344 345 346 347 349 345 342 339 336 335 337 338 339 338 340
331 334 339 349 358 361 360 356 353 347 351 359 359 357 360 360 359 360 360 359 358 358 360 357 358 357 353 349 348 345 345 344 346 348 348 346 345 345 345 345 346 346 347
329 331 338 351 357 359 358 362 358 354 350 353 359 359 361 361 362 361 362 361 360 360 360 361 360 361 361 356 352 351 350 348 347 345 346 346 350 350 349 348 348 349 351
326 328 336 347 350 352 353 357 360 358 357 351 360 359 361 363 362 361 363 361 361 361 363 362 363 362 361 363 362 358 355 349 350 347 343 342 343 344 342 344 346 347 351
323 322 327 335 340 342 350 355 358 362 355 352 361 361 362 363 362 360 364 362 362 362 361 363 360 363 362 358 359 360 356 352 353 346 344 341 340 342 346 348 350 352 354
323 322 320 325 332 333 344 354 357 359 363 364 364 363 363 363 363 360 365 364 362 363 362 359 362 360 361 359 356 352 352 354 359 362 361 358 352 349 349 349 352 357 360

GFSMW_850_thetae_063.txt.gz
Theta_e
345 344 343 342 342 342 340 342 345 344 344 346 341 345 348 347 347 347 347 348 344 343 344 343 343 343 343 344 343 341 342 341 340 343 343 343 342 339 342 341 341 341 340
346 343 344 343 342 343 342 342 344 345 342 346 343 345 346 348 346 346 348 341 348 343 348 341 345 345 343 343 340 341 342 338 339 341 343 342 338 341 341 341 341 342 341
347 344 344 344 342 342 342 342 344 346 345 343 344 345 346 344 345 348 350 346 342 342 344 346 342 345 344 340 338 339 343 340 339 339 342 342 342 341 340 340 339 341 340
347 345 344 344 344 343 342 342 342 348 346 340 346 349 350 347 346 348 349 349 342 340 348 346 348 344 344 345 339 339 343 344 342 340 340 341 341 340 340 341 341 342 340
347 346 344 344 345 344 343 343 341 346 346 343 345 348 350 351 346 347 350 348 343 341 341 344 345 342 345 347 344 339 341 344 344 343 339 341 339 341 341 342 342 342 342
349 348 345 345 344 346 344 343 343 341 345 345 339 347 347 348 349 345 350 348 348 346 339 348 344 340 346 348 343 345 341 344 344 345 344 341 340 342 343 343 343 342 340
350 349 346 345 345 346 345 344 344 342 339 343 339 344 345 347 347 349 346 350 349 346 343 347 349 342 339 342 342 345 342 343 343 345 343 345 343 343 342 343 344 344 341
346 350 348 346 346 345 346 345 344 344 340 336 340 338 339 342 346 350 347 350 348 345 347 345 341 340 338 345 345 344 340 338 342 344 344 344 344 342 342 343 343 344 344
345 350 349 347 346 346 347 346 345 344 344 334 333 339 338 341 345 347 351 352 350 345 349 349 347 346 342 340 339 344 341 341 335 340 340 343 342 341 342 342 342 343 344
348 348 348 349 347 346 347 347 346 345 345 344 333 332 333 334 343 345 348 348 348 350 348 351 349 348 346 337 341 343 344 348 349 345 333 337 341 344 347 346 342 344 344
342 342 346 350 350 348 348 347 348 347 346 347 344 332 332 332 331 343 345 347 344 347 346 351 350 348 347 340 339 343 345 349 348 346 342 343 343 339 346 348 347 345 345
339 346 345 349 350 350 349 348 348 349 347 347 347 345 331 328 328 328 343 343 346 343 345 347 351 350 348 347 341 343 343 353 353 351 350 352 352 352 344 350 352 349 348
347 346 346 347 349 348 350 350 349 349 350 349 348 348 348 336 328 326 326 339 338 342 347 354 349 350 349 346 339 339 338 345 350 352 353 347 352 352 348 343 347 350 350
345 343 343 337 338 346 349 350 351 350 352 351 351 350 350 348 341 330 328 327 327 334 341 349 348 347 346 346 340 340 336 336 344 344 346 347 347 347 348 347 346 344 344
347 344 341 339 341 343 348 351 351 352 352 354 353 352 351 350 350 345 336 331 328 328 329 336 348 343 344 342 340 342 341 336 335 338 342 342 345 346 347 348 349 351 350
345 347 344 342 340 348 349 348 351 353 352 353 355 355 354 353 352 351 347 340 336 331 330 331 332 340 340 339 339 341 342 342 339 334 336 336 339 340 344 349 350 349 350
335 337 345 348 347 343 341 340 352 353 353 353 354 355 355 355 354 353 353 349 345 340 336 335 336 333 337 337 336 337 341 344 344 340 337 337 339 338 339 342 345 347 348
332 332 335 345 345 346 349 343 349 354 354 354 353 354 354 353 354 354 354 353 351 348 343 342 339 334 333 335 336 337 340 344 345 345 343 341 338 336 338 337 347 351 351
331 331 329 334 338 347 350 351 347 344 354 356 354 353 353 353 354 354 354 354 353 351 349 347 344 341 339 337 339 340 341 345 347 346 347 346 343 338 339 341 341 343 343
330 332 330 333 331 343 350 351 342 344 351 356 357 354 354 354 353 353 353 354 354 353 352 352 351 350 347 345 343 341 341 344 345 346 347 347 347 345 343 344 342 340 333
328 331 334 336 339 349 355 346 350 345 350 357 358 356 355 354 354 354 353 353 354 354 355 353 353 353 350 345 342 340 342 342 343 345 345 345 344 343 343 344 343 340 337
327 329 334 335 337 347 351 354 355 347 355 349 359 358 357 357 356 355 354 354 354 354 354 355 355 353 350 345 341 340 343 342 345 346 345 344 342 341 342 341 343 344 346
325 328 330 336 338 343 348 351 355 356 353 357 352 358 358 357 358 358 357 355 356 355 355 356 356 354 351 350 345 341 342 345 349 349 346 346 345 345 349 351 350 348 348
324 323 326 330 334 336 343 345 350 354 358 358 358 352 361 359 359 359 359 358 357 357 358 357 357 357 357 356 353 348 349 349 351 352 351 351 351 351 351 352 351 348 347
323 322 323 323 330 332 335 343 349 353 355 358 359 360 353 362 359 360 361 360 359 358 359 358 358 360 360 354 352 351 350 349 349 352 355 356 354 352 349 347 347 346 344
321 321 322 323 324 328 330 335 345 352 355 358 357 359 358 359 361 360 361 362 362 361 360 359 359 360 360 359 357 357 356 355 355 355 354 355 353 348 342 341 342 342 342

GFSMW_850_thetae_066.txt.gz
Theta_e
344 344 343 341 341 342 342 342 341 338 339 344 344 343 348 344 346 347 347 344 341 345 344 342 342 343 343 343 342 341 341 342 343 342 342 342 344 342 341 341 341 341 340
346 345 343 341 341 342 342 342 340 339 338 344 342 342 347 344 346 348 347 347 344 343 345 341 343 344 342 341 342 341 341 341 341 341 342 341 340 340 341 341 341 341 341
347 344 343 342 340 340 341 341 340 339 340 344 343 345 347 347 347 347 348 344 345 343 348 340 344 344 343 342 340 341 340 338 340 341 342 342 339 340 340 340 340 340 339
347 344 343 343 342 342 342 341 341 340 339 340 339 345 344 347 346 345 347 345 341 341 346 340 342 344 343 341 338 339 342 338 338 338 341 340 341 341 339 339 339 342 340
347 344 343 343 342 342 342 342 341 341 337 343 338 344 345 343 346 345 347 347 341 341 345 345 344 343 343 337 337 339 343 341 341 337 338 340 339 341 341 341 341 342 341
348 346 344 343 343 342 342 342 341 341 339 344 340 343 346 345 347 347 348 348 343 344 342 343 343 343 342 345 343 338 339 344 343 340 339 340 341 342 343 343 343 342 341
348 346 343 344 344 343 342 342 342 342 341 340 341 345 348 349 350 347 348 350 347 347 343 343 340 339 341 346 342 340 337 344 343 343 345 344 341 343 342 343 343 343 342
347 347 344 344 344 344 344 344 343 343 343 338 341 341 345 348 350 349 347 347 348 347 344 340 345 341 337 339 342 341 339 339 342 343 344 344 344 342 341 342 342 343 344
347 347 345 344 344 344 344 344 344 343 343 343 335 338 341 346 348 348 349 347 347 347 345 345 342 341 339 335 341 341 340 334 339 342 344 343 343 341 341 341 342 342 343
345 348 346 344 345 345 344 344 344 343 343 343 343 334 335 340 346 346 349 346 349 347 345 348 346 345 345 343 340 340 339 340 335 337 342 342 343 342 342 344 343 343 343
345 349 348 346 345 345 345 345 344 344 344 344 343 342 333 335 341 343 347 348 347 352 348 350 349 350 347 347 340 341 340 342 345 346 342 333 339 340 344 346 346 346 345
346 348 349 348 346 346 346 346 346 345 345 344 344 344 341 330 334 338 345 347 351 350 349 349 348 350 349 348 345 336 341 342 344 344 344 337 333 333 340 343 347 348 347
347 347 347 348 348 348 346 346 346 346 346 345 345 344 345 341 329 333 338 344 347 349 347 346 346 349 350 348 346 342 336 341 343 348 349 347 346 347 346 339 343 348 351
343 340 338 341 345 346 348 347 347 347 347 347 346 346 345 346 344 330 330 334 344 345 347 346 344 345 347 347 348 345 336 334 338 344 348 349 351 346 346 346 344 343 344
344 345 344 344 344 342 344 348 348 348 348 348 348 347 347 346 346 346 338 327 328 338 343 343 346 347 350 349 347 346 344 339 334 334 339 342 344 346 347 348 346 345 345
334 340 342 343 343 344 339 341 345 348 349 350 350 349 349 348 348 347 347 346 333 327 329 342 340 344 348 350 347 344 340 339 338 336 333 333 334 337 340 345 346 346 347
334 331 332 332 336 344 345 344 345 350 350 350 351 351 351 351 350 350 349 348 347 342 331 328 329 333 340 346 346 343 341 339 338 337 337 337 335 334 335 336 339 343 344
328 330 330 328 331 333 345 347 345 344 351 351 351 351 352 352 352 352 352 352 350 347 344 336 332 329 330 332 334 336 340 340 338 338 338 337 336 337 337 337 338 338 337
326 328 332 333 334 343 347 348 346 347 345 353 352 352 352 353 353 353 353 353 353 351 348 344 341 336 332 331 334 337 337 338 337 337 339 340 340 340 341 344 341 337 335
324 326 329 332 332 337 340 346 346 339 338 347 352 353 353 353 354 353 353 353 353 353 350 348 347 346 341 337 338 339 337 336 336 337 337 339 342 342 343 346 346 343 337
321 323 326 329 331 332 341 346 341 346 341 339 342 345 350 354 355 354 354 353 353 353 353 352 350 348 346 344 344 344 344 344 340 339 337 336 338 341 343 344 346 342 339
319 322 323 326 328 330 326 331 343 342 340 346 348 348 350 356 357 356 355 354 353 354 354 353 353 352 351 349 347 346 348 346 346 341 335 335 337 340 343 345 345 344 343
318 319 322 324 326 329 329 330 334 339 335 336 341 343 351 355 357 358 357 355 355 355 354 354 353 353 353 352 350 347 345 345 347 340 337 336 339 342 345 347 347 346 346
317 320 321 323 324 326 330 331 332 338 337 331 335 336 344 352 357 358 358 357 356 355 355 355 354 354 354 353 352 350 346 344 346 347 345 345 347 349 349 349 348 347 350
318 320 322 322 322 323 325 330 334 337 340 334 335 339 346 349 353 357 359 359 358 357 356 356 355 355 355 354 353 351 348 342 341 343 350 355 354 354 354 353 352 351 350
319 321 321 323 321 321 323 325 328 334 335 339 343 350 351 352 359 357 359 360 360 359 359 358 357 357 357 356 355 354 352 351 352 353 352 354 354 355 356 355 355 353 351

GFSMW_850_thetae_069.txt.gz
Theta_e
344 343 343 341 340 342 344 341 340 343 345 342 346 346 345 344 345 346 343 342 343 344 342 344 343 344 341 342 341 340 341 341 340 341 341 341 342 342 340 341 341 340 340
345 344 344 343 341 341 343 341 341 342 340 343 346 345 345 345 345 347 346 344 342 345 343 344 343 344 343 342 341 340 341 341 342 342 342 341 339 340 340 340 340 340 340
345 344 344 343 341 343 342 341 341 340 339 342 345 344 344 346 345 346 347 345 344 342 344 341 343 342 342 342 341 340 341 340 341 341 343 341 338 339 340 340 338 340 339
345 344 345 344 341 341 342 342 341 340 338 335 341 342 343 346 345 345 345 347 346 343 345 343 341 344 343 342 340 341 340 338 339 339 341 341 341 340 339 339 339 341 340
347 346 345 344 344 341 342 341 340 340 340 337 337 342 343 345 344 345 345 347 344 344 344 342 342 343 343 341 342 339 341 340 337 338 338 339 340 340 341 341 341 341 340
348 347 346 345 344 341 340 341 341 341 341 338 336 339 341 344 343 345 346 347 344 341 342 345 344 343 343 342 337 338 339 342 339 339 336 339 340 341 343 343 341 341 341
348 346 343 343 343 341 340 341 341 341 341 340 337 336 338 343 342 344 346 347 346 342 340 344 344 343 341 342 345 342 339 340 341 342 342 341 340 343 342 343 343 343 341
348 347 343 343 343 342 342 342 341 341 341 341 339 336 335 342 343 345 347 347 348 346 346 343 341 341 339 341 346 341 338 337 341 342 343 343 344 342 341 341 342 342 343
345 347 345 343 344 343 342 342 342 342 342 342 342 336 335 342 343 345 348 346 346 347 347 348 344 346 346 340 339 343 341 338 340 341 342 342 344 342 342 341 340 341 342
346 346 346 344 344 344 344 343 343 342 343 342 342 341 334 336 342 346 348 348 348 347 347 348 345 342 346 345 340 344 342 342 336 338 341 342 343 343 341 343 344 342 342
347 345 346 345 345 345 344 344 343 343 343 343 343 342 340 333 335 344 346 348 348 346 348 349 347 347 345 345 345 343 342 342 340 337 336 339 341 342 342 341 344 346 345
344 345 345 345 343 344 344 344 344 343 343 343 343 343 342 341 332 334 343 347 347 347 348 350 348 349 349 349 347 347 342 342 341 342 343 339 339 334 340 339 342 345 347
346 346 347 345 344 343 345 344 344 344 344 344 343 343 343 343 342 332 332 344 345 346 348 348 350 348 348 349 349 348 346 338 340 343 345 345 344 338 336 335 337 339 344
344 343 343 344 345 345 345 346 346 345 344 344 344 344 344 344 343 343 333 332 337 343 346 349 349 348 347 346 348 348 346 340 336 337 339 346 348 347 344 345 347 347 344
336 336 339 342 343 343 343 344 346 346 346 346 345 345 345 345 344 344 344 338 329 334 341 345 347 348 347 347 345 345 345 345 342 339 335 334 339 345 347 347 343 346 347
330 330 331 335 338 344 344 343 340 345 347 347 347 347 346 346 345 345 345 345 344 332 328 337 343 344 346 346 347 347 347 346 344 341 338 338 333 333 336 339 341 342 345
326 331 332 331 338 337 344 345 343 342 344 346 348 348 348 348 348 348 347 346 346 346 344 332 327 332 340 343 342 344 347 348 345 342 339 338 338 337 334 333 336 338 340
324 326 329 334 335 338 345 346 346 343 343 348 348 348 349 349 349 349 349 349 348 348 347 346 345 334 326 326 337 341 340 344 345 344 341 339 338 338 340 340 338 337 337
321 321 324 328 333 332 339 347 350 346 344 347 351 352 351 351 351 351 351 351 351 351 350 349 348 346 343 333 327 327 328 334 336 336 334 337 337 336 339 342 342 342 340
318 318 319 323 327 330 329 329 344 346 342 341 345 352 354 355 355 354 353 353 353 353 352 352 351 348 344 344 338 334 331 329 330 331 332 332 333 334 336 342 345 346 342
317 318 319 319 323 326 326 325 325 338 340 341 345 343 349 348 350 350 350 353 354 354 353 353 353 352 350 344 343 341 342 337 332 333 336 330 329 332 334 336 341 342 343
314 316 317 317 319 324 324 325 325 325 329 340 341 344 347 346 346 347 349 353 354 355 355 354 353 353 352 352 349 347 345 344 343 339 339 337 335 334 334 334 336 340 343
313 315 317 319 321 322 323 324 326 328 327 327 337 338 337 342 344 348 349 352 355 355 355 355 355 354 353 353 352 351 350 348 347 346 346 345 342 341 338 334 336 340 344
313 316 318 318 319 322 322 323 323 327 329 330 328 327 335 337 338 342 348 352 355 355 355 355 355 355 354 353 353 353 352 352 351 351 349 347 345 344 341 339 341 345 347
314 316 317 319 321 321 321 322 323 324 326 328 329 328 326 330 343 339 342 348 352 355 356 356 355 355 356 355 355 354 354 353 352 351 350 348 346 346 343 342 343 346 350
312 316 316 320 319 322 321 321 321 322 323 325 328 330 328 326 337 347 343 350 354 352 354 357 357 357 358 357 357 356 355 355 355 355 353 350 348 346 345 346 347 348 350

GFSMW_850_thetae_072.txt.gz
Theta_e
344 344 344 341 341 341 340 338 338 340 342 342 344 344 342 341 343 343 345 342 344 343 342 343 342 342 340 339 341 341 342 340 340 341 339 340 339 340 340 340 341 340 340
343 344 343 342 341 340 342 341 339 341 341 343 342 344 343 344 343 344 345 344 341 342 342 343 343 343 339 340 341 340 340 340 340 341 341 340 337 338 339 339 339 340 340
344 343 343 343 342 341 341 342 341 341 341 342 342 345 344 344 344 345 346 346 343 343 343 344 342 343 342 341 340 340 341 340 339 341 342 342 340 338 338 339 338 340 339
346 344 343 343 343 342 340 341 342 341 341 342 344 345 342 342 344 343 346 346 345 343 343 342 342 342 343 341 341 340 341 340 339 340 339 341 340 340 340 340 339 339 340
345 344 343 343 343 343 342 340 341 341 341 340 342 343 344 340 340 344 345 345 345 345 342 344 341 342 343 342 341 340 340 339 337 337 338 338 339 339 341 342 341 339 339
347 345 344 344 344 343 342 341 341 341 341 339 340 340 341 341 341 344 344 344 347 344 342 344 340 342 344 343 341 341 338 340 340 337 338 337 340 341 342 343 340 340 340
349 347 344 344 344 344 343 341 341 341 341 340 339 336 335 340 340 342 343 344 345 345 338 340 345 342 343 344 344 339 338 339 341 339 340 340 341 341 341 342 342 343 342
348 348 347 344 344 344 344 343 341 341 341 341 340 337 336 336 339 342 341 344 345 346 342 341 341 344 342 343 342 345 345 339 340 340 341 343 343 343 342 341 341 341 341
347 348 348 346 346 345 345 344 342 340 340 341 341 340 337 337 334 341 341 344 345 345 347 346 346 341 344 344 341 344 347 343 340 339 341 342 343 344 342 342 342 341 341
348 348 348 347 345 345 346 345 343 341 341 341 341 341 340 337 333 338 341 343 343 344 345 347 347 346 344 346 346 340 343 343 342 340 340 341 342 343 343 342 342 344 344
347 348 347 347 346 344 344 344 343 341 341 341 341 341 342 339 337 335 341 342 345 343 346 345 348 347 344 343 344 344 342 341 342 341 336 338 341 341 342 341 341 341 343
343 347 345 346 344 343 343 343 342 342 341 342 341 342 342 342 338 335 335 342 345 345 347 345 347 347 348 348 348 346 346 345 340 341 340 336 336 337 339 337 338 340 340
344 345 345 344 345 342 342 343 343 343 343 342 342 342 342 342 342 339 333 332 338 343 345 345 345 348 346 348 349 349 348 347 344 339 341 344 345 344 342 337 337 338 339
335 339 343 343 344 343 343 343 343 343 343 343 343 342 342 342 343 342 341 335 332 335 340 344 344 345 348 349 347 347 349 348 346 340 337 339 342 344 345 345 343 343 345
331 333 336 339 343 343 344 344 345 345 345 344 344 344 343 343 343 343 343 342 341 332 333 339 342 343 344 344 345 346 346 347 346 346 343 338 335 336 341 346 346 347 345
325 327 333 336 338 342 344 343 342 344 345 346 345 345 345 344 344 344 343 343 343 343 336 330 335 337 343 343 343 344 344 344 345 345 345 344 343 340 338 335 335 339 341
320 322 324 330 334 340 342 344 344 342 343 345 346 346 346 346 346 346 345 345 345 344 344 343 333 329 332 336 340 341 342 343 343 341 341 342 341 340 340 340 340 337 336
316 317 319 323 327 333 338 345 347 346 344 343 344 346 346 347 347 348 348 347 347 346 345 345 345 344 339 330 329 332 337 339 336 333 332 335 338 339 339 339 339 340 341
311 314 317 320 321 326 329 329 344 347 345 344 345 347 347 347 347 347 348 349 349 349 349 348 348 347 347 346 345 338 329 328 328 330 332 328 329 331 332 336 337 337 339
308 310 312 315 317 320 325 327 327 337 342 342 342 349 349 350 350 350 350 350 350 350 351 351 351 351 350 350 348 347 346 342 331 326 326 327 327 327 328 330 331 335 335
309 309 310 311 314 318 322 325 328 328 328 339 341 344 348 349 350 353 353 351 351 351 352 352 353 353 352 352 352 351 349 347 345 337 332 330 329 328 328 330 332 331 332
309 309 309 309 311 315 320 322 324 327 327 328 332 338 341 345 346 348 349 349 349 350 350 350 352 353 354 353 352 353 352 349 347 343 339 338 336 332 332 334 333 331 333
307 308 309 311 309 312 318 321 321 323 325 327 329 329 327 329 338 341 345 346 348 352 350 351 352 353 355 354 354 353 353 352 351 348 344 342 341 342 340 339 339 341 341
307 308 308 310 312 311 314 318 321 321 322 323 326 326 328 329 329 327 340 339 345 351 352 353 354 353 355 354 353 354 353 353 353 352 351 349 346 345 345 345 345 344 341
306 307 307 309 312 315 315 316 320 321 320 320 321 323 324 326 329 329 328 338 341 350 352 352 354 353 354 354 354 354 354 354 353 353 352 352 351 349 346 345 342 339 339
305 306 307 308 311 314 315 318 318 320 320 320 320 320 321 323 324 329 327 327 340 345 348 351 354 349 350 354 356 355 354 354 353 354 354 354 352 352 351 349 344 339 337

GFSMW_850_thetae_075.txt.gz
Theta_e
347 347 345 342 334 330 333 333 333 332 337 342 340 342 343 344 343 343 344 342 343 343 343 342 342 343 340 340 341 341 340 339 340 338 339 339 338 338 339 340 340 340 340
346 346 346 344 337 333 336 336 335 334 340 342 342 343 339 340 343 343 343 342 341 342 343 342 342 342 341 338 340 340 340 340 340 341 342 342 340 338 338 338 339 339 340
346 345 345 345 341 339 339 338 337 337 340 341 343 344 344 342 343 343 344 345 342 342 343 343 344 343 341 339 340 340 341 341 340 341 342 344 342 340 339 339 338 339 339
346 345 344 344 345 340 340 341 340 339 340 341 344 343 344 343 342 343 343 346 345 342 342 343 343 342 343 342 341 340 340 339 339 339 339 340 340 343 343 342 339 338 339
346 346 345 344 344 342 341 341 341 341 341 342 342 343 344 343 340 342 344 346 345 344 344 343 341 343 342 343 341 341 340 340 338 337 337 338 339 341 343 344 344 339 339
346 346 345 345 343 343 343 341 341 342 341 341 341 342 343 345 342 339 343 345 345 345 344 342 345 340 344 343 343 341 341 340 340 339 337 338 341 343 345 346 344 341 341
349 346 345 345 344 343 343 343 341 341 342 341 341 340 342 344 344 340 341 344 344 345 344 342 343 340 342 344 344 342 339 339 340 341 340 340 342 341 341 341 344 344 342
349 348 345 345 345 343 343 344 343 341 341 341 341 340 340 341 342 340 339 343 343 343 344 340 340 344 342 344 344 343 344 344 339 341 340 341 343 343 342 342 342 344 344
346 348 348 345 345 345 344 344 344 343 341 341 341 340 340 339 336 340 340 342 342 344 346 345 345 343 342 340 341 342 344 343 339 339 339 341 342 343 343 342 342 343 345
348 348 349 346 346 346 345 344 344 344 344 342 341 341 340 340 336 338 338 339 341 345 345 346 348 346 345 344 346 345 340 342 343 342 339 341 342 342 343 343 342 342 343
347 349 348 346 346 347 346 345 344 344 344 343 341 341 341 341 340 338 336 337 341 343 342 344 345 347 347 342 343 344 344 341 341 342 341 339 339 341 342 342 342 341 341
342 346 348 346 346 346 345 346 345 345 345 344 342 341 341 341 341 341 338 335 339 342 344 342 345 346 348 346 345 345 345 345 345 341 341 339 337 338 339 339 339 339 337
335 339 342 343 344 345 344 344 344 344 344 343 343 342 341 341 341 341 341 337 336 341 343 345 346 345 346 347 348 349 347 349 347 347 341 341 342 340 341 341 341 342 337
332 336 340 341 343 342 342 342 342 344 344 345 343 343 342 341 341 341 342 342 338 335 339 343 344 345 345 346 346 347 348 347 348 347 345 338 338 342 344 345 345 346 345
326 328 332 337 339 343 343 343 344 343 343 343 343 343 344 343 343 342 342 342 342 341 335 335 338 343 344 344 347 347 346 346 346 348 346 345 338 335 336 339 343 346 348
319 321 325 329 334 337 341 343 343 344 345 345 345 345 344 344 344 344 343 343 342 342 342 341 336 334 339 343 340 342 343 343 343 345 345 345 345 344 343 340 339 337 336
314 315 318 322 324 328 332 341 344 344 343 344 345 345 345 345 345 344 344 344 344 344 343 343 343 342 335 333 340 340 342 340 341 341 340 340 341 341 342 340 339 340 340
310 310 312 315 319 321 326 328 341 345 346 345 342 344 345 346 346 346 346 346 346 346 346 345 344 344 343 342 334 331 336 340 338 337 338 339 337 333 335 338 340 339 337
310 309 309 310 311 315 320 325 328 336 342 342 344 344 344 346 345 346 346 347 347 347 348 347 347 346 345 345 345 344 337 332 331 330 330 331 333 332 329 331 332 333 332
310 309 309 309 309 310 314 320 324 327 330 339 341 342 345 345 346 347 347 347 347 347 348 349 349 349 349 348 347 347 346 346 344 342 335 329 326 326 326 330 330 328 327
309 310 310 309 309 309 310 313 319 322 326 328 333 340 342 346 348 347 348 349 350 350 350 350 350 350 351 351 351 350 350 349 349 347 346 343 338 332 328 327 327 327 327
308 308 309 310 309 309 309 311 313 317 321 324 328 331 335 338 343 346 349 352 351 353 353 352 351 351 352 352 352 352 352 352 352 351 348 344 342 340 337 334 333 332 330
307 307 308 308 309 308 308 311 316 314 316 320 322 325 329 330 329 332 339 343 345 347 350 351 350 350 349 350 351 353 353 353 353 352 352 349 344 341 340 339 341 341 338
307 306 307 308 308 308 308 308 315 316 314 317 320 320 322 326 328 329 329 329 335 340 343 344 351 351 351 351 352 353 354 354 353 353 352 352 351 350 348 347 345 345 344
308 308 308 308 308 308 307 308 311 316 316 315 317 320 320 320 322 324 327 329 329 332 341 343 349 353 353 352 353 354 354 353 353 354 353 353 352 352 351 350 349 347 344
307 308 307 308 310 310 311 311 313 315 315 316 316 318 319 319 319 319 321 323 324 326 328 331 342 343 350 352 351 353 353 351 352 354 353 353 352 352 352 352 352 351 350

GFSMW_850_thetae_078.txt.gz
Theta_e
347 347 348 347 342 342 343 346 347 345 343 347 345 346 346 347 348 349 343 341 344 343 341 348 345 347 346 347 342 344 344 342 343 340 340 340 341 341 341 342 342 343 344
346 347 348 348 342 340 343 345 346 339 341 346 346 347 347 347 348 350 346 345 344 343 344 344 345 345 348 340 340 345 344 341 341 343 343 340 341 340 339 340 340 342 342
347 349 348 348 344 340 343 344 342 341 337 347 348 349 350 349 349 349 349 349 343 341 343 341 348 344 346 346 342 343 343 342 345 341 345 344 341 343 341 342 340 341 341
349 349 349 348 346 343 342 345 339 340 337 343 350 350 349 346 347 349 349 351 344 346 341 343 343 343 347 346 344 345 345 343 343 344 344 340 343 343 342 341 340 340 340
349 349 349 347 346 346 345 346 340 338 344 340 346 349 347 348 348 348 350 352 347 343 349 342 342 341 347 345 343 341 341 345 343 342 343 343 345 347 345 341 339 339 340
349 348 348 347 345 347 347 348 347 340 340 341 341 343 350 349 348 348 350 350 351 350 347 345 342 341 349 344 346 340 341 343 345 344 341 343 343 344 345 344 343 343 344
350 349 348 347 346 346 348 349 349 342 341 341 341 342 342 348 351 350 344 350 350 350 350 342 342 345 341 343 345 342 348 342 343 342 346 345 345 347 348 346 344 345 345
352 350 349 348 348 348 348 349 349 344 342 341 342 341 341 349 348 349 348 348 349 351 351 346 346 343 342 342 343 345 344 349 341 345 345 347 346 348 348 349 347 345 345
351 351 349 348 348 349 349 349 350 344 343 343 340 341 341 341 348 348 349 349 350 350 352 352 351 348 347 340 348 349 345 347 348 349 342 345 346 348 349 348 348 347 346
351 351 351 349 348 349 349 350 349 346 344 344 345 342 341 341 340 345 348 350 349 351 351 351 353 350 351 348 339 350 346 341 348 349 349 347 347 348 348 348 348 348 347
349 350 350 351 349 349 349 349 350 351 350 346 345 347 346 341 341 341 338 338 348 350 351 348 348 349 352 349 345 344 351 349 350 350 351 349 349 348 346 347 347 348 348
339 348 349 351 350 350 350 349 349 350 351 351 348 345 344 346 348 341 343 341 340 348 352 352 343 349 352 352 343 348 351 350 352 351 352 351 348 343 344 348 349 348 349
333 337 342 344 347 349 350 349 349 349 349 349 349 346 347 349 344 345 342 343 341 338 347 352 350 344 351 353 345 346 353 353 353 352 353 351 351 351 347 351 349 349 350
330 331 332 336 341 345 348 349 349 349 348 349 350 348 347 347 343 342 342 342 342 341 337 343 352 352 347 352 349 350 347 353 353 353 354 353 351 351 352 352 353 351 351
326 328 329 330 333 338 340 342 344 346 350 349 349 350 351 349 348 343 341 341 342 342 342 339 337 344 352 352 353 355 355 350 349 352 353 352 351 343 345 349 350 352 352
321 323 324 326 328 329 331 340 343 343 344 345 348 351 351 351 351 345 343 346 345 343 342 342 342 341 343 345 349 350 354 355 356 354 354 347 348 344 344 342 339 340 348
316 317 318 320 322 325 326 328 337 343 346 347 349 346 347 352 353 354 351 346 344 348 347 343 344 343 343 342 336 338 345 349 352 354 354 352 349 348 344 343 342 340 339
316 316 315 316 318 320 322 324 327 333 340 344 347 347 347 347 348 350 353 352 351 350 348 346 345 344 344 343 343 342 336 334 341 349 351 353 351 349 351 348 350 346 341
315 315 315 315 317 317 318 322 326 330 329 333 339 342 343 345 347 352 349 353 352 353 352 351 349 347 345 345 344 344 344 343 337 332 334 341 346 342 340 340 345 346 347
314 314 314 314 316 316 316 318 321 325 329 328 329 332 339 342 345 345 348 350 350 350 352 354 353 351 348 347 346 346 345 348 348 347 342 334 331 330 329 330 332 336 335
313 312 313 314 315 315 315 316 319 321 323 325 324 326 330 337 342 344 347 347 351 351 351 352 352 354 353 351 348 348 348 347 349 350 350 350 349 345 342 338 332 328 327
312 312 312 312 313 314 314 315 317 319 321 322 317 319 324 327 330 334 342 345 348 348 349 350 351 354 353 354 351 350 350 350 351 351 351 351 351 351 348 343 343 342 339
311 311 311 311 312 313 313 314 314 315 316 321 321 319 315 321 324 327 329 333 342 346 346 346 350 353 355 358 357 353 352 352 352 352 353 353 354 354 352 348 345 345 345
311 311 312 312 312 312 313 313 314 314 316 319 320 320 319 319 320 324 327 331 332 333 338 346 347 348 352 354 356 357 354 351 351 352 352 352 353 353 353 352 350 346 344
310 310 311 310 308 309 310 312 314 316 315 317 319 319 318 320 320 321 324 324 324 328 329 331 331 341 348 351 354 353 356 356 354 352 353 353 352 353 354 354 353 353 350
309 309 308 308 308 308 309 310 309 313 316 317 317 317 317 317 318 319 320 320 319 320 322 326 328 329 328 331 341 348 353 351 353 352 352 354 355 355 356 356 356 355 354

GFSMW_850_thetae_081.txt.gz
Theta_e
343 345 344 343 343 344 346 348 348 347 347 348 347 344 345 347 348 349 347 349 351 351 343 348 345 348 347 347 347 345 344 343 340 343 342 339 341 342 341 342 342 343 344
346 347 347 345 342 343 345 348 349 349 348 348 347 345 345 344 347 349 351 352 352 349 348 350 347 348 348 344 349 347 345 339 342 345 344 343 341 340 340 340 340 342 342
347 348 349 347 342 341 343 347 349 350 350 349 348 350 349 350 347 350 349 351 351 352 352 344 352 347 347 347 342 342 343 347 341 343 345 346 343 344 341 342 340 340 341
347 347 349 348 343 342 344 347 349 350 348 349 347 348 347 345 346 347 348 351 352 351 351 351 351 344 349 352 343 343 347 346 345 342 342 341 343 348 343 340 339 339 342
347 347 348 349 344 342 344 349 351 351 347 345 350 350 350 348 348 347 351 349 350 351 351 352 351 343 348 345 350 347 342 345 346 343 343 340 341 339 345 340 339 340 341
349 349 349 349 345 343 343 347 351 351 350 348 344 352 352 349 350 346 350 349 351 350 350 351 352 347 351 352 348 351 344 344 348 349 341 344 344 347 346 343 343 343 344
351 350 350 350 345 345 345 347 351 349 350 351 351 348 352 351 354 353 348 350 350 350 350 344 349 349 343 352 353 346 350 344 345 345 346 345 344 343 344 345 342 346 345
349 350 349 349 346 344 346 349 352 354 348 348 351 352 353 351 348 350 348 346 349 349 353 349 351 351 351 352 349 350 349 347 348 345 341 347 345 344 345 348 348 346 344
352 350 350 349 348 346 346 349 351 354 355 353 351 350 352 347 348 348 349 349 350 350 354 350 351 352 352 352 351 350 352 351 348 350 338 344 348 344 345 344 346 348 349
353 352 351 350 349 349 347 348 351 353 355 356 355 355 355 354 345 351 350 349 350 351 350 352 351 353 352 352 350 350 350 348 350 348 350 345 347 346 346 346 346 346 347
344 348 350 350 351 350 350 349 351 352 355 355 355 355 355 355 355 353 352 351 350 352 351 354 352 354 354 353 351 347 352 354 351 348 353 352 347 350 347 345 345 346 347
337 344 347 350 349 350 350 349 349 351 353 355 356 355 355 355 354 355 354 353 352 351 351 352 355 354 353 355 353 352 350 351 353 352 351 351 350 346 344 349 348 349 350
338 343 344 348 348 346 350 350 351 351 351 353 354 355 355 355 354 354 355 352 350 351 351 352 353 355 353 355 354 353 353 355 354 354 353 351 351 351 350 350 348 348 350
332 333 338 341 344 345 347 348 350 350 351 352 353 354 354 354 354 354 353 354 352 351 350 348 352 354 353 352 354 355 350 354 355 354 353 353 351 351 352 351 351 348 347
330 329 329 333 336 341 342 344 347 349 350 351 352 354 354 353 354 355 354 354 354 352 347 348 349 350 352 351 350 352 352 351 354 355 355 352 350 350 350 351 351 351 352
326 327 328 329 328 328 333 340 342 343 343 345 350 351 350 352 355 355 355 353 353 353 353 352 349 348 350 345 346 352 354 352 354 354 353 351 355 355 348 341 337 345 352
322 322 323 324 325 325 326 328 333 337 344 347 348 348 349 351 352 354 353 355 352 354 353 354 355 351 344 347 344 341 347 350 352 352 352 353 349 350 349 345 343 343 342
322 321 320 321 322 322 323 323 327 332 333 338 344 346 347 348 347 351 351 352 352 353 352 353 353 353 353 349 347 345 342 342 340 344 350 352 349 347 353 354 354 352 344
319 319 319 319 321 320 320 322 325 327 333 331 332 337 341 344 345 348 351 352 351 352 352 353 353 354 353 353 351 348 348 346 343 342 339 336 347 350 341 344 352 353 350
317 317 317 318 319 320 319 320 321 324 326 327 329 330 331 335 341 343 344 346 350 350 351 351 352 353 353 353 353 351 351 351 350 350 346 344 342 334 338 345 341 343 338
316 315 316 317 317 318 318 319 320 321 322 324 326 326 328 327 328 335 340 343 345 347 351 350 350 351 352 354 354 353 353 353 351 351 351 351 350 348 347 342 341 337 339
315 315 315 316 316 316 317 318 319 320 319 319 322 326 325 324 327 327 328 332 337 343 347 348 350 351 352 353 354 353 352 351 351 352 352 351 351 350 350 350 350 350 349
315 315 316 316 316 316 317 317 318 318 319 319 319 322 324 324 324 320 327 331 334 335 339 345 348 348 350 352 351 353 354 352 350 350 351 353 353 353 352 352 352 352 351
314 313 313 314 314 313 313 314 315 315 317 320 320 320 322 323 322 323 324 326 330 333 334 337 339 340 346 350 353 353 353 353 353 353 353 352 352 353 354 354 355 354 354
311 311 311 311 311 311 311 311 313 313 314 315 317 320 321 321 321 322 322 323 324 326 325 325 327 329 331 335 343 341 345 351 351 349 353 353 354 353 353 353 354 356 356
310 310 310 309 309 308 308 309 310 310 310 312 313 316 318 318 319 320 320 320 320 320 319 318 319 321 324 328 328 328 328 331 341 344 347 353 354 355 356 356 355 356 356

GFSMW_850_thetae_087.txt.gz
Theta_e
341 341 341 341 347 348 344 345 344 340 344 347 347 346 345 345 348 349 347 345 343 345 347 347 343 346 345 345 341 343 344 344 341 344 345 339 340 341 342 343 343 345 343
342 340 341 341 343 345 343 345 345 343 346 344 347 345 347 345 347 348 346 346 347 347 346 342 342 345 341 347 346 345 345 343 342 341 344 342 341 341 341 341 343 342 343
341 340 342 342 343 345 342 349 345 344 341 343 347 350 348 347 348 349 348 347 348 343 347 348 348 344 338 341 346 344 343 341 342 341 344 346 345 341 340 340 341 339 341
341 342 341 342 342 344 343 345 348 346 338 345 347 348 349 348 348 345 348 346 349 347 346 346 348 345 343 336 346 345 344 343 344 345 342 342 343 344 343 341 340 341 341
346 343 342 343 343 345 345 343 343 347 339 345 347 347 350 350 349 348 348 348 348 349 350 347 343 345 342 343 342 348 345 344 344 347 345 344 345 347 347 343 339 341 342
347 347 344 346 345 345 345 345 342 344 344 347 346 345 346 347 348 347 350 347 346 350 347 347 348 344 343 344 346 348 341 343 345 346 343 344 343 345 346 347 342 341 343
346 348 348 347 346 345 343 343 344 341 342 348 344 347 345 346 347 349 347 348 347 348 347 350 348 344 340 343 344 339 339 340 342 343 341 344 347 347 348 346 347 346 346
344 345 348 349 346 342 342 342 345 334 338 342 345 347 343 348 349 349 348 350 348 346 350 348 346 344 339 347 345 343 337 337 335 338 338 340 344 346 346 348 346 346 348
343 344 347 349 349 343 343 342 344 338 338 334 334 345 343 345 345 351 348 350 347 348 348 350 347 346 348 343 340 343 341 344 344 335 333 335 343 346 345 346 342 345 345
344 345 344 347 350 346 345 342 342 338 339 339 337 338 339 340 340 348 347 349 347 348 349 346 346 344 346 345 344 346 346 349 345 343 340 334 339 344 347 348 347 346 346
351 348 347 347 349 348 348 346 345 341 340 340 340 341 341 341 343 342 345 350 348 350 350 346 348 346 348 346 345 344 348 350 350 346 345 344 337 338 343 348 343 342 346
347 348 349 349 349 347 349 348 348 347 349 347 344 344 346 346 343 343 343 345 349 349 348 345 344 349 346 349 350 346 344 348 348 345 342 343 347 341 337 342 349 347 348
342 344 344 347 346 339 347 348 348 347 348 348 349 345 353 352 350 346 343 342 343 344 345 345 347 342 342 350 347 347 349 345 348 349 348 347 345 341 342 340 343 346 345
339 340 342 342 342 344 346 345 347 341 347 349 348 349 352 350 351 352 354 353 347 345 345 340 339 345 346 347 347 346 348 347 347 347 352 351 349 347 345 345 342 338 336
333 336 341 342 342 343 345 344 342 345 341 347 351 347 346 349 352 351 354 354 354 353 350 348 346 345 346 347 347 346 349 350 350 347 346 348 349 349 350 349 347 346 338
330 328 329 332 336 336 339 341 342 344 342 342 340 339 337 338 347 352 354 352 352 351 354 352 352 349 347 346 347 348 350 348 349 347 348 347 347 349 352 353 354 351 346
327 326 325 325 327 328 334 335 336 337 342 340 341 343 345 347 347 346 348 351 351 353 353 352 354 353 353 349 348 350 353 352 351 351 350 350 349 349 347 348 346 348 349
325 324 323 322 324 326 327 331 331 331 335 335 337 341 342 345 346 345 346 350 349 349 350 352 352 353 353 353 351 348 347 349 350 350 349 350 352 350 348 348 349 352 350
322 323 323 322 322 323 324 326 328 329 329 328 328 329 333 337 340 342 344 346 347 349 350 350 351 351 351 350 352 351 349 349 346 347 348 347 345 344 344 347 346 344 343
320 320 321 321 321 321 322 323 323 324 322 322 325 323 321 322 327 330 333 338 341 343 345 347 347 349 351 351 350 350 350 350 351 352 351 350 349 348 347 347 345 344 343
318 318 319 319 318 318 319 319 320 320 318 316 314 316 319 318 319 319 316 319 325 332 335 338 341 343 344 347 349 350 351 350 350 351 351 352 354 353 351 349 351 351 352
317 318 318 318 318 318 318 319 319 319 317 315 314 315 314 314 315 316 316 317 322 329 331 334 338 343 346 346 345 345 347 349 349 349 350 351 352 352 353 354 353 353 353
317 318 318 319 318 318 316 315 315 314 314 313 312 311 312 317 318 319 319 322 324 324 325 332 332 334 336 336 335 339 342 346 347 348 350 350 350 350 350 351 350 351 353
316 315 316 315 315 314 312 311 311 311 311 310 310 313 313 316 319 321 323 324 324 323 323 323 325 327 328 324 317 318 322 329 334 339 344 345 348 349 348 348 349 348 348
314 313 313 313 313 311 309 308 308 308 307 308 308 310 311 313 315 319 319 319 320 319 319 320 319 319 319 318 319 319 318 318 320 323 327 331 335 339 338 343 348 349 349
313 313 312 312 310 310 309 307 305 306 305 305 306 306 307 308 309 310 311 316 315 317 318 319 318 318 318 319 320 320 320 320 319 317 319 322 322 323 328 328 331 346 347

GFSMW_850_thetae_090.txt.gz
Theta_e
344 346 348 347 347 344 342 340 342 343 344 345 345 345 346 345 347 347 347 344 344 345 344 344 344 344 344 343 343 344 345 342 341 343 344 341 340 342 343 344 343 344 342
342 346 348 348 346 344 344 344 342 341 344 344 345 345 345 347 346 346 346 345 341 343 347 345 341 344 343 342 344 345 342 341 342 342 343 340 339 340 341 342 343 342 342
342 343 344 346 346 345 344 344 343 342 342 344 346 346 347 347 346 348 344 345 346 343 346 341 345 346 340 341 343 344 343 341 343 342 345 345 343 342 341 339 341 342 340
341 341 342 343 343 342 344 342 343 344 343 341 346 348 348 347 345 343 345 345 347 345 345 345 344 342 338 342 345 344 343 343 343 342 343 344 345 345 342 340 341 339 341
340 341 341 341 341 341 342 341 342 345 343 340 345 347 349 347 346 345 349 345 346 348 345 345 344 345 341 338 345 344 345 344 343 344 343 343 346 347 347 345 340 340 341
343 341 342 342 341 341 342 342 341 342 345 340 346 347 349 348 348 348 347 348 345 347 349 346 343 344 343 342 339 342 344 343 344 345 344 344 346 346 347 346 342 340 341
343 346 344 344 344 343 343 344 343 342 340 340 346 346 347 348 347 346 346 348 347 345 349 345 345 343 342 343 345 340 342 340 343 343 342 343 345 348 347 346 345 347 346
345 346 347 346 346 344 344 345 344 343 339 337 344 346 347 345 345 345 348 348 346 344 342 346 345 342 340 341 344 341 335 336 337 340 341 339 339 346 346 348 343 345 347
345 346 346 347 347 347 346 344 342 339 336 333 342 344 346 346 344 348 346 349 347 346 346 348 349 347 342 341 344 343 340 334 333 334 335 335 335 341 345 348 346 346 347
343 344 346 346 347 347 346 345 342 340 331 333 336 340 344 344 344 348 348 348 348 347 347 346 349 341 340 346 342 340 340 340 342 341 339 335 332 338 344 347 348 345 345
341 342 344 344 343 347 346 347 345 344 341 336 332 334 341 339 338 338 348 348 349 346 348 350 346 345 337 342 344 344 344 344 342 344 338 337 337 338 339 344 346 347 346
348 348 344 343 345 347 346 347 346 344 342 340 339 336 337 339 340 340 345 345 346 349 348 350 346 343 345 347 346 348 342 345 348 346 340 340 345 342 339 339 340 343 347
346 347 346 347 348 347 346 343 344 345 343 341 341 341 341 341 341 342 343 345 344 344 349 349 348 346 346 346 348 348 349 347 343 346 348 343 341 341 338 336 337 338 343
342 343 345 346 347 346 344 341 342 345 343 344 343 344 344 343 343 343 344 343 344 345 344 344 344 344 347 346 348 349 345 346 348 344 346 349 351 347 346 347 347 343 339
339 342 343 342 343 342 342 341 342 341 341 339 342 343 343 344 344 345 345 348 348 347 346 346 347 343 342 344 345 347 348 347 347 350 348 346 345 348 348 348 349 351 348
334 337 340 341 342 343 343 343 344 344 337 338 342 341 342 344 344 345 346 350 351 349 349 350 350 349 349 347 345 346 348 347 348 347 349 348 349 347 348 347 350 349 348
326 327 329 334 335 337 340 341 342 342 342 342 341 340 342 341 340 340 345 346 347 348 347 348 347 351 348 349 348 347 346 346 352 353 352 351 350 350 348 348 348 347 348
324 324 324 326 330 333 331 332 332 333 334 336 338 341 341 341 339 341 341 341 343 344 348 349 348 348 348 352 351 351 349 347 348 350 351 350 348 347 346 347 346 342 342
322 322 323 323 327 331 331 329 329 329 330 330 331 332 332 340 338 339 341 343 342 342 343 347 347 348 349 349 350 350 349 349 350 347 346 348 349 349 349 349 347 345 343
323 322 321 322 322 323 325 326 326 326 327 327 326 325 326 329 329 328 325 325 329 337 338 341 343 345 346 346 347 350 350 350 350 350 348 350 350 349 348 349 349 349 347
319 319 320 319 319 320 321 321 321 320 318 316 316 319 321 322 322 319 317 318 326 329 332 337 340 341 343 344 344 345 346 348 349 349 350 350 350 350 350 350 350 350 351
318 318 318 318 318 318 318 317 316 315 315 314 313 313 314 314 314 315 316 318 323 325 328 335 339 339 337 338 333 335 338 341 343 345 347 348 349 349 349 350 349 349 350
317 318 317 318 318 318 317 315 313 313 311 311 310 310 310 311 314 315 316 320 323 323 324 326 328 328 326 325 323 320 318 319 327 335 339 340 341 344 345 346 348 349 349
317 317 317 317 317 316 314 311 310 309 309 308 309 310 311 312 315 318 320 321 321 322 321 321 321 322 322 320 319 318 318 318 318 318 319 322 330 334 337 336 335 337 339
317 316 315 314 313 312 309 308 307 307 306 307 307 307 308 310 312 314 317 318 317 317 318 318 318 318 318 318 318 318 318 319 319 318 318 317 317 320 323 324 323 323 327
316 314 311 311 310 308 307 306 305 305 305 305 305 305 305 305 305 306 308 309 311 313 313 314 316 317 317 318 318 318 318 319 319 318 317 316 316 315 315 316 318 320 322

GFSMW_850_thetae_093.txt.gz
Theta_e
345 344 347 346 346 344 344 345 346 343 342 344 346 344 346 344 344 343 342 342 342 343 343 345 344 344 344 343 343 344 345 343 341 342 343 340 339 340 341 343 343 343 342
347 346 347 347 345 345 344 343 345 343 344 344 345 344 346 346 346 347 348 345 341 343 345 343 343 344 343 341 343 343 341 342 342 342 342 339 339 340 340 342 341 341 341
348 348 347 346 347 344 341 340 343 341 344 344 344 345 346 346 346 346 345 344 343 344 343 345 341 344 343 343 343 344 342 343 342 343 343 344 344 341 340 340 340 340 340
346 346 347 346 346 344 343 342 342 339 341 342 344 345 345 345 345 345 346 346 345 345 343 345 342 345 342 343 342 342 343 344 343 342 343 344 346 345 342 339 340 339 340
344 347 346 344 346 344 343 343 343 342 343 340 344 343 345 345 346 343 344 345 345 344 344 344 344 345 342 339 344 341 344 343 345 343 343 346 347 346 346 345 340 339 341
342 347 346 347 346 345 344 343 343 342 343 341 344 344 345 345 345 346 347 346 345 346 346 347 344 343 346 342 339 342 341 343 344 344 344 346 347 347 346 345 345 340 341
341 345 346 346 346 345 342 343 343 343 343 342 339 344 345 346 346 347 347 347 346 344 343 346 342 341 344 342 342 338 340 342 342 343 342 340 342 346 347 346 344 346 345
341 342 343 345 346 345 342 342 342 342 342 343 339 342 345 347 346 347 345 346 347 347 345 343 342 340 342 343 341 342 341 339 340 341 340 339 336 341 345 347 344 344 345
343 342 344 342 343 345 343 343 343 343 342 340 340 342 344 344 345 344 343 347 347 345 344 344 346 346 341 340 341 343 343 339 336 335 336 337 336 335 342 345 347 345 345
345 345 346 345 345 345 344 345 344 344 344 343 339 339 344 344 344 345 347 346 347 347 345 347 347 349 347 342 340 341 341 341 338 341 341 337 336 334 337 343 344 347 345
343 344 345 346 346 346 346 346 346 345 345 344 341 337 342 343 345 343 347 349 347 347 345 347 348 347 345 341 344 343 343 343 343 344 341 341 340 341 340 340 341 342 344
343 342 343 345 345 346 346 346 346 346 344 342 344 338 338 343 344 342 339 340 347 347 345 347 347 346 346 344 345 344 344 343 343 348 346 342 342 345 344 344 340 339 340
346 346 344 343 345 344 344 345 346 345 345 343 341 342 339 337 338 339 340 341 343 344 345 349 349 347 346 342 345 346 344 347 346 343 343 345 346 345 344 342 342 342 344
344 347 346 345 344 345 345 345 343 341 344 343 342 341 341 340 341 341 342 342 343 343 344 347 347 347 348 347 347 348 348 347 345 346 347 343 346 347 346 346 345 349 349
341 343 344 346 346 345 344 344 342 340 343 339 341 343 344 342 342 342 343 342 343 344 343 344 346 348 347 343 344 346 347 348 348 345 347 348 347 345 344 345 345 348 348
339 340 342 342 343 342 342 341 339 339 337 340 340 339 339 341 342 342 342 343 344 344 345 345 347 345 345 348 346 347 346 349 351 347 346 345 348 349 349 348 348 345 347
336 338 339 341 340 342 343 343 342 342 340 339 340 341 339 338 340 340 340 341 343 343 345 345 345 346 346 345 345 346 345 344 343 344 348 350 350 349 349 348 347 349 349
332 334 334 337 339 338 340 340 340 341 340 340 340 341 341 339 338 339 340 340 340 341 342 344 344 344 344 345 345 345 347 347 348 347 346 346 347 349 349 349 347 345 344
324 328 332 332 332 333 334 335 335 336 336 336 336 337 339 340 340 338 337 339 338 339 340 341 341 342 343 346 347 347 347 348 349 348 347 349 348 346 346 347 348 348 347
323 325 329 332 331 329 329 329 329 329 330 329 329 329 332 335 335 336 337 336 336 336 336 338 339 341 343 344 345 346 345 347 347 348 348 349 349 348 348 348 349 349 349
321 321 322 323 324 324 324 325 324 322 320 321 323 324 324 325 325 323 324 328 328 331 334 337 340 337 337 336 334 341 343 342 343 345 346 347 348 348 349 349 349 350 349
320 320 320 319 318 318 317 317 316 316 315 315 314 314 315 316 317 318 318 321 325 327 332 336 336 333 332 333 334 335 331 324 324 331 336 338 340 341 341 341 342 343 345
318 318 317 317 317 316 316 315 314 312 311 310 310 310 310 312 315 316 318 320 322 322 324 327 328 328 326 326 328 327 325 321 319 319 319 323 324 326 330 330 331 332 332
317 317 317 317 317 316 315 312 310 309 308 308 308 309 311 311 312 315 316 318 319 320 320 320 321 321 321 322 321 320 319 318 317 317 318 318 318 317 317 318 319 320 321
317 317 316 315 314 313 311 308 307 306 306 306 307 308 308 309 310 312 314 316 316 317 317 317 317 317 317 317 317 316 315 315 314 314 314 314 314 313 314 315 315 316 317
316 316 315 314 311 310 308 306 305 304 305 305 305 305 305 305 305 305 305 306 308 308 310 311 312 311 311 312 313 314 315 315 315 315 315 315 315 314 314 314 312 313 318

GFSMW_850_thetae_099.txt.gz
Theta_e
346 347 347 345 342 342 343 343 343 344 344 342 339 341 343 343 342 341 341 342 342 343 343 344 342 343 343 343 343 343 341 340 340 338 339 339 340 340 341 341 341 339 336
346 346 347 346 346 341 341 343 344 343 344 341 342 343 344 344 343 342 343 343 341 343 341 342 343 342 342 341 343 342 341 341 341 338 339 343 342 339 339 339 340 338 339
346 347 345 346 346 345 342 342 343 343 342 342 342 345 344 345 344 345 346 343 342 339 341 340 342 344 343 341 343 342 341 342 342 341 342 346 345 341 339 338 338 337 342
346 347 346 343 346 345 343 342 343 343 342 342 344 343 344 344 345 344 343 343 342 343 342 343 341 342 344 342 342 342 342 344 343 342 344 345 346 349 344 341 339 337 340
345 347 347 343 344 346 344 342 343 343 343 343 344 343 344 344 345 345 343 343 343 344 341 343 340 342 342 340 342 342 341 343 343 344 345 345 346 345 347 345 345 340 341
345 346 348 346 344 346 344 343 341 342 344 343 343 343 344 343 344 344 343 345 344 344 343 344 342 342 343 342 340 344 340 342 343 343 342 344 347 348 350 348 345 342 342
345 347 347 345 347 345 345 343 341 340 344 343 343 343 341 343 343 343 345 346 345 343 343 344 343 342 341 344 340 338 341 340 342 342 342 340 338 344 345 347 346 345 346
345 347 347 345 345 345 345 344 342 341 343 341 343 342 342 343 342 343 345 346 346 346 346 344 343 342 341 342 343 342 340 338 338 340 341 341 339 337 338 344 346 348 348
345 343 347 346 347 346 344 344 343 342 342 340 342 342 341 343 342 343 346 345 345 346 346 345 343 343 341 342 341 342 341 342 342 336 338 338 337 338 337 336 341 344 348
346 346 343 345 346 346 345 345 345 343 343 341 342 343 342 339 341 344 344 344 345 346 347 347 345 345 345 346 346 342 341 341 342 340 337 337 337 336 337 337 335 339 345
345 347 344 344 346 343 343 343 344 345 344 343 343 343 343 343 340 343 343 344 346 345 345 345 344 346 347 346 343 341 340 341 339 340 340 342 340 340 341 339 339 339 340
346 345 345 345 346 343 342 342 342 344 345 344 345 345 343 342 342 341 343 343 345 346 346 345 344 345 345 346 344 340 341 341 340 342 343 344 345 343 341 343 343 344 343
344 344 345 345 345 343 342 343 343 343 344 344 344 344 343 343 343 340 341 343 343 341 342 340 343 343 343 346 345 343 343 342 342 341 341 341 342 341 344 343 342 348 346
346 344 343 343 343 342 343 344 345 344 344 343 344 343 342 341 343 340 338 339 341 340 340 341 342 342 342 346 346 347 347 344 345 344 343 343 343 344 342 345 343 344 344
344 344 344 345 346 345 344 344 342 343 342 342 343 341 343 340 343 342 339 339 339 340 340 341 342 343 343 345 346 348 347 345 345 343 343 344 343 344 346 346 343 343 343
344 343 343 344 344 345 345 344 342 343 343 342 343 341 342 342 342 342 342 341 342 341 342 342 342 343 342 340 341 344 345 344 343 343 342 342 342 344 342 345 347 349 348
342 344 344 343 343 344 344 344 345 344 344 342 342 343 341 340 339 339 339 340 341 341 341 342 342 342 343 343 343 344 342 342 342 343 343 343 343 343 345 346 346 347 347
339 340 342 343 343 344 344 345 344 344 343 342 341 340 341 340 339 339 338 338 338 339 338 338 340 340 340 342 343 343 344 344 345 344 345 347 346 345 346 346 346 345 344
337 340 341 342 341 341 342 343 342 341 340 340 340 339 340 339 339 339 339 339 340 338 337 337 337 338 338 339 340 341 342 342 342 343 343 344 345 344 344 345 345 346 347
336 338 337 337 339 338 339 340 339 338 337 337 338 337 338 339 336 335 336 336 337 337 336 336 337 337 338 338 338 340 340 341 341 341 340 340 340 340 340 341 342 343 343
334 335 334 334 333 332 333 334 332 332 331 331 330 330 332 332 331 330 330 332 334 335 336 336 336 337 338 338 337 338 338 335 334 335 332 329 326 332 328 329 330 333 334
332 330 330 328 325 323 324 325 324 323 321 320 321 321 321 321 321 320 321 326 330 332 333 335 335 336 335 336 333 330 336 331 328 327 325 324 321 322 319 318 317 317 317
326 325 325 324 322 319 316 315 314 313 313 313 313 313 314 314 315 317 320 324 329 330 330 329 329 328 327 326 327 327 325 323 320 319 321 320 320 316 313 313 314 313 313
324 322 320 318 316 315 314 313 312 311 310 309 309 309 310 310 311 314 316 319 320 321 321 321 321 322 322 322 321 320 318 317 316 315 314 313 312 311 311 311 311 311 311
318 317 316 317 316 314 312 311 309 308 308 308 308 308 309 309 310 311 312 313 314 315 316 316 316 315 314 313 312 310 309 307 307 306 306 306 306 305 305 305 305 306 307
317 317 317 315 314 313 311 308 307 306 306 306 306 306 307 307 307 308 309 310 310 309 309 310 308 307 305 304 303 303 303 303 303 303 303 303 303 303 303 303 303 304 304

GFSMW_850_thetae_102.txt.gz
Theta_e
346 347 348 347 347 347 347 347 347 348 348 347 347 348 347 349 349 349 342 342 348 345 346 349 347 349 349 346 348 348 345 343 343 344 342 341 342 342 343 343 343 343 344
346 347 348 348 347 348 348 349 349 341 347 348 348 348 346 347 347 348 348 349 348 342 345 349 349 349 349 345 344 343 346 345 343 344 344 342 341 342 341 342 342 343 344
345 347 348 348 349 348 349 349 350 346 348 349 350 346 350 349 350 348 348 349 348 349 344 342 348 344 347 348 347 346 344 345 348 342 348 343 344 342 340 342 341 342 345
347 345 347 349 349 349 349 349 349 343 344 343 350 350 347 348 350 350 349 348 345 349 346 342 343 343 349 345 347 348 349 347 347 348 350 347 348 345 342 341 342 341 342
346 347 347 348 349 350 350 349 350 344 348 342 349 345 348 348 349 350 347 348 344 347 351 346 341 342 348 342 344 348 347 349 348 348 349 351 352 348 345 343 344 341 343
345 346 347 348 349 350 350 350 351 343 342 343 342 348 347 350 349 349 349 348 348 347 347 346 341 340 350 343 344 342 342 346 348 349 348 348 348 349 347 346 347 346 347
347 345 348 350 349 350 350 349 350 342 343 343 344 343 348 346 345 348 348 351 351 349 345 348 343 347 342 343 342 341 346 346 348 344 349 348 348 349 350 349 348 347 348
347 347 347 349 350 350 351 349 349 350 346 349 348 342 343 346 345 346 352 348 350 349 352 348 349 343 343 345 344 349 347 349 345 347 344 348 348 348 348 349 348 347 347
347 347 348 350 350 350 351 350 350 350 350 349 349 344 346 347 349 349 344 351 345 352 345 349 349 348 343 342 344 349 344 347 342 349 340 345 348 348 348 348 347 347 346
346 347 348 349 348 349 351 351 350 351 350 348 349 349 348 347 344 346 343 347 346 347 347 346 348 350 349 345 345 349 345 340 348 347 350 338 347 348 347 347 346 347 346
348 347 347 349 350 351 350 348 351 352 351 349 348 348 349 348 348 348 347 349 343 344 345 346 343 345 345 348 347 345 351 349 350 348 350 349 345 346 346 345 346 346 346
348 348 345 345 349 350 347 346 346 349 351 350 350 344 347 349 347 348 348 349 344 347 344 345 344 343 345 345 346 350 349 349 349 349 350 350 348 350 349 348 349 347 349
349 349 350 348 346 346 345 344 343 343 343 348 350 345 345 347 348 348 348 348 344 347 350 345 344 344 344 343 344 348 351 351 350 349 350 349 350 350 349 349 350 347 349
350 350 351 351 350 348 344 343 343 342 343 343 347 348 348 349 349 349 349 349 344 342 347 344 348 347 344 342 344 345 347 350 350 351 350 350 350 351 350 350 350 349 349
349 349 349 350 350 349 347 343 343 343 343 343 344 343 343 343 343 347 347 347 347 341 339 349 349 346 348 347 345 346 346 351 351 351 350 350 350 345 345 347 347 346 349
348 349 349 350 350 346 345 344 343 344 344 344 343 342 343 343 342 344 344 340 341 344 341 342 343 345 348 343 341 342 347 351 352 351 351 350 348 348 343 344 343 345 347
346 348 349 349 349 349 347 347 345 343 342 342 340 339 341 339 339 342 343 345 344 344 343 344 346 342 343 343 343 343 343 347 351 351 351 351 346 341 342 343 344 346 346
343 343 344 344 344 344 345 346 345 344 344 344 342 342 341 341 341 341 340 340 339 339 343 340 341 341 341 341 342 344 345 345 343 343 343 344 343 343 343 344 344 346 349
341 341 342 344 344 343 343 344 345 345 345 343 343 343 341 341 340 339 338 338 337 339 341 339 338 337 338 339 340 341 342 342 344 344 343 343 341 341 340 340 340 341 343
339 341 341 342 341 341 343 343 344 344 342 341 339 340 339 339 339 339 339 339 339 340 340 339 337 337 337 338 338 338 340 341 341 341 339 338 337 336 337 337 336 337 338
336 337 338 338 339 339 339 340 339 339 339 339 338 337 336 335 334 333 334 336 336 336 336 337 337 337 337 337 338 339 339 338 335 335 332 331 330 326 324 323 322 322 323
331 331 332 331 330 330 331 331 331 330 330 329 329 329 329 326 325 325 328 332 336 337 336 335 335 335 335 334 330 329 329 332 332 331 329 325 322 320 318 317 316 315 317
328 327 326 324 323 322 320 319 320 319 318 318 319 319 319 320 321 325 328 330 332 331 331 327 325 328 326 328 330 329 329 326 327 325 321 321 319 316 317 315 311 314 322
323 322 322 319 316 315 314 313 312 312 312 312 312 312 314 315 318 319 322 322 323 323 322 321 320 324 326 325 323 322 320 319 318 317 315 313 311 311 312 316 318 319 318
319 318 316 316 315 313 312 311 310 310 312 312 313 312 313 314 312 313 315 317 318 318 317 317 317 315 314 316 315 313 312 311 309 307 305 305 305 306 308 313 311 312 308
317 317 316 315 314 312 310 308 307 307 310 312 312 312 313 312 311 310 311 312 312 313 313 313 312 312 309 307 305 304 303 303 303 303 304 303 303 303 303 303 303 304 304

GFSMW_850_thetae_105.txt.gz
Theta_e
345 345 345 343 344 346 346 345 347 346 348 346 347 347 348 347 348 349 348 349 350 350 348 350 347 350 348 348 349 351 344 343 341 347 342 342 344 345 345 344 344 341 344
346 346 346 346 344 346 346 346 349 348 349 347 347 347 347 347 348 349 350 351 350 351 347 350 350 350 350 351 353 348 350 343 343 346 345 342 343 343 343 343 342 343 344
345 346 347 347 347 346 347 348 349 349 349 348 349 350 348 350 347 348 350 350 351 350 353 350 355 344 349 349 352 346 349 345 343 346 352 346 346 342 342 342 343 343 346
344 346 347 347 347 347 347 350 350 352 346 354 348 349 349 347 348 349 348 350 350 351 350 351 352 349 352 349 346 348 348 351 344 344 346 345 349 353 343 341 343 342 344
344 343 346 345 346 348 347 348 351 351 351 350 350 351 347 350 350 349 350 352 351 350 349 351 352 351 349 347 352 346 352 348 349 347 346 343 347 340 347 345 345 342 342
346 346 345 346 345 348 347 348 351 351 351 352 352 351 350 350 350 349 350 351 349 351 350 350 351 350 350 348 348 352 344 353 350 350 345 347 348 349 349 346 344 345 347
347 345 346 346 346 349 349 347 351 351 351 352 351 352 352 351 350 349 349 350 351 348 349 351 351 350 344 353 351 345 354 345 351 348 353 344 345 346 348 347 349 345 346
348 346 346 348 347 347 348 347 351 351 351 351 351 351 351 349 347 349 351 351 351 349 350 350 351 350 352 352 352 349 342 349 348 351 347 352 346 345 346 347 347 346 347
343 347 345 348 346 347 347 349 352 352 351 352 352 351 350 348 349 348 350 353 351 349 354 351 351 351 351 352 352 349 351 354 349 349 345 341 348 345 346 346 346 346 345
345 347 347 347 346 349 349 350 350 351 350 349 349 350 350 350 351 351 349 346 351 349 353 352 353 353 353 353 350 350 348 350 350 347 349 349 348 350 347 346 345 345 345
348 346 349 349 348 350 350 351 350 350 350 350 349 349 347 347 347 347 348 351 348 343 348 348 352 351 354 354 349 349 350 353 351 350 351 349 350 350 348 349 347 345 344
349 347 344 348 353 352 351 352 353 352 349 350 351 350 350 348 347 347 348 350 350 351 347 355 354 351 353 352 351 352 351 351 351 351 351 351 348 353 351 350 348 346 344
349 347 346 346 350 354 355 353 352 351 352 352 352 351 350 349 348 347 347 349 351 352 352 350 349 351 352 352 349 353 351 351 350 349 351 351 351 351 351 351 349 349 351
349 351 350 349 349 349 347 348 348 347 346 348 348 350 352 350 350 348 347 349 351 350 350 351 351 353 351 352 351 352 352 353 352 351 351 350 351 352 353 352 352 350 350
351 350 352 350 349 350 348 348 345 343 341 342 343 342 346 350 350 350 351 349 348 348 349 350 350 351 350 349 351 352 353 353 352 351 351 349 350 350 348 345 350 349 350
352 352 353 352 351 352 352 349 349 344 343 343 343 342 344 345 346 349 349 346 348 348 349 350 351 351 349 346 346 344 350 350 350 351 352 349 350 349 345 340 341 342 341
350 351 350 350 351 352 352 349 347 344 343 343 343 343 343 343 343 344 344 346 346 346 347 348 348 346 343 342 343 343 342 349 351 351 350 349 350 347 347 344 343 345 346
349 348 350 350 350 350 350 350 348 347 344 345 343 340 340 340 340 339 341 342 340 345 346 347 345 342 341 342 342 343 345 347 346 346 345 344 344 343 343 343 348 348 348
343 344 344 346 348 349 348 348 348 346 345 345 343 343 342 341 340 341 341 341 340 341 341 342 339 339 339 340 340 342 344 345 344 344 344 344 343 342 341 339 339 340 342
340 341 342 343 343 343 345 345 344 345 345 345 344 342 342 341 341 340 339 339 338 338 337 334 340 339 338 337 338 340 345 345 341 341 341 341 339 337 335 334 333 332 328
338 340 340 341 342 341 342 343 343 343 343 343 343 340 340 339 339 340 339 338 339 339 340 340 338 337 336 336 337 338 338 338 336 335 332 335 333 331 328 325 323 320 318
333 333 335 334 331 333 335 334 335 333 335 337 337 338 336 335 334 334 335 336 337 338 337 336 336 336 336 337 337 337 336 336 334 332 330 329 327 324 319 317 316 313 315
329 328 327 326 324 324 326 329 328 328 328 327 327 328 327 328 328 327 329 333 335 334 334 331 326 327 333 333 331 330 329 329 328 327 324 323 319 317 318 317 314 322 324
324 322 318 317 317 317 317 313 315 315 317 318 319 320 322 325 327 328 328 330 330 329 329 328 326 322 327 327 327 326 324 322 320 318 315 313 311 313 314 319 320 320 316
317 316 316 314 313 312 311 311 312 311 312 315 315 316 317 321 320 320 321 322 324 325 324 324 322 321 319 319 319 318 315 313 311 308 309 306 307 308 310 312 309 309 309
317 315 314 313 312 311 309 307 307 308 309 314 315 316 317 317 315 313 313 313 315 318 319 318 316 315 315 313 310 308 306 305 304 309 312 310 308 310 307 306 304 306 304

GFSMW_850_thetae_108.txt.gz
Theta_e
343 343 344 345 347 346 345 345 345 344 343 346 346 347 344 347 346 347 349 350 349 347 350 348 346 342 346 342 340 350 346 343 343 348 342 341 344 346 345 345 344 343 347
345 343 344 345 346 346 345 345 346 342 344 346 348 347 346 347 348 349 348 350 348 344 350 351 350 350 349 340 345 350 353 344 343 348 349 342 344 344 344 344 344 344 344
344 345 345 344 344 346 347 342 347 341 344 349 347 348 347 349 348 348 349 348 348 344 350 350 346 347 349 349 343 348 350 346 340 348 351 352 349 344 342 341 343 340 346
346 347 346 345 345 347 346 345 349 341 347 349 346 346 350 350 349 348 347 349 348 349 345 349 351 348 349 348 348 346 348 349 350 344 344 345 342 345 340 343 344 343 346
346 346 344 347 347 346 347 347 349 346 346 344 349 347 347 348 347 349 349 351 347 350 349 347 347 349 352 348 348 343 348 350 350 349 347 342 349 348 347 344 345 342 343
347 347 343 348 348 346 347 349 346 346 346 347 346 348 350 341 348 347 348 348 348 342 348 351 351 346 349 346 344 344 346 349 347 347 345 350 345 347 344 342 345 346 341
346 347 345 348 348 347 347 349 348 344 346 351 346 351 347 350 349 349 350 349 351 352 349 348 346 345 344 349 345 345 346 344 341 344 350 347 347 342 346 348 347 337 342
344 346 345 346 349 349 346 349 350 343 347 349 349 350 353 351 349 351 348 345 343 349 350 344 347 347 351 346 350 346 343 347 342 342 345 349 348 347 345 346 344 347 348
341 346 346 346 346 351 349 350 348 346 349 350 348 347 348 350 349 347 347 342 339 348 349 350 351 351 351 348 352 344 351 349 349 344 340 339 340 348 350 347 345 346 347
343 348 346 345 345 350 345 345 351 348 348 351 349 346 346 345 351 348 344 344 341 347 347 351 350 349 351 350 347 348 350 345 345 346 349 349 345 344 351 348 349 345 344
341 348 348 350 348 346 345 350 353 349 349 346 351 350 345 349 343 348 347 346 347 347 344 346 352 350 349 352 350 345 348 350 346 343 348 349 344 338 343 343 345 345 346
347 347 344 351 350 348 349 346 352 349 350 344 349 347 348 347 348 347 348 343 349 348 347 347 346 345 347 349 348 345 349 350 347 348 348 347 350 349 350 347 352 349 350
351 348 346 347 348 347 346 352 349 350 349 347 349 346 348 350 347 348 346 347 349 348 346 349 347 349 349 350 346 344 346 351 351 349 349 351 352 349 348 347 346 344 348
351 350 348 348 346 342 338 346 339 350 351 344 349 344 349 349 346 347 348 348 348 348 347 351 349 348 346 350 352 347 346 346 350 350 348 348 348 349 348 349 348 349 350
351 350 349 349 346 347 343 350 350 354 351 352 352 350 349 350 348 348 348 347 349 350 345 349 348 349 350 350 350 350 349 347 346 347 351 350 349 349 348 348 346 342 340
351 352 352 351 350 348 349 348 344 349 350 348 343 341 341 343 344 348 348 347 347 347 348 345 348 346 347 347 348 349 345 348 350 343 349 349 348 348 344 341 338 341 342
353 352 353 353 352 351 350 347 348 347 347 345 343 343 343 343 343 346 345 345 345 345 345 349 350 345 343 338 340 344 345 344 343 348 346 346 348 350 346 343 343 345 348
351 352 351 352 351 349 349 350 351 350 348 346 343 343 343 344 344 343 343 343 343 341 342 346 341 341 341 341 341 342 343 344 342 346 348 346 343 344 344 344 344 345 345
346 347 350 350 350 350 350 349 350 348 346 346 344 343 340 341 342 342 341 340 342 339 337 334 337 340 341 340 340 341 345 344 346 344 343 343 343 343 343 341 339 338 338
343 343 343 346 349 349 349 349 348 349 347 346 345 344 343 342 341 340 341 340 341 340 338 340 338 336 339 338 338 340 340 345 342 341 341 342 341 339 337 335 332 327 325
339 340 341 342 342 343 343 343 346 347 346 345 345 343 342 341 340 341 339 340 339 339 338 338 337 333 337 337 337 340 342 341 341 339 336 335 332 329 329 327 324 320 316
331 333 336 337 338 340 341 342 342 340 342 343 342 342 340 339 340 340 340 339 338 338 339 339 340 337 336 336 336 337 337 337 337 335 333 331 328 325 322 319 316 313 315
326 327 329 329 328 328 331 334 331 331 334 334 334 333 333 336 336 336 336 336 336 337 337 336 335 334 334 334 335 334 332 332 331 329 327 326 323 318 315 315 315 317 319
320 321 322 321 317 314 317 320 323 324 326 328 328 328 329 331 328 329 332 332 332 332 332 331 328 326 328 331 329 328 328 328 326 322 318 316 313 311 312 315 316 316 316
315 314 313 311 311 312 314 315 313 314 314 315 318 317 322 324 327 328 328 330 330 330 329 328 328 325 322 322 321 322 320 317 314 311 310 310 308 310 313 314 313 307 305
314 313 312 311 311 310 308 308 310 312 312 316 316 316 318 317 316 320 323 323 324 326 326 325 325 322 321 319 316 312 310 309 307 307 314 312 311 311 308 307 308 307 305

GFSMW_850_thetae_111.txt.gz
Theta_e
341 341 345 344 345 340 344 345 343 342 341 346 348 347 344 346 348 348 346 344 347 347 347 343 338 347 345 344 340 345 344 343 343 344 344 345 344 344 345 345 343 344 347
342 342 345 346 346 340 344 344 344 342 342 344 346 346 345 347 346 347 347 345 346 347 347 344 345 347 345 341 346 350 350 343 342 348 348 343 343 345 344 344 345 343 345
342 344 345 345 346 341 346 344 343 341 343 347 348 347 346 348 347 346 345 346 346 345 346 348 347 347 348 343 347 347 349 342 345 345 347 349 349 347 345 344 344 343 345
344 345 346 346 345 343 341 345 344 342 343 348 348 347 347 347 347 348 346 346 345 345 346 346 347 345 348 348 347 348 350 350 350 347 348 345 345 342 342 344 344 343 345
345 345 345 345 344 345 343 343 343 343 345 347 348 348 347 349 348 347 347 347 347 347 346 345 346 345 348 345 347 346 345 350 349 347 349 347 345 344 336 337 339 342 344
346 346 346 345 346 345 343 342 341 343 344 346 348 345 344 349 347 348 345 347 347 349 347 348 346 346 346 348 344 345 343 346 346 347 348 345 344 343 340 335 337 338 341
346 347 346 347 346 347 346 345 343 342 339 344 346 345 347 344 343 343 341 347 346 345 348 348 348 345 342 348 339 339 340 344 343 342 349 348 347 345 341 337 343 341 342
346 346 346 346 347 347 347 347 347 343 340 342 342 346 347 348 346 344 342 348 347 349 348 348 347 344 344 345 344 342 342 339 339 338 341 342 341 346 347 347 346 344 345
346 346 345 347 347 347 348 348 347 346 342 340 345 344 351 349 349 348 347 346 341 346 347 348 347 349 348 348 347 343 347 347 345 345 337 340 341 340 350 349 347 346 346
346 345 346 347 345 347 348 350 347 347 343 340 344 346 347 349 349 347 347 345 340 338 345 347 349 349 349 345 346 345 346 346 342 343 346 344 343 342 339 348 347 346 345
342 341 344 347 348 348 348 348 351 348 346 345 343 345 344 344 349 346 343 341 340 344 338 348 350 347 349 349 349 345 345 349 347 343 345 346 347 342 346 340 339 343 345
342 340 341 346 346 345 346 349 349 343 347 342 349 348 346 341 344 343 344 343 347 344 344 347 349 348 348 346 345 347 343 347 347 347 347 344 342 347 348 345 348 349 347
343 343 346 346 346 347 346 348 347 347 347 343 346 349 346 344 344 346 344 348 345 348 345 345 345 347 344 348 346 343 343 351 348 349 349 346 348 347 343 345 343 346 342
344 344 348 348 348 347 345 342 349 351 349 349 344 350 344 346 345 346 346 345 346 344 344 344 350 345 346 349 353 351 344 345 345 347 348 348 347 346 347 348 346 343 340
345 349 348 348 348 347 346 345 342 344 350 347 348 348 344 349 350 346 349 349 348 346 348 345 345 347 348 347 347 348 347 344 344 347 346 350 349 351 349 348 348 346 339
351 349 350 348 347 346 345 343 338 341 346 348 349 347 348 344 348 345 349 347 347 346 348 346 349 346 344 343 346 349 351 346 347 346 345 348 349 347 345 343 342 342 342
352 350 350 350 348 346 345 342 340 341 344 345 347 346 347 343 342 347 346 348 346 344 344 344 345 341 341 340 340 342 346 347 345 342 343 341 343 347 346 346 343 342 345
347 350 350 351 351 351 348 346 345 347 347 346 347 346 344 343 342 343 343 344 344 344 344 344 340 342 340 341 338 339 341 342 345 343 342 341 342 344 343 344 342 342 342
345 344 349 349 349 350 350 349 348 347 346 347 347 345 343 342 343 344 344 343 343 343 342 342 340 333 330 336 340 340 340 340 340 342 343 343 343 343 342 342 340 338 337
342 343 343 344 345 347 348 348 349 350 348 347 346 344 342 340 340 342 342 341 340 341 340 338 335 332 335 337 337 338 341 341 342 341 342 342 342 341 338 336 334 329 326
339 340 341 341 342 345 346 347 347 348 347 346 346 344 343 341 340 340 340 340 340 341 340 339 338 338 335 334 335 337 340 341 341 340 338 336 334 333 330 331 330 327 320
335 335 337 339 339 340 342 343 344 344 346 346 345 345 343 342 340 340 340 338 340 340 339 339 338 338 336 336 336 337 339 340 338 338 336 332 330 326 324 325 321 317 315
328 329 330 331 333 334 336 337 335 338 340 342 341 341 339 339 339 340 339 339 338 337 338 338 338 337 336 335 336 336 336 336 336 334 331 328 326 325 321 318 315 314 315
323 321 321 321 323 325 328 329 329 329 330 331 332 331 332 332 333 335 334 335 336 335 334 331 329 329 331 333 333 331 330 329 328 327 324 321 316 313 312 312 314 315 315
312 312 313 315 316 317 315 314 317 320 323 321 324 327 327 328 330 330 332 331 332 332 331 331 328 327 327 325 325 324 325 322 319 316 313 311 310 309 312 314 315 313 306
313 313 313 311 309 308 310 312 314 313 313 314 316 316 315 314 317 324 327 326 325 326 326 326 325 324 324 323 320 317 314 311 310 308 309 311 309 309 308 307 306 306 305

GFSMW_850_thetae_114.txt.gz
Theta_e
343 342 343 344 343 340 343 339 341 340 341 345 346 344 345 345 347 347 346 342 343 346 348 344 342 344 344 345 345 347 343 342 344 346 345 344 344 344 344 345 346 343 344
343 343 343 343 343 342 342 339 342 341 345 345 347 346 346 345 347 347 346 345 345 346 345 340 344 345 340 343 347 349 345 343 345 348 345 342 343 344 345 345 346 345 344
344 344 343 343 344 341 344 343 340 340 340 346 347 346 344 345 346 345 346 344 345 345 346 342 344 344 340 344 348 349 346 347 345 347 347 349 348 346 344 345 344 344 343
342 344 344 345 344 342 343 343 342 341 342 345 346 347 346 347 345 345 344 346 345 344 345 346 344 344 346 343 345 347 350 349 349 348 345 344 344 343 345 344 343 342 343
342 344 345 345 344 342 341 342 342 341 342 346 347 347 347 346 347 345 344 346 346 346 345 345 345 343 348 347 344 345 346 349 347 347 345 344 344 339 343 337 337 342 341
344 345 345 345 345 343 340 343 342 343 341 344 348 346 348 346 347 347 346 346 346 346 347 347 347 345 341 344 344 345 343 347 345 349 347 343 342 342 341 337 336 336 339
344 345 346 346 345 344 343 341 341 344 342 342 346 345 347 345 347 347 347 346 345 346 346 348 346 344 344 345 342 340 342 343 344 343 346 344 344 341 343 343 344 343 343
345 345 345 346 345 344 344 341 339 343 341 342 343 347 345 345 346 343 344 340 345 345 340 345 344 350 343 341 341 340 344 342 342 340 342 343 343 344 343 345 343 343 342
346 345 346 345 345 345 345 345 343 342 341 339 340 343 345 346 347 345 345 346 346 346 348 347 345 345 346 347 347 345 341 340 343 344 341 343 344 344 346 348 343 347 344
344 346 346 346 347 346 346 346 345 345 342 341 339 340 343 343 346 346 346 343 343 342 343 346 346 347 347 345 345 344 343 345 339 342 340 344 343 345 341 345 343 346 344
343 345 345 346 346 346 347 346 346 347 346 342 340 339 341 345 345 346 344 343 342 340 338 346 346 348 348 349 349 348 344 347 347 341 341 345 346 346 341 341 343 344 343
344 345 345 345 346 346 347 347 347 347 347 345 342 340 344 343 341 344 344 341 338 341 341 342 347 346 347 350 346 345 345 343 344 346 346 346 342 342 346 347 346 348 346
342 343 345 345 347 346 347 347 348 348 348 346 345 343 343 343 341 341 339 340 342 343 343 344 346 346 347 345 344 344 343 343 347 345 347 347 346 345 346 345 345 345 344
343 341 343 345 346 348 347 348 348 347 348 344 345 345 348 345 342 342 343 343 343 340 344 343 342 345 346 344 345 345 343 345 347 345 346 347 349 349 345 346 345 345 345
343 342 343 342 346 347 347 346 347 348 348 345 345 344 345 345 345 345 346 345 347 345 347 345 343 346 345 344 345 344 344 343 344 345 347 348 347 345 346 346 344 339 337
345 349 345 343 342 345 345 346 347 346 347 343 344 346 346 345 343 347 346 345 347 344 344 346 345 344 343 345 345 344 344 348 344 344 343 340 344 345 344 343 341 341 341
337 346 348 347 347 346 346 346 345 343 343 340 342 348 347 346 345 346 346 343 344 347 344 347 343 342 342 341 342 341 344 345 348 344 342 342 340 341 345 343 345 345 342
336 341 346 346 347 347 347 346 345 344 339 344 345 346 346 346 346 346 344 343 345 346 345 344 342 342 341 341 340 341 340 340 341 344 345 343 341 341 343 343 344 342 343
336 341 345 347 348 345 345 344 345 343 339 343 345 344 343 345 343 343 343 343 344 343 344 343 344 343 342 340 337 337 340 340 340 341 342 342 342 343 343 342 341 339 337
338 339 341 344 345 346 348 346 343 341 344 346 345 345 346 345 344 342 343 343 343 343 343 342 342 342 340 336 333 337 338 338 339 341 341 342 342 341 340 337 335 331 326
334 336 339 340 340 346 346 337 338 348 347 346 347 346 344 342 341 340 342 342 341 341 341 341 339 335 334 332 334 336 335 336 340 340 338 337 336 336 334 332 329 326 323
334 334 336 338 340 342 345 345 346 346 345 336 343 345 343 341 340 340 340 340 340 340 341 340 339 338 338 337 335 336 338 339 340 339 336 333 332 330 328 326 322 318 316
329 331 334 334 335 337 339 341 340 340 343 345 345 344 343 342 340 340 340 339 339 340 340 339 338 338 338 336 335 334 335 336 336 335 333 332 329 326 324 321 317 315 314
329 326 329 330 331 331 333 334 333 335 337 339 339 339 339 339 339 339 339 339 338 338 337 337 338 335 333 332 332 332 331 330 329 329 328 325 321 317 314 313 312 313 314
321 320 321 320 321 321 326 328 328 329 331 331 331 331 332 332 332 333 334 334 335 335 333 332 332 329 326 326 326 325 324 324 323 320 317 314 312 310 311 313 314 314 312
311 310 309 310 313 315 317 318 315 316 322 324 324 322 324 323 323 326 328 329 329 329 327 329 329 328 327 325 322 319 316 314 311 310 309 310 310 309 308 307 307 307 305

GFSMW_850_thetae_117.txt.gz
Theta_e
344 344 344 343 343 343 341 340 341 341 343 344 344 344 343 344 345 345 345 343 341 345 343 343 342 345 345 343 348 347 342 343 344 346 344 344 344 343 344 344 344 344 343
343 344 344 344 343 341 341 340 341 341 341 343 344 343 343 344 346 344 344 343 343 343 345 341 341 344 341 342 346 347 342 343 345 346 344 343 344 344 344 345 345 345 345
343 343 344 344 343 341 341 339 339 339 339 345 346 344 346 345 346 347 346 345 343 343 344 341 343 344 340 340 347 348 344 341 346 346 348 346 345 344 344 345 345 344 343
343 343 344 344 341 342 341 338 339 338 344 345 346 346 345 345 344 345 345 345 343 343 345 342 342 344 343 341 343 347 349 348 345 346 345 343 344 344 344 343 343 343 341
343 343 343 343 342 343 342 340 339 340 340 345 346 345 346 345 345 343 344 345 345 345 345 344 345 343 347 344 344 345 347 347 345 345 345 344 343 339 341 339 339 336 340
343 343 343 343 343 343 343 343 342 342 340 342 345 345 346 346 346 345 345 345 346 345 346 345 344 344 343 346 344 343 343 346 346 347 345 342 342 341 339 338 341 341 340
343 343 343 343 344 343 342 343 342 340 341 343 345 346 346 346 345 346 346 345 345 345 345 346 346 344 346 343 346 342 344 341 344 344 345 344 342 341 341 343 344 343 342
342 343 343 344 344 344 342 341 342 341 342 340 341 345 345 346 344 344 345 344 346 345 344 344 348 346 343 343 344 342 339 342 342 342 340 343 343 343 343 340 342 342 342
343 343 342 344 344 344 343 342 340 340 341 340 340 341 344 343 343 346 343 342 341 346 345 342 345 345 345 343 343 342 341 342 342 342 340 340 342 342 341 347 343 344 343
344 344 344 344 344 344 344 344 343 339 338 341 339 340 342 343 343 346 344 344 345 346 345 347 346 346 343 345 346 345 344 342 344 347 345 344 345 344 341 340 344 342 342
345 345 345 345 345 345 344 344 344 343 341 341 340 339 339 340 344 345 344 344 343 342 341 341 344 346 345 347 345 346 343 345 344 344 343 344 347 346 344 343 344 345 345
344 345 345 345 345 345 344 344 345 345 344 344 342 340 339 342 343 344 345 342 341 340 338 339 344 346 347 347 348 348 347 343 345 345 343 342 342 341 343 346 346 346 347
341 341 343 345 346 346 346 346 346 346 345 346 345 342 344 343 342 343 342 346 343 339 341 342 342 345 346 345 348 345 343 343 342 344 344 346 347 346 345 344 344 344 344
340 344 344 344 346 346 346 346 345 346 346 346 347 346 344 343 344 341 340 341 341 344 343 344 344 345 345 345 344 344 343 343 343 345 344 346 346 346 347 344 347 344 344
342 342 343 345 345 345 345 345 346 347 346 347 347 346 344 342 344 344 342 342 343 345 344 346 344 342 344 345 345 344 345 340 342 345 343 345 344 345 344 345 346 345 338
344 342 341 342 344 346 346 346 346 347 347 347 346 346 345 343 347 345 345 347 346 343 347 347 347 345 345 345 344 344 344 343 341 343 343 344 346 341 342 342 342 341 341
343 345 345 346 344 345 346 347 348 348 348 348 347 347 344 344 342 344 345 345 345 343 344 344 343 346 343 344 342 342 342 342 342 342 342 342 341 340 340 343 342 343 343
337 340 339 343 345 345 345 346 346 347 347 348 347 347 345 343 344 344 345 344 346 345 343 344 343 343 342 341 341 341 341 340 340 340 344 344 343 342 340 341 342 342 341
340 339 340 344 344 342 345 345 345 346 345 343 343 342 342 342 344 345 344 345 345 343 343 345 344 343 343 343 341 339 337 340 340 339 339 339 339 341 341 342 342 341 341
338 341 341 343 344 343 342 343 340 344 344 343 341 341 345 345 345 345 345 344 343 342 343 343 344 343 343 342 342 340 335 335 335 335 336 336 340 341 341 340 339 338 335
335 337 337 340 341 344 346 343 337 336 338 336 341 339 344 344 344 344 343 341 343 343 343 343 343 342 339 337 335 336 336 336 336 335 337 339 338 337 333 330 328 323 325
332 333 336 338 341 341 344 341 339 338 341 344 343 336 338 344 342 340 340 341 341 341 341 341 340 336 336 336 335 334 335 338 339 337 334 330 331 331 328 324 322 321 320
331 332 335 335 336 338 340 341 340 342 344 342 333 342 338 338 339 338 340 340 340 340 340 340 339 338 337 337 336 334 335 337 338 337 332 331 334 331 328 328 327 322 318
327 328 330 332 332 333 334 335 336 338 339 339 340 341 341 341 340 340 340 339 339 339 339 338 337 337 337 335 334 334 333 333 333 332 331 329 325 322 319 316 314 314 315
317 318 321 323 324 326 329 329 329 331 333 334 334 335 336 336 336 336 336 336 337 337 336 336 334 330 327 327 328 327 325 324 325 323 322 322 319 315 312 312 313 313 313
313 314 315 316 316 316 317 318 321 323 325 326 324 326 325 328 329 329 330 331 331 330 331 330 328 325 324 324 320 318 318 317 314 313 311 311 311 310 309 309 308 308 307

GFSMW_850_thetae_120.txt.gz
Theta_e
343 344 343 342 342 341 343 341 342 344 344 344 343 344 344 344 344 345 344 342 342 344 342 341 341 342 344 343 346 343 343 343 344 344 344 343 344 343 344 344 344 344 345
343 344 344 342 342 342 343 341 342 342 342 343 342 343 344 344 345 344 343 343 342 343 346 341 341 344 341 342 345 345 342 342 344 346 344 343 343 343 343 344 344 344 345
342 343 344 342 342 343 343 341 340 342 341 342 342 344 343 343 345 345 345 345 344 344 344 344 343 342 343 339 344 346 343 341 345 345 346 345 344 343 343 343 344 344 342
343 344 344 343 343 343 342 341 340 342 341 343 343 343 343 343 344 345 344 343 343 344 346 342 341 344 343 338 342 347 345 345 344 345 344 343 343 344 344 343 343 343 342
343 343 343 343 342 343 340 341 339 340 340 339 345 344 345 343 344 344 344 345 342 343 342 343 344 343 344 344 342 343 346 347 345 344 344 344 342 341 338 340 337 336 335
342 343 342 343 343 343 341 340 339 338 339 343 345 345 345 344 344 344 343 342 344 343 344 344 343 343 343 346 345 343 344 345 346 345 345 342 341 340 340 340 343 342 342
341 343 343 343 343 342 342 341 339 340 342 342 341 345 343 345 345 345 345 345 344 344 344 343 345 344 344 344 344 343 343 342 343 344 344 345 343 342 341 342 342 342 341
339 342 343 342 343 342 343 342 341 340 340 340 340 342 344 345 345 345 346 346 346 345 346 345 344 344 345 344 342 343 340 340 341 341 342 341 343 342 342 342 342 341 341
340 340 342 342 342 342 343 342 341 341 341 340 341 343 344 345 345 345 343 344 343 345 345 345 344 344 345 343 342 343 343 342 342 342 341 341 342 342 342 342 345 344 342
342 341 342 342 342 342 344 343 341 340 340 340 341 341 340 342 343 343 343 346 342 341 346 345 344 342 345 344 343 345 345 344 343 344 343 343 343 344 343 340 340 342 342
344 341 341 342 341 342 343 343 342 341 340 339 338 342 341 341 341 343 344 345 345 344 343 345 345 345 346 345 344 345 345 344 345 345 341 343 343 346 346 344 343 344 344
344 343 341 341 341 342 343 344 343 343 342 340 338 340 340 340 341 341 343 345 345 342 341 341 341 340 346 346 346 345 347 346 345 345 345 343 343 343 344 346 346 346 346
344 344 343 342 342 342 343 344 344 343 344 344 342 341 340 339 337 340 342 345 345 343 340 340 340 341 346 346 346 346 346 344 343 342 344 344 347 348 347 347 346 346 345
342 345 345 344 344 345 344 344 345 344 344 344 345 344 344 341 339 342 341 344 344 344 340 342 343 341 344 346 345 345 345 343 343 342 344 345 345 345 347 346 344 347 346
341 340 341 342 343 345 345 345 345 345 345 345 345 345 345 346 344 342 343 342 342 341 343 345 345 344 344 344 344 343 344 344 342 341 343 344 344 344 344 344 343 345 344
343 342 341 341 344 344 345 346 346 346 346 346 345 345 346 347 346 342 343 344 341 343 344 346 346 346 344 341 342 343 344 344 344 341 342 343 342 345 345 341 342 341 341
340 345 343 342 342 344 345 346 346 345 346 346 347 347 347 347 346 343 344 345 344 345 344 343 343 344 344 344 342 342 343 344 344 341 341 343 342 342 340 339 341 342 341
337 340 342 345 343 344 343 343 344 345 346 346 346 347 348 347 346 344 342 344 342 344 344 344 344 344 343 342 342 342 341 341 341 342 342 341 342 341 340 341 339 340 341
335 337 341 343 343 344 342 343 345 345 345 345 345 345 346 347 346 345 343 343 343 343 344 345 344 343 344 342 338 341 339 339 340 340 339 339 340 341 341 340 341 341 341
334 336 338 340 341 344 340 340 345 344 342 336 340 342 344 341 343 343 343 344 341 343 341 342 341 343 344 340 335 341 340 338 337 336 337 337 336 333 338 340 341 341 340
332 335 336 338 340 343 344 344 342 337 337 337 334 336 340 341 343 343 343 344 342 342 341 340 342 343 343 343 341 341 339 338 338 338 336 334 333 334 338 335 334 332 328
332 334 336 337 339 341 341 344 343 336 336 335 336 342 337 339 343 343 342 341 342 340 339 339 340 341 337 336 335 334 334 334 334 336 337 336 335 331 328 326 324 321 324
331 331 333 335 337 337 338 339 340 341 342 341 342 341 336 338 338 339 336 334 337 338 339 339 339 338 336 335 335 335 336 337 337 337 334 330 329 331 332 327 320 320 320
329 329 329 330 330 332 333 333 334 337 339 339 334 338 341 338 337 338 334 338 338 338 339 338 337 335 335 334 332 333 333 335 336 335 332 330 329 326 322 319 318 318 317
323 323 324 325 325 326 327 329 330 332 335 335 334 335 335 336 336 336 337 337 337 336 337 336 334 333 330 328 326 325 327 327 326 327 328 327 324 320 317 315 313 313 313
317 317 317 317 318 318 317 320 322 325 327 329 330 330 329 328 329 330 330 330 330 329 330 330 327 327 324 325 322 321 319 320 318 314 314 316 315 314 312 311 310 309 309

GFSMW_850_thetae_123.txt.gz
Theta_e
344 345 345 343 342 342 342 342 343 343 343 343 343 342 344 342 342 342 341 340 342 343 340 341 340 343 342 342 345 343 344 343 345 344 344 343 343 343 343 344 344 344 344
344 344 344 343 341 340 341 342 343 343 344 343 342 343 343 344 344 344 344 341 341 344 344 341 342 343 342 342 343 344 342 343 344 345 343 347 343 342 343 343 343 344 344
344 344 344 344 342 341 340 342 341 344 344 344 343 343 344 343 345 344 342 342 343 341 344 343 342 343 342 339 342 345 343 342 345 345 348 347 346 343 343 343 343 343 343
344 344 344 344 342 342 342 342 341 342 343 343 343 343 342 344 343 343 343 344 344 343 346 341 343 343 343 341 340 347 346 344 344 344 344 343 343 347 347 341 339 339 339
342 342 344 344 342 342 342 343 342 341 342 342 343 342 343 341 342 344 344 342 342 344 346 343 343 342 344 343 340 343 347 347 345 344 344 343 342 341 340 342 340 340 337
342 342 343 345 344 342 342 343 342 341 341 342 341 344 345 343 344 344 344 344 343 342 343 343 343 343 342 343 344 342 344 345 346 346 345 342 341 340 340 342 343 342 342
342 343 345 345 343 343 342 342 341 340 339 340 340 343 345 344 343 343 344 343 343 343 343 344 344 342 342 342 343 345 343 343 343 344 344 345 344 343 342 341 341 341 341
341 343 344 343 343 342 343 342 341 339 338 337 339 344 344 344 344 344 345 345 345 345 344 345 344 343 343 344 343 342 343 341 342 342 342 342 342 342 342 342 344 345 345
342 342 344 344 342 342 342 342 342 340 339 339 342 341 341 343 344 345 345 345 344 345 345 346 345 345 345 345 345 343 342 341 340 341 342 341 341 341 341 341 342 346 345
342 342 341 343 342 342 342 342 343 341 340 340 339 339 340 343 345 345 345 345 345 344 342 342 344 345 343 344 344 344 342 342 342 341 342 342 343 343 343 343 341 341 343
343 342 341 340 341 342 342 342 343 342 341 340 341 339 340 341 341 342 342 344 343 345 343 344 345 345 345 344 345 343 343 344 345 342 344 340 343 344 345 345 343 343 343
343 341 342 340 340 342 341 342 343 343 341 341 340 339 340 341 340 340 340 343 344 344 345 342 342 343 343 345 346 344 344 343 343 343 344 344 344 341 342 342 342 343 343
341 342 342 341 340 341 341 342 342 343 343 342 341 339 338 339 340 338 339 340 342 345 344 340 340 340 339 342 345 344 345 345 345 344 343 344 344 343 347 344 345 345 344
342 343 343 343 341 340 341 341 342 343 343 343 343 342 340 340 339 337 337 338 341 344 345 343 340 342 342 341 346 346 344 343 344 343 343 342 343 345 343 344 344 344 344
345 345 344 344 343 342 342 342 342 342 344 344 343 343 343 342 342 343 340 340 341 344 344 345 343 343 344 343 344 345 345 344 343 343 342 343 344 344 344 344 343 343 342
342 343 343 344 343 344 344 344 344 344 344 344 345 345 344 344 344 344 345 343 342 343 343 343 342 344 344 345 342 343 343 344 344 344 344 340 343 344 344 346 343 342 341
338 343 342 342 342 342 342 343 343 344 345 345 345 345 346 346 346 345 346 345 343 343 342 342 344 345 344 345 345 343 343 343 344 344 343 342 342 343 343 342 341 341 341
338 339 342 342 343 344 345 342 345 346 346 345 346 346 345 345 346 347 346 347 344 343 343 344 346 344 343 343 342 343 342 341 342 342 343 343 342 343 343 341 341 341 340
336 337 340 343 343 343 344 344 344 343 343 345 342 343 344 343 344 344 343 346 344 343 343 341 343 344 344 344 342 343 342 340 340 341 341 341 342 342 342 341 341 341 341
334 337 339 340 341 342 342 340 344 344 344 343 343 340 337 339 343 344 343 344 343 344 343 343 342 341 341 341 343 343 342 335 337 337 338 339 339 337 335 335 337 340 341
331 335 334 338 340 343 343 343 344 344 340 339 340 336 337 339 341 343 343 344 344 344 343 342 342 335 342 339 338 341 339 340 339 337 338 338 337 336 334 334 335 338 337
331 332 334 336 338 340 341 343 342 338 336 335 335 338 339 337 340 342 343 342 342 342 342 339 336 340 340 338 334 339 338 337 338 337 335 335 334 335 333 333 331 327 327
330 332 333 334 334 335 337 339 340 340 340 339 341 342 340 341 339 341 338 338 336 337 334 337 337 338 338 335 335 336 335 335 334 337 337 336 333 331 328 328 326 322 322
327 327 329 331 331 332 333 334 336 338 339 340 340 336 337 339 337 339 336 334 338 337 335 336 337 337 335 334 335 335 335 335 335 332 326 323 322 327 329 326 324 326 325
321 322 324 325 326 327 330 331 331 333 334 334 335 335 336 336 336 336 335 336 334 335 336 336 334 332 331 328 328 329 329 330 329 328 325 325 325 323 320 318 316 315 314
318 318 318 318 318 317 320 320 320 323 326 328 329 328 329 329 331 331 331 330 330 330 329 329 328 328 327 326 324 323 322 322 321 317 314 316 316 316 314 313 311 311 310

GFSMW_850_thetae_126.txt.gz
Theta_e
345 345 345 344 345 345 346 348 349 348 347 347 347 346 346 346 345 345 344 343 349 345 341 349 347 350 351 349 353 349 350 350 350 348 346 346 346 345 346 347 347 349 349
344 346 345 345 346 346 346 348 348 347 345 349 348 348 347 347 346 347 347 348 347 344 343 341 347 346 351 348 346 348 350 351 351 352 347 346 346 344 346 348 349 350 349
343 346 346 346 346 346 347 348 349 348 342 350 349 348 348 347 346 348 347 347 346 349 344 341 346 345 348 350 350 350 345 349 350 347 353 348 347 347 349 349 349 347 348
342 344 346 346 346 346 347 348 347 344 343 343 349 349 347 346 347 349 348 349 349 351 350 342 342 342 349 346 349 351 349 348 350 350 349 345 345 347 345 347 346 346 345
341 343 345 346 346 347 348 348 348 341 348 347 344 346 346 347 348 348 349 349 348 349 351 342 341 341 349 349 345 350 346 352 351 349 350 347 347 344 346 343 344 347 345
341 342 343 345 347 347 348 348 349 341 341 341 341 343 348 348 347 349 349 348 347 348 348 350 343 348 349 346 349 349 345 347 350 351 349 348 347 347 345 345 346 345 347
342 342 343 344 347 347 348 348 349 343 342 342 347 346 348 347 348 348 347 350 349 348 349 344 344 347 344 343 350 347 347 347 349 350 350 350 349 348 347 346 344 344 344
344 342 343 345 347 348 348 348 349 347 345 345 346 348 345 348 348 349 348 349 349 350 351 352 351 351 350 351 350 349 350 351 348 352 348 349 348 348 348 347 345 341 344
344 341 343 345 347 348 348 349 349 349 348 346 345 342 342 344 350 351 351 349 351 351 349 347 351 350 351 350 350 351 351 351 350 350 350 347 347 348 346 347 346 345 341
345 342 342 345 347 347 348 349 349 349 348 346 346 346 348 343 347 347 347 351 350 345 345 346 347 350 350 350 348 350 351 351 350 349 349 349 346 348 348 347 347 347 345
346 345 343 344 346 347 347 348 349 349 349 347 347 347 348 348 347 349 345 344 346 344 343 344 342 345 349 349 349 346 345 351 351 351 350 351 351 347 346 347 346 346 346
344 345 343 346 346 347 347 347 349 349 349 348 348 348 348 348 349 347 348 347 342 342 345 345 344 342 343 349 349 348 351 351 351 351 351 351 349 350 350 347 347 347 349
345 346 346 344 343 346 349 349 349 349 350 350 349 349 349 349 348 348 348 344 340 341 344 345 343 340 340 342 348 344 349 350 351 351 351 351 351 350 347 349 350 349 350
346 346 346 345 342 348 349 350 350 349 350 350 350 350 350 348 348 349 350 349 347 340 339 344 345 343 339 341 342 346 349 350 351 350 350 350 350 350 343 345 346 347 349
348 347 345 346 342 343 347 344 342 349 344 345 350 351 351 350 348 350 349 347 342 347 342 344 346 345 345 347 348 345 344 345 350 351 348 348 348 344 344 344 344 348 345
342 345 347 347 347 347 346 347 342 342 343 342 343 348 344 344 343 344 344 346 344 344 346 348 348 347 347 347 344 344 344 347 349 350 350 349 345 341 344 345 345 344 342
340 341 342 345 345 346 348 347 349 350 344 346 344 344 344 345 345 345 346 345 345 346 346 345 346 347 346 343 344 345 343 343 347 346 347 348 350 343 343 343 343 343 342
336 338 341 342 343 344 344 342 342 346 349 348 345 347 347 346 345 345 345 344 346 346 346 346 346 344 346 344 343 343 344 343 343 344 343 346 347 343 343 343 344 342 340
335 336 339 341 342 342 342 343 342 344 346 347 347 346 344 344 345 344 344 344 345 345 344 343 342 343 344 344 344 343 343 342 342 341 342 342 345 342 342 344 343 343 342
335 336 338 339 341 342 343 342 343 344 345 345 343 342 342 337 337 338 340 342 344 344 343 342 342 343 343 342 342 340 343 342 340 337 338 340 341 341 341 339 339 339 340
334 335 337 338 340 342 342 341 341 344 344 343 343 339 338 339 338 341 342 344 343 343 343 342 342 343 341 338 335 334 339 342 341 339 338 338 337 338 336 336 335 334 335
332 334 336 336 338 341 343 343 342 343 339 338 337 338 336 337 339 340 341 342 343 343 343 342 340 338 339 340 336 334 339 339 340 339 338 337 336 335 334 334 334 332 331
331 333 334 334 335 337 339 341 341 339 338 336 336 339 339 339 340 339 338 338 338 338 339 337 336 337 338 338 338 336 336 337 338 337 337 336 334 336 335 333 326 324 323
328 329 330 332 333 333 334 336 338 339 340 340 339 337 338 339 338 337 339 336 336 337 337 337 337 336 336 336 335 335 336 336 335 335 336 335 331 326 325 326 328 327 324
325 327 327 326 327 329 331 331 332 333 335 336 336 337 337 338 338 337 337 335 336 334 335 334 334 333 331 332 333 335 332 332 330 329 327 326 325 325 324 322 318 316 317
322 321 320 319 321 322 321 321 322 326 329 330 330 331 332 332 332 332 331 331 331 331 330 330 329 328 327 328 326 327 326 325 323 323 321 318 317 316 315 314 313 312 314